<?xml version='1.0' encoding='UTF-8'?><gpx version="1.1" creator="JPX - https://github.com/jenetics/jpx" xmlns="http://www.topografix.com/GPX/1/1"><trk><trkseg><trkpt lat="46.2420771" lon="8.3127789"><ele>837.0</ele><time>2026-04-26T08:04:37.776Z</time></trkpt><trkpt lat="46.2421265" lon="8.3128519"><ele>837.0</ele><time>2026-04-26T08:04:44.81Z</time></trkpt><trkpt lat="46.2421225" lon="8.3129433"><ele>837.0</ele><time>2026-04-26T08:04:59.622Z</time></trkpt><trkpt lat="46.2420774" lon="8.3130218"><ele>837.0</ele><time>2026-04-26T08:05:05.107Z</time></trkpt><trkpt lat="46.2420138" lon="8.3130515"><ele>837.0</ele><time>2026-04-26T08:05:07.117Z</time></trkpt><trkpt lat="46.2419452" lon="8.3130717"><ele>837.0</ele><time>2026-04-26T08:05:09.102Z</time></trkpt><trkpt lat="46.2418532" lon="8.3130912"><ele>837.0</ele><time>2026-04-26T08:05:11.099Z</time></trkpt><trkpt lat="46.2417561" lon="8.3131532"><ele>834.6666666666666</ele><time>2026-04-26T08:05:13.09Z</time></trkpt><trkpt lat="46.241688" lon="8.3132099"><ele>832.3333333333333</ele><time>2026-04-26T08:05:14.1Z</time></trkpt><trkpt lat="46.2416387" lon="8.3132837"><ele>830.0</ele><time>2026-04-26T08:05:15.099Z</time></trkpt><trkpt lat="46.2415927" lon="8.3133476"><ele>827.6666666666666</ele><time>2026-04-26T08:05:16.103Z</time></trkpt><trkpt lat="46.2414877" lon="8.313404"><ele>825.3333333333333</ele><time>2026-04-26T08:05:18.096Z</time></trkpt><trkpt lat="46.2414158" lon="8.313447"><ele>823.0</ele><time>2026-04-26T08:05:20.093Z</time></trkpt><trkpt lat="46.2413396" lon="8.31343"><ele>822.4999999999999</ele><time>2026-04-26T08:05:24.097Z</time></trkpt><trkpt lat="46.2413163" lon="8.3133252"><ele>822.0</ele><time>2026-04-26T08:05:26.097Z</time></trkpt><trkpt lat="46.2412978" lon="8.3132137"><ele>821.5</ele><time>2026-04-26T08:05:28.106Z</time></trkpt><trkpt lat="46.241269" lon="8.3131231"><ele>821.0</ele><time>2026-04-26T08:05:30.113Z</time></trkpt><trkpt lat="46.2412085" lon="8.3130527"><ele>820.4999999999999</ele><time>2026-04-26T08:05:32.103Z</time></trkpt><trkpt lat="46.2411395" lon="8.3129798"><ele>820.0</ele><time>2026-04-26T08:05:34.106Z</time></trkpt><trkpt lat="46.2410562" lon="8.3129234"><ele>822.6</ele><time>2026-04-26T08:05:36.118Z</time></trkpt><trkpt lat="46.2409595" lon="8.3129073"><ele>825.2</ele><time>2026-04-26T08:05:38.103Z</time></trkpt><trkpt lat="46.2408612" lon="8.3129394"><ele>827.8</ele><time>2026-04-26T08:05:40.101Z</time></trkpt><trkpt lat="46.240756" lon="8.3129743"><ele>830.4</ele><time>2026-04-26T08:05:42.089Z</time></trkpt><trkpt lat="46.2406485" lon="8.3130311"><ele>833.0</ele><time>2026-04-26T08:05:44.092Z</time></trkpt><trkpt lat="46.2405375" lon="8.3130582"><ele>831.3333333333334</ele><time>2026-04-26T08:05:46.102Z</time></trkpt><trkpt lat="46.2404379" lon="8.3130778"><ele>829.6666666666667</ele><time>2026-04-26T08:05:48.103Z</time></trkpt><trkpt lat="46.2403453" lon="8.3130765"><ele>828.0</ele><time>2026-04-26T08:05:50.102Z</time></trkpt><trkpt lat="46.2402609" lon="8.3130912"><ele>826.3333333333333</ele><time>2026-04-26T08:05:52.106Z</time></trkpt><trkpt lat="46.2401797" lon="8.3130996"><ele>824.6666666666666</ele><time>2026-04-26T08:05:54.107Z</time></trkpt><trkpt lat="46.240105" lon="8.3131225"><ele>823.0</ele><time>2026-04-26T08:05:56.103Z</time></trkpt><trkpt lat="46.2400268" lon="8.3131398"><ele>822.9999999999999</ele><time>2026-04-26T08:05:58.1Z</time></trkpt><trkpt lat="46.239957" lon="8.3131315"><ele>823.0</ele><time>2026-04-26T08:06:00.112Z</time></trkpt><trkpt lat="46.2398722" lon="8.3130737"><ele>823.0</ele><time>2026-04-26T08:06:03.108Z</time></trkpt><trkpt lat="46.2398031" lon="8.3130159"><ele>823.0</ele><time>2026-04-26T08:06:06.186Z</time></trkpt><trkpt lat="46.2397283" lon="8.3129427"><ele>822.9999999999999</ele><time>2026-04-26T08:06:09.098Z</time></trkpt><trkpt lat="46.23966" lon="8.3129232"><ele>823.0</ele><time>2026-04-26T08:06:11.094Z</time></trkpt><trkpt lat="46.2395985" lon="8.3128878"><ele>825.1666666666666</ele><time>2026-04-26T08:06:13.091Z</time></trkpt><trkpt lat="46.2395218" lon="8.3128362"><ele>827.3333333333333</ele><time>2026-04-26T08:06:16.094Z</time></trkpt><trkpt lat="46.2394423" lon="8.3127849"><ele>829.5</ele><time>2026-04-26T08:06:19.1Z</time></trkpt><trkpt lat="46.2393658" lon="8.3127258"><ele>831.6666666666667</ele><time>2026-04-26T08:06:22.096Z</time></trkpt><trkpt lat="46.2393003" lon="8.3127137"><ele>833.8333333333334</ele><time>2026-04-26T08:06:24.106Z</time></trkpt><trkpt lat="46.23923" lon="8.3127101"><ele>836.0</ele><time>2026-04-26T08:06:26.102Z</time></trkpt><trkpt lat="46.2391672" lon="8.3126838"><ele>836.0000000000001</ele><time>2026-04-26T08:06:28.095Z</time></trkpt><trkpt lat="46.2390939" lon="8.3126432"><ele>836.0</ele><time>2026-04-26T08:06:30.099Z</time></trkpt><trkpt lat="46.2390083" lon="8.3126331"><ele>836.0</ele><time>2026-04-26T08:06:32.103Z</time></trkpt><trkpt lat="46.2389261" lon="8.3126141"><ele>836.0</ele><time>2026-04-26T08:06:34.11Z</time></trkpt><trkpt lat="46.238842" lon="8.3125764"><ele>836.0000000000001</ele><time>2026-04-26T08:06:36.117Z</time></trkpt><trkpt lat="46.238772" lon="8.3125514"><ele>836.0</ele><time>2026-04-26T08:06:38.105Z</time></trkpt><trkpt lat="46.2387014" lon="8.3125347"><ele>837.5000000000001</ele><time>2026-04-26T08:06:40.105Z</time></trkpt><trkpt lat="46.2386326" lon="8.3125359"><ele>839.0</ele><time>2026-04-26T08:06:42.102Z</time></trkpt><trkpt lat="46.2385676" lon="8.3125422"><ele>840.5</ele><time>2026-04-26T08:06:44.111Z</time></trkpt><trkpt lat="46.2384809" lon="8.3125414"><ele>842.0</ele><time>2026-04-26T08:06:47.099Z</time></trkpt><trkpt lat="46.238418" lon="8.312534"><ele>843.5000000000001</ele><time>2026-04-26T08:06:49.105Z</time></trkpt><trkpt lat="46.2383281" lon="8.3125165"><ele>845.0</ele><time>2026-04-26T08:06:52.107Z</time></trkpt><trkpt lat="46.2382346" lon="8.3125234"><ele>844.9999999999999</ele><time>2026-04-26T08:06:55.107Z</time></trkpt><trkpt lat="46.2381697" lon="8.3125476"><ele>845.0</ele><time>2026-04-26T08:06:57.107Z</time></trkpt><trkpt lat="46.2381035" lon="8.3125532"><ele>845.0</ele><time>2026-04-26T08:06:59.11Z</time></trkpt><trkpt lat="46.238022" lon="8.3126027"><ele>845.0</ele><time>2026-04-26T08:07:02.108Z</time></trkpt><trkpt lat="46.2379594" lon="8.3126185"><ele>845.0</ele><time>2026-04-26T08:07:04.103Z</time></trkpt><trkpt lat="46.2378961" lon="8.312634"><ele>844.9999999999999</ele><time>2026-04-26T08:07:06.131Z</time></trkpt><trkpt lat="46.2378117" lon="8.3126708"><ele>845.0</ele><time>2026-04-26T08:07:09.109Z</time></trkpt><trkpt lat="46.2377507" lon="8.3127173"><ele>846.8333333333334</ele><time>2026-04-26T08:07:11.105Z</time></trkpt><trkpt lat="46.2376716" lon="8.3127656"><ele>848.6666666666667</ele><time>2026-04-26T08:07:14.103Z</time></trkpt><trkpt lat="46.2375823" lon="8.3128002"><ele>850.5</ele><time>2026-04-26T08:07:17.106Z</time></trkpt><trkpt lat="46.2374957" lon="8.3128649"><ele>852.3333333333333</ele><time>2026-04-26T08:07:20.107Z</time></trkpt><trkpt lat="46.237436" lon="8.312903"><ele>854.1666666666666</ele><time>2026-04-26T08:07:22.106Z</time></trkpt><trkpt lat="46.2373806" lon="8.3128593"><ele>856.0</ele><time>2026-04-26T08:07:25.105Z</time></trkpt><trkpt lat="46.2374289" lon="8.3127801"><ele>855.9999999999999</ele><time>2026-04-26T08:07:29.105Z</time></trkpt><trkpt lat="46.2375138" lon="8.3127782"><ele>856.0</ele><time>2026-04-26T08:07:31.098Z</time></trkpt><trkpt lat="46.237595" lon="8.3127708"><ele>856.0</ele><time>2026-04-26T08:07:33.094Z</time></trkpt><trkpt lat="46.2376782" lon="8.3127565"><ele>856.0</ele><time>2026-04-26T08:07:35.095Z</time></trkpt><trkpt lat="46.2377456" lon="8.3127205"><ele>855.9999999999999</ele><time>2026-04-26T08:07:37.106Z</time></trkpt><trkpt lat="46.2378265" lon="8.3126832"><ele>856.0</ele><time>2026-04-26T08:07:40.111Z</time></trkpt><trkpt lat="46.2379038" lon="8.312634"><ele>856.0000000000001</ele><time>2026-04-26T08:07:43.103Z</time></trkpt><trkpt lat="46.2379828" lon="8.3125567"><ele>856.0</ele><time>2026-04-26T08:07:46.098Z</time></trkpt><trkpt lat="46.2380364" lon="8.3125064"><ele>856.0</ele><time>2026-04-26T08:07:48.107Z</time></trkpt><trkpt lat="46.2380952" lon="8.3124588"><ele>856.0</ele><time>2026-04-26T08:07:50.111Z</time></trkpt><trkpt lat="46.2381572" lon="8.3123972"><ele>856.0</ele><time>2026-04-26T08:07:52.107Z</time></trkpt><trkpt lat="46.2382168" lon="8.3123537"><ele>856.0000000000001</ele><time>2026-04-26T08:07:54.108Z</time></trkpt><trkpt lat="46.2382761" lon="8.3123031"><ele>856.0</ele><time>2026-04-26T08:07:56.11Z</time></trkpt><trkpt lat="46.2383545" lon="8.3122397"><ele>857.1666666666666</ele><time>2026-04-26T08:07:59.11Z</time></trkpt><trkpt lat="46.2384361" lon="8.3121675"><ele>858.3333333333333</ele><time>2026-04-26T08:08:02.111Z</time></trkpt><trkpt lat="46.2385068" lon="8.3121175"><ele>859.5</ele><time>2026-04-26T08:08:05.108Z</time></trkpt><trkpt lat="46.2385651" lon="8.3120495"><ele>860.6666666666667</ele><time>2026-04-26T08:08:08.104Z</time></trkpt><trkpt lat="46.2386342" lon="8.3119806"><ele>861.8333333333334</ele><time>2026-04-26T08:08:11.106Z</time></trkpt><trkpt lat="46.2387048" lon="8.3119292"><ele>863.0</ele><time>2026-04-26T08:08:14.105Z</time></trkpt><trkpt lat="46.2387707" lon="8.3118867"><ele>863.0000000000001</ele><time>2026-04-26T08:08:17.107Z</time></trkpt><trkpt lat="46.2388514" lon="8.3118352"><ele>863.0</ele><time>2026-04-26T08:08:20.109Z</time></trkpt><trkpt lat="46.2389344" lon="8.3117901"><ele>863.0</ele><time>2026-04-26T08:08:23.113Z</time></trkpt><trkpt lat="46.2390099" lon="8.3117712"><ele>863.0</ele><time>2026-04-26T08:08:26.114Z</time></trkpt><trkpt lat="46.239083" lon="8.3117475"><ele>863.0000000000001</ele><time>2026-04-26T08:08:29.116Z</time></trkpt><trkpt lat="46.2391502" lon="8.3116568"><ele>863.0</ele><time>2026-04-26T08:08:32.111Z</time></trkpt><trkpt lat="46.2391492" lon="8.311532"><ele>863.0000000000001</ele><time>2026-04-26T08:08:35.11Z</time></trkpt><trkpt lat="46.2391101" lon="8.3114391"><ele>863.0</ele><time>2026-04-26T08:08:37.106Z</time></trkpt><trkpt lat="46.2390409" lon="8.3114003"><ele>863.0</ele><time>2026-04-26T08:08:39.109Z</time></trkpt><trkpt lat="46.2389583" lon="8.3114103"><ele>863.0</ele><time>2026-04-26T08:08:41.107Z</time></trkpt><trkpt lat="46.2388804" lon="8.311438"><ele>863.0000000000001</ele><time>2026-04-26T08:08:43.108Z</time></trkpt><trkpt lat="46.2388089" lon="8.3114627"><ele>863.0</ele><time>2026-04-26T08:08:45.117Z</time></trkpt><trkpt lat="46.238714" lon="8.3114752"><ele>863.0000000000001</ele><time>2026-04-26T08:08:48.12Z</time></trkpt><trkpt lat="46.2386359" lon="8.3114886"><ele>863.0</ele><time>2026-04-26T08:08:51.122Z</time></trkpt><trkpt lat="46.2385577" lon="8.3114707"><ele>863.0</ele><time>2026-04-26T08:08:54.112Z</time></trkpt><trkpt lat="46.2384972" lon="8.3114282"><ele>863.0</ele><time>2026-04-26T08:08:56.104Z</time></trkpt><trkpt lat="46.23843" lon="8.3113971"><ele>863.0000000000001</ele><time>2026-04-26T08:08:59.102Z</time></trkpt><trkpt lat="46.238349" lon="8.3113456"><ele>863.0</ele><time>2026-04-26T08:09:03.112Z</time></trkpt><trkpt lat="46.2382881" lon="8.3112929"><ele>863.8333333333334</ele><time>2026-04-26T08:09:06.115Z</time></trkpt><trkpt lat="46.2382254" lon="8.3112299"><ele>864.6666666666667</ele><time>2026-04-26T08:09:09.1Z</time></trkpt><trkpt lat="46.2381785" lon="8.311161"><ele>865.5</ele><time>2026-04-26T08:09:12.106Z</time></trkpt><trkpt lat="46.2381258" lon="8.3110705"><ele>866.3333333333333</ele><time>2026-04-26T08:09:15.111Z</time></trkpt><trkpt lat="46.2380765" lon="8.3109683"><ele>867.1666666666666</ele><time>2026-04-26T08:09:18.116Z</time></trkpt><trkpt lat="46.2380252" lon="8.310875"><ele>868.0</ele><time>2026-04-26T08:09:21.108Z</time></trkpt><trkpt lat="46.2379811" lon="8.3107706"><ele>868.4285714285714</ele><time>2026-04-26T08:09:24.11Z</time></trkpt><trkpt lat="46.2379395" lon="8.3107"><ele>868.8571428571429</ele><time>2026-04-26T08:09:26.113Z</time></trkpt><trkpt lat="46.2378882" lon="8.3106239"><ele>869.2857142857142</ele><time>2026-04-26T08:09:28.112Z</time></trkpt><trkpt lat="46.2378416" lon="8.3105469"><ele>869.7142857142858</ele><time>2026-04-26T08:09:30.111Z</time></trkpt><trkpt lat="46.2377989" lon="8.3104505"><ele>870.1428571428571</ele><time>2026-04-26T08:09:32.108Z</time></trkpt><trkpt lat="46.2377599" lon="8.310352"><ele>870.5714285714286</ele><time>2026-04-26T08:09:34.111Z</time></trkpt><trkpt lat="46.2377038" lon="8.3102741"><ele>871.0</ele><time>2026-04-26T08:09:36.118Z</time></trkpt><trkpt lat="46.2376419" lon="8.3101974"><ele>871.3333333333333</ele><time>2026-04-26T08:09:38.107Z</time></trkpt><trkpt lat="46.2375863" lon="8.3101173"><ele>871.6666666666666</ele><time>2026-04-26T08:09:40.11Z</time></trkpt><trkpt lat="46.2375312" lon="8.3100243"><ele>872.0</ele><time>2026-04-26T08:09:42.112Z</time></trkpt><trkpt lat="46.2374745" lon="8.3099535"><ele>872.3333333333333</ele><time>2026-04-26T08:09:44.126Z</time></trkpt><trkpt lat="46.2374085" lon="8.3098727"><ele>872.6666666666666</ele><time>2026-04-26T08:09:46.112Z</time></trkpt><trkpt lat="46.2373362" lon="8.3098138"><ele>873.0</ele><time>2026-04-26T08:09:48.112Z</time></trkpt><trkpt lat="46.2372584" lon="8.3097454"><ele>871.5999999999999</ele><time>2026-04-26T08:09:50.112Z</time></trkpt><trkpt lat="46.2371579" lon="8.3097279"><ele>870.1999999999999</ele><time>2026-04-26T08:09:52.113Z</time></trkpt><trkpt lat="46.2370589" lon="8.309752"><ele>868.8</ele><time>2026-04-26T08:09:54.113Z</time></trkpt><trkpt lat="46.2369682" lon="8.3097881"><ele>867.4</ele><time>2026-04-26T08:09:56.102Z</time></trkpt><trkpt lat="46.2368809" lon="8.3098077"><ele>866.0</ele><time>2026-04-26T08:09:58.105Z</time></trkpt><trkpt lat="46.2368041" lon="8.3097845"><ele>866.0000000000001</ele><time>2026-04-26T08:10:00.11Z</time></trkpt><trkpt lat="46.2367471" lon="8.3096956"><ele>866.0</ele><time>2026-04-26T08:10:02.109Z</time></trkpt><trkpt lat="46.2367104" lon="8.3095925"><ele>866.0</ele><time>2026-04-26T08:10:04.11Z</time></trkpt><trkpt lat="46.2366787" lon="8.3095059"><ele>866.0</ele><time>2026-04-26T08:10:06.131Z</time></trkpt><trkpt lat="46.23665" lon="8.3093966"><ele>866.0000000000001</ele><time>2026-04-26T08:10:08.112Z</time></trkpt><trkpt lat="46.2366156" lon="8.3092905"><ele>866.0</ele><time>2026-04-26T08:10:10.11Z</time></trkpt><trkpt lat="46.2365972" lon="8.3091702"><ele>866.0</ele><time>2026-04-26T08:10:12.104Z</time></trkpt><trkpt lat="46.2366023" lon="8.3090478"><ele>865.9999999999999</ele><time>2026-04-26T08:10:14.105Z</time></trkpt><trkpt lat="46.2366322" lon="8.3089264"><ele>865.9999999999999</ele><time>2026-04-26T08:10:16.111Z</time></trkpt><trkpt lat="46.2366681" lon="8.3088006"><ele>866.0</ele><time>2026-04-26T08:10:18.105Z</time></trkpt><trkpt lat="46.236722" lon="8.3086644"><ele>866.0</ele><time>2026-04-26T08:10:20.102Z</time></trkpt><trkpt lat="46.2367686" lon="8.3085183"><ele>866.0</ele><time>2026-04-26T08:10:22.098Z</time></trkpt><trkpt lat="46.2368127" lon="8.3083708"><ele>865.9999999999999</ele><time>2026-04-26T08:10:24.098Z</time></trkpt><trkpt lat="46.2368463" lon="8.3082285"><ele>865.9999999999999</ele><time>2026-04-26T08:10:26.096Z</time></trkpt><trkpt lat="46.2368665" lon="8.3081014"><ele>866.0</ele><time>2026-04-26T08:10:28.096Z</time></trkpt><trkpt lat="46.2368895" lon="8.3079756"><ele>866.0</ele><time>2026-04-26T08:10:30.099Z</time></trkpt><trkpt lat="46.2369013" lon="8.3078469"><ele>866.0</ele><time>2026-04-26T08:10:32.102Z</time></trkpt><trkpt lat="46.2369157" lon="8.3077143"><ele>865.9999999999999</ele><time>2026-04-26T08:10:34.097Z</time></trkpt><trkpt lat="46.2369447" lon="8.3075909"><ele>865.9999999999999</ele><time>2026-04-26T08:10:36.1Z</time></trkpt><trkpt lat="46.2369788" lon="8.3074574"><ele>866.0</ele><time>2026-04-26T08:10:38.087Z</time></trkpt><trkpt lat="46.2369966" lon="8.3073236"><ele>866.0</ele><time>2026-04-26T08:10:40.088Z</time></trkpt><trkpt lat="46.2370365" lon="8.3072239"><ele>868.1999999999999</ele><time>2026-04-26T08:10:42.085Z</time></trkpt><trkpt lat="46.2371321" lon="8.3071304"><ele>870.3999999999999</ele><time>2026-04-26T08:10:44.084Z</time></trkpt><trkpt lat="46.2371778" lon="8.3070647"><ele>872.6</ele><time>2026-04-26T08:10:45.079Z</time></trkpt><trkpt lat="46.2372703" lon="8.3069613"><ele>874.8</ele><time>2026-04-26T08:10:47.083Z</time></trkpt><trkpt lat="46.2372897" lon="8.3068309"><ele>877.0</ele><time>2026-04-26T08:10:49.084Z</time></trkpt><trkpt lat="46.2371968" lon="8.3067227"><ele>877.0000000000001</ele><time>2026-04-26T08:10:51.087Z</time></trkpt><trkpt lat="46.2371329" lon="8.3067038"><ele>877.0</ele><time>2026-04-26T08:10:52.083Z</time></trkpt><trkpt lat="46.2370602" lon="8.3067042"><ele>877.0</ele><time>2026-04-26T08:10:53.086Z</time></trkpt><trkpt lat="46.2369883" lon="8.306712"><ele>877.0</ele><time>2026-04-26T08:10:54.079Z</time></trkpt><trkpt lat="46.2369213" lon="8.3067409"><ele>877.0</ele><time>2026-04-26T08:10:55.084Z</time></trkpt><trkpt lat="46.2368532" lon="8.3067518"><ele>877.0000000000001</ele><time>2026-04-26T08:10:56.083Z</time></trkpt><trkpt lat="46.2367558" lon="8.3067364"><ele>877.0</ele><time>2026-04-26T08:10:58.081Z</time></trkpt><trkpt lat="46.2366704" lon="8.3066655"><ele>877.0</ele><time>2026-04-26T08:11:00.089Z</time></trkpt><trkpt lat="46.2365847" lon="8.3065899"><ele>877.0</ele><time>2026-04-26T08:11:02.083Z</time></trkpt><trkpt lat="46.2364959" lon="8.3065422"><ele>877.0</ele><time>2026-04-26T08:11:04.086Z</time></trkpt><trkpt lat="46.2363923" lon="8.3065035"><ele>877.0</ele><time>2026-04-26T08:11:06.106Z</time></trkpt><trkpt lat="46.2362932" lon="8.3064526"><ele>877.0</ele><time>2026-04-26T08:11:08.103Z</time></trkpt><trkpt lat="46.236211" lon="8.3063679"><ele>876.2</ele><time>2026-04-26T08:11:10.094Z</time></trkpt><trkpt lat="46.2361669" lon="8.3062505"><ele>875.4000000000001</ele><time>2026-04-26T08:11:12.106Z</time></trkpt><trkpt lat="46.2361279" lon="8.3061231"><ele>874.5999999999999</ele><time>2026-04-26T08:11:14.103Z</time></trkpt><trkpt lat="46.2360847" lon="8.3059952"><ele>873.8</ele><time>2026-04-26T08:11:16.104Z</time></trkpt><trkpt lat="46.2360219" lon="8.3058782"><ele>873.0</ele><time>2026-04-26T08:11:18.099Z</time></trkpt><trkpt lat="46.2359416" lon="8.3057826"><ele>873.0</ele><time>2026-04-26T08:11:20.102Z</time></trkpt><trkpt lat="46.2358484" lon="8.3057187"><ele>873.0</ele><time>2026-04-26T08:11:22.102Z</time></trkpt><trkpt lat="46.2357515" lon="8.3056819"><ele>873.0</ele><time>2026-04-26T08:11:24.11Z</time></trkpt><trkpt lat="46.2356598" lon="8.3056098"><ele>873.0</ele><time>2026-04-26T08:11:26.105Z</time></trkpt><trkpt lat="46.235578" lon="8.3054941"><ele>873.0</ele><time>2026-04-26T08:11:28.105Z</time></trkpt><trkpt lat="46.2355159" lon="8.3053602"><ele>871.4</ele><time>2026-04-26T08:11:30.105Z</time></trkpt><trkpt lat="46.2354512" lon="8.3052452"><ele>869.8</ele><time>2026-04-26T08:11:32.107Z</time></trkpt><trkpt lat="46.2353995" lon="8.3051391"><ele>868.2</ele><time>2026-04-26T08:11:34.104Z</time></trkpt><trkpt lat="46.2353617" lon="8.3050233"><ele>866.6</ele><time>2026-04-26T08:11:36.118Z</time></trkpt><trkpt lat="46.2353316" lon="8.3048863"><ele>865.0</ele><time>2026-04-26T08:11:38.103Z</time></trkpt><trkpt lat="46.2352777" lon="8.3047734"><ele>868.6</ele><time>2026-04-26T08:11:40.102Z</time></trkpt><trkpt lat="46.2352071" lon="8.304663"><ele>872.2</ele><time>2026-04-26T08:11:42.105Z</time></trkpt><trkpt lat="46.2351461" lon="8.3045579"><ele>875.8</ele><time>2026-04-26T08:11:44.105Z</time></trkpt><trkpt lat="46.2350882" lon="8.3044607"><ele>879.4</ele><time>2026-04-26T08:11:46.111Z</time></trkpt><trkpt lat="46.2350305" lon="8.304355"><ele>883.0</ele><time>2026-04-26T08:11:48.122Z</time></trkpt><trkpt lat="46.2349765" lon="8.3042536"><ele>883.0</ele><time>2026-04-26T08:11:50.109Z</time></trkpt><trkpt lat="46.2349267" lon="8.3041589"><ele>883.0</ele><time>2026-04-26T08:11:52.105Z</time></trkpt><trkpt lat="46.2348826" lon="8.3040629"><ele>883.0</ele><time>2026-04-26T08:11:54.102Z</time></trkpt><trkpt lat="46.2348524" lon="8.3039322"><ele>883.0</ele><time>2026-04-26T08:11:56.096Z</time></trkpt><trkpt lat="46.2348136" lon="8.3038022"><ele>883.0</ele><time>2026-04-26T08:11:58.091Z</time></trkpt><trkpt lat="46.2347864" lon="8.3036651"><ele>884.4999999999999</ele><time>2026-04-26T08:12:00.093Z</time></trkpt><trkpt lat="46.2347527" lon="8.3035392"><ele>886.0</ele><time>2026-04-26T08:12:02.09Z</time></trkpt><trkpt lat="46.2347244" lon="8.3034143"><ele>887.5</ele><time>2026-04-26T08:12:04.095Z</time></trkpt><trkpt lat="46.2347072" lon="8.3032789"><ele>889.0</ele><time>2026-04-26T08:12:06.104Z</time></trkpt><trkpt lat="46.2346614" lon="8.3031696"><ele>890.4999999999999</ele><time>2026-04-26T08:12:08.096Z</time></trkpt><trkpt lat="46.2346085" lon="8.3030931"><ele>892.0</ele><time>2026-04-26T08:12:10.099Z</time></trkpt><trkpt lat="46.234539" lon="8.3030422"><ele>892.0</ele><time>2026-04-26T08:12:12.095Z</time></trkpt><trkpt lat="46.2344592" lon="8.303029"><ele>892.0</ele><time>2026-04-26T08:12:14.096Z</time></trkpt><trkpt lat="46.2343825" lon="8.3030457"><ele>892.0</ele><time>2026-04-26T08:12:16.097Z</time></trkpt><trkpt lat="46.2342929" lon="8.3030944"><ele>892.0</ele><time>2026-04-26T08:12:18.09Z</time></trkpt><trkpt lat="46.2342069" lon="8.3032033"><ele>892.0</ele><time>2026-04-26T08:12:20.098Z</time></trkpt><trkpt lat="46.2341566" lon="8.3033616"><ele>892.0</ele><time>2026-04-26T08:12:22.098Z</time></trkpt><trkpt lat="46.2341288" lon="8.3035167"><ele>892.0</ele><time>2026-04-26T08:12:24.102Z</time></trkpt><trkpt lat="46.2340986" lon="8.3036486"><ele>892.0</ele><time>2026-04-26T08:12:26.102Z</time></trkpt><trkpt lat="46.2340783" lon="8.3037614"><ele>892.0</ele><time>2026-04-26T08:12:28.096Z</time></trkpt><trkpt lat="46.2340784" lon="8.3038723"><ele>892.0</ele><time>2026-04-26T08:12:30.1Z</time></trkpt><trkpt lat="46.2340781" lon="8.3039972"><ele>890.6666666666666</ele><time>2026-04-26T08:12:32.093Z</time></trkpt><trkpt lat="46.2340734" lon="8.3041287"><ele>889.3333333333333</ele><time>2026-04-26T08:12:34.09Z</time></trkpt><trkpt lat="46.2340724" lon="8.3042466"><ele>888.0</ele><time>2026-04-26T08:12:36.104Z</time></trkpt><trkpt lat="46.23409" lon="8.3043812"><ele>886.6666666666667</ele><time>2026-04-26T08:12:38.098Z</time></trkpt><trkpt lat="46.2340972" lon="8.304516"><ele>885.3333333333334</ele><time>2026-04-26T08:12:40.094Z</time></trkpt><trkpt lat="46.2340868" lon="8.3046328"><ele>884.0</ele><time>2026-04-26T08:12:42.092Z</time></trkpt><trkpt lat="46.2340593" lon="8.3047748"><ele>882.1666666666667</ele><time>2026-04-26T08:12:44.099Z</time></trkpt><trkpt lat="46.2340107" lon="8.3049069"><ele>880.3333333333334</ele><time>2026-04-26T08:12:46.099Z</time></trkpt><trkpt lat="46.2339779" lon="8.3050338"><ele>878.5</ele><time>2026-04-26T08:12:48.092Z</time></trkpt><trkpt lat="46.2339574" lon="8.3051419"><ele>876.6666666666667</ele><time>2026-04-26T08:12:50.103Z</time></trkpt><trkpt lat="46.2339153" lon="8.3052204"><ele>874.8333333333334</ele><time>2026-04-26T08:12:52.09Z</time></trkpt><trkpt lat="46.233859" lon="8.3053194"><ele>873.0</ele><time>2026-04-26T08:12:54.089Z</time></trkpt><trkpt lat="46.2338404" lon="8.3054411"><ele>876.2</ele><time>2026-04-26T08:12:56.09Z</time></trkpt><trkpt lat="46.2337915" lon="8.3056001"><ele>879.4</ele><time>2026-04-26T08:12:58.091Z</time></trkpt><trkpt lat="46.2337081" lon="8.3056729"><ele>882.6000000000001</ele><time>2026-04-26T08:13:00.09Z</time></trkpt><trkpt lat="46.2336253" lon="8.3057393"><ele>885.8000000000001</ele><time>2026-04-26T08:13:02.092Z</time></trkpt><trkpt lat="46.2335585" lon="8.3058228"><ele>889.0</ele><time>2026-04-26T08:13:04.096Z</time></trkpt><trkpt lat="46.2334897" lon="8.3058629"><ele>888.9999999999999</ele><time>2026-04-26T08:13:06.119Z</time></trkpt><trkpt lat="46.2334083" lon="8.3059085"><ele>889.0</ele><time>2026-04-26T08:13:08.102Z</time></trkpt><trkpt lat="46.2333418" lon="8.3059925"><ele>889.0</ele><time>2026-04-26T08:13:10.102Z</time></trkpt><trkpt lat="46.2332847" lon="8.3060844"><ele>889.0</ele><time>2026-04-26T08:13:12.111Z</time></trkpt><trkpt lat="46.2332285" lon="8.3061821"><ele>888.9999999999999</ele><time>2026-04-26T08:13:14.116Z</time></trkpt><trkpt lat="46.2331735" lon="8.3062681"><ele>889.0</ele><time>2026-04-26T08:13:16.122Z</time></trkpt><trkpt lat="46.2331149" lon="8.3063571"><ele>889.1666666666666</ele><time>2026-04-26T08:13:18.122Z</time></trkpt><trkpt lat="46.2330728" lon="8.3064528"><ele>889.3333333333333</ele><time>2026-04-26T08:13:20.119Z</time></trkpt><trkpt lat="46.2330179" lon="8.3065395"><ele>889.5</ele><time>2026-04-26T08:13:22.118Z</time></trkpt><trkpt lat="46.232969" lon="8.3066428"><ele>889.6666666666667</ele><time>2026-04-26T08:13:24.119Z</time></trkpt><trkpt lat="46.2329131" lon="8.3067403"><ele>889.8333333333334</ele><time>2026-04-26T08:13:26.108Z</time></trkpt><trkpt lat="46.23286" lon="8.3068298"><ele>890.0</ele><time>2026-04-26T08:13:28.118Z</time></trkpt><trkpt lat="46.2328037" lon="8.3069237"><ele>890.0000000000001</ele><time>2026-04-26T08:13:30.111Z</time></trkpt><trkpt lat="46.2327371" lon="8.3070055"><ele>890.0</ele><time>2026-04-26T08:13:32.122Z</time></trkpt><trkpt lat="46.2326721" lon="8.3070858"><ele>890.0</ele><time>2026-04-26T08:13:34.121Z</time></trkpt><trkpt lat="46.2326085" lon="8.3071448"><ele>890.0</ele><time>2026-04-26T08:13:36.133Z</time></trkpt><trkpt lat="46.2325393" lon="8.3071814"><ele>890.0000000000001</ele><time>2026-04-26T08:13:38.121Z</time></trkpt><trkpt lat="46.2324668" lon="8.3072015"><ele>890.0</ele><time>2026-04-26T08:13:40.123Z</time></trkpt><trkpt lat="46.2323843" lon="8.307208"><ele>890.5000000000001</ele><time>2026-04-26T08:13:42.122Z</time></trkpt><trkpt lat="46.2322922" lon="8.3072101"><ele>891.0</ele><time>2026-04-26T08:13:44.123Z</time></trkpt><trkpt lat="46.232203" lon="8.3072116"><ele>891.5</ele><time>2026-04-26T08:13:46.123Z</time></trkpt><trkpt lat="46.2321226" lon="8.307221"><ele>892.0</ele><time>2026-04-26T08:13:48.123Z</time></trkpt><trkpt lat="46.2320424" lon="8.3072344"><ele>892.5000000000001</ele><time>2026-04-26T08:13:50.123Z</time></trkpt><trkpt lat="46.2319539" lon="8.3072397"><ele>893.0</ele><time>2026-04-26T08:13:52.13Z</time></trkpt><trkpt lat="46.2318635" lon="8.3072526"><ele>893.3333333333334</ele><time>2026-04-26T08:13:54.117Z</time></trkpt><trkpt lat="46.2317792" lon="8.3072682"><ele>893.6666666666667</ele><time>2026-04-26T08:13:56.115Z</time></trkpt><trkpt lat="46.2316932" lon="8.3072704"><ele>894.0</ele><time>2026-04-26T08:13:58.115Z</time></trkpt><trkpt lat="46.2316061" lon="8.3072747"><ele>894.3333333333333</ele><time>2026-04-26T08:14:00.117Z</time></trkpt><trkpt lat="46.2315169" lon="8.3072906"><ele>894.6666666666666</ele><time>2026-04-26T08:14:02.112Z</time></trkpt><trkpt lat="46.2314243" lon="8.3073276"><ele>895.0</ele><time>2026-04-26T08:14:04.117Z</time></trkpt><trkpt lat="46.2313345" lon="8.3073811"><ele>894.9999999999999</ele><time>2026-04-26T08:14:06.128Z</time></trkpt><trkpt lat="46.2312562" lon="8.3074373"><ele>895.0</ele><time>2026-04-26T08:14:08.114Z</time></trkpt><trkpt lat="46.2311838" lon="8.3075009"><ele>895.0</ele><time>2026-04-26T08:14:10.112Z</time></trkpt><trkpt lat="46.2311174" lon="8.3075725"><ele>895.0</ele><time>2026-04-26T08:14:12.113Z</time></trkpt><trkpt lat="46.2310489" lon="8.3076523"><ele>894.9999999999999</ele><time>2026-04-26T08:14:14.113Z</time></trkpt><trkpt lat="46.2309851" lon="8.3077277"><ele>895.0</ele><time>2026-04-26T08:14:16.121Z</time></trkpt><trkpt lat="46.2309196" lon="8.3078115"><ele>894.9999999999999</ele><time>2026-04-26T08:14:18.118Z</time></trkpt><trkpt lat="46.2308478" lon="8.3078738"><ele>895.0</ele><time>2026-04-26T08:14:20.109Z</time></trkpt><trkpt lat="46.230783" lon="8.3079175"><ele>895.0</ele><time>2026-04-26T08:14:22.111Z</time></trkpt><trkpt lat="46.2307024" lon="8.3079437"><ele>895.0</ele><time>2026-04-26T08:14:24.107Z</time></trkpt><trkpt lat="46.2306255" lon="8.3079701"><ele>894.9999999999999</ele><time>2026-04-26T08:14:26.1Z</time></trkpt><trkpt lat="46.2305494" lon="8.307997"><ele>895.0</ele><time>2026-04-26T08:14:28.099Z</time></trkpt><trkpt lat="46.230467" lon="8.3079742"><ele>894.9999999999999</ele><time>2026-04-26T08:14:30.1Z</time></trkpt><trkpt lat="46.2303785" lon="8.3079453"><ele>895.0</ele><time>2026-04-26T08:14:32.108Z</time></trkpt><trkpt lat="46.2302861" lon="8.3079534"><ele>895.0</ele><time>2026-04-26T08:14:34.105Z</time></trkpt><trkpt lat="46.2302099" lon="8.3079634"><ele>895.0</ele><time>2026-04-26T08:14:36.114Z</time></trkpt><trkpt lat="46.2301318" lon="8.3079555"><ele>894.9999999999999</ele><time>2026-04-26T08:14:38.103Z</time></trkpt><trkpt lat="46.2300534" lon="8.3079392"><ele>895.0</ele><time>2026-04-26T08:14:40.104Z</time></trkpt><trkpt lat="46.2299776" lon="8.3078943"><ele>895.0</ele><time>2026-04-26T08:14:42.115Z</time></trkpt><trkpt lat="46.2299166" lon="8.3078484"><ele>895.0</ele><time>2026-04-26T08:14:44.114Z</time></trkpt><trkpt lat="46.2298558" lon="8.3077927"><ele>895.0</ele><time>2026-04-26T08:14:46.114Z</time></trkpt><trkpt lat="46.2297943" lon="8.307717"><ele>895.0</ele><time>2026-04-26T08:14:49.101Z</time></trkpt><trkpt lat="46.2298455" lon="8.3076396"><ele>895.0</ele><time>2026-04-26T08:14:52.108Z</time></trkpt><trkpt lat="46.2299012" lon="8.3075968"><ele>895.0</ele><time>2026-04-26T08:14:54.132Z</time></trkpt><trkpt lat="46.2299384" lon="8.3075133"><ele>895.0</ele><time>2026-04-26T08:14:56.11Z</time></trkpt><trkpt lat="46.2299354" lon="8.3073855"><ele>894.9999999999999</ele><time>2026-04-26T08:14:59.113Z</time></trkpt><trkpt lat="46.2299239" lon="8.3072565"><ele>895.0</ele><time>2026-04-26T08:15:02.112Z</time></trkpt><trkpt lat="46.2298881" lon="8.3071777"><ele>895.0</ele><time>2026-04-26T08:15:04.113Z</time></trkpt><trkpt lat="46.2298294" lon="8.307122"><ele>895.0</ele><time>2026-04-26T08:15:06.12Z</time></trkpt><trkpt lat="46.2297423" lon="8.3070812"><ele>894.9999999999999</ele><time>2026-04-26T08:15:09.11Z</time></trkpt><trkpt lat="46.2296659" lon="8.3070689"><ele>895.0</ele><time>2026-04-26T08:16:10.113Z</time></trkpt><trkpt lat="46.2295793" lon="8.3070695"><ele>896.4999999999999</ele><time>2026-04-26T08:16:13.114Z</time></trkpt><trkpt lat="46.2295065" lon="8.3070498"><ele>898.0</ele><time>2026-04-26T08:16:16.126Z</time></trkpt><trkpt lat="46.2294298" lon="8.3070478"><ele>899.5</ele><time>2026-04-26T08:16:21.115Z</time></trkpt><trkpt lat="46.2293565" lon="8.3070673"><ele>901.0</ele><time>2026-04-26T08:16:25.118Z</time></trkpt><trkpt lat="46.2292809" lon="8.3070196"><ele>902.4999999999999</ele><time>2026-04-26T08:16:29.114Z</time></trkpt><trkpt lat="46.229221" lon="8.3069416"><ele>904.0</ele><time>2026-04-26T08:16:32.124Z</time></trkpt><trkpt lat="46.2291557" lon="8.3068834"><ele>903.9999999999999</ele><time>2026-04-26T08:16:36.127Z</time></trkpt><trkpt lat="46.2290794" lon="8.3068497"><ele>904.0</ele><time>2026-04-26T08:16:40.117Z</time></trkpt><trkpt lat="46.2290156" lon="8.3067751"><ele>904.0</ele><time>2026-04-26T08:16:44.117Z</time></trkpt><trkpt lat="46.2290029" lon="8.3066783"><ele>904.0</ele><time>2026-04-26T08:16:48.118Z</time></trkpt><trkpt lat="46.2290671" lon="8.3066353"><ele>903.9999999999999</ele><time>2026-04-26T08:16:52.118Z</time></trkpt><trkpt lat="46.2291472" lon="8.3066258"><ele>904.0</ele><time>2026-04-26T08:16:56.116Z</time></trkpt><trkpt lat="46.2292173" lon="8.3066058"><ele>904.0</ele><time>2026-04-26T08:16:59.117Z</time></trkpt><trkpt lat="46.2292858" lon="8.3065819"><ele>904.0</ele><time>2026-04-26T08:17:02.119Z</time></trkpt><trkpt lat="46.2293557" lon="8.3065672"><ele>904.0</ele><time>2026-04-26T08:17:05.116Z</time></trkpt><trkpt lat="46.229425" lon="8.3065449"><ele>904.0</ele><time>2026-04-26T08:17:08.116Z</time></trkpt><trkpt lat="46.2295027" lon="8.3065272"><ele>904.0</ele><time>2026-04-26T08:17:12.121Z</time></trkpt><trkpt lat="46.2295659" lon="8.3064949"><ele>904.0</ele><time>2026-04-26T08:17:15.117Z</time></trkpt><trkpt lat="46.2296288" lon="8.3064312"><ele>904.0</ele><time>2026-04-26T08:17:18.126Z</time></trkpt><trkpt lat="46.2296997" lon="8.3063859"><ele>905.0</ele><time>2026-04-26T08:17:21.129Z</time></trkpt><trkpt lat="46.2297613" lon="8.3063414"><ele>906.0</ele><time>2026-04-26T08:17:24.125Z</time></trkpt><trkpt lat="46.2298097" lon="8.3062755"><ele>907.0</ele><time>2026-04-26T08:17:27.125Z</time></trkpt><trkpt lat="46.22981" lon="8.3061509"><ele>908.0</ele><time>2026-04-26T08:17:30.126Z</time></trkpt><trkpt lat="46.229787" lon="8.3060594"><ele>909.0</ele><time>2026-04-26T08:17:32.125Z</time></trkpt><trkpt lat="46.229752" lon="8.3059805"><ele>910.0</ele><time>2026-04-26T08:17:34.119Z</time></trkpt><trkpt lat="46.2296847" lon="8.305921"><ele>911.0</ele><time>2026-04-26T08:17:37.109Z</time></trkpt><trkpt lat="46.2296057" lon="8.3058956"><ele>911.8333333333334</ele><time>2026-04-26T08:17:40.115Z</time></trkpt><trkpt lat="46.2295307" lon="8.305879"><ele>912.6666666666667</ele><time>2026-04-26T08:17:43.116Z</time></trkpt><trkpt lat="46.2294646" lon="8.3058224"><ele>913.5</ele><time>2026-04-26T08:17:47.123Z</time></trkpt><trkpt lat="46.2294128" lon="8.3057394"><ele>914.3333333333333</ele><time>2026-04-26T08:17:52.122Z</time></trkpt><trkpt lat="46.2293587" lon="8.3056551"><ele>915.1666666666666</ele><time>2026-04-26T08:17:56.118Z</time></trkpt><trkpt lat="46.2293085" lon="8.3055698"><ele>916.0</ele><time>2026-04-26T08:18:00.159Z</time></trkpt><trkpt lat="46.2292498" lon="8.3054963"><ele>917.8571428571429</ele><time>2026-04-26T08:18:04.124Z</time></trkpt><trkpt lat="46.2292004" lon="8.3054389"><ele>919.7142857142858</ele><time>2026-04-26T08:18:07.121Z</time></trkpt><trkpt lat="46.2291392" lon="8.305398"><ele>921.5714285714287</ele><time>2026-04-26T08:18:10.122Z</time></trkpt><trkpt lat="46.2290663" lon="8.3053841"><ele>923.4285714285714</ele><time>2026-04-26T08:18:13.117Z</time></trkpt><trkpt lat="46.2289941" lon="8.3053983"><ele>925.2857142857144</ele><time>2026-04-26T08:18:16.13Z</time></trkpt><trkpt lat="46.2289292" lon="8.3054428"><ele>927.1428571428572</ele><time>2026-04-26T08:18:19.116Z</time></trkpt><trkpt lat="46.2288577" lon="8.3054951"><ele>929.0</ele><time>2026-04-26T08:18:23.116Z</time></trkpt><trkpt lat="46.2288007" lon="8.3055431"><ele>928.1428571428572</ele><time>2026-04-26T08:18:26.125Z</time></trkpt><trkpt lat="46.2287378" lon="8.3056144"><ele>927.2857142857144</ele><time>2026-04-26T08:18:30.14Z</time></trkpt><trkpt lat="46.2286706" lon="8.3056745"><ele>926.4285714285714</ele><time>2026-04-26T08:18:34.116Z</time></trkpt><trkpt lat="46.2286126" lon="8.3057147"><ele>925.5714285714287</ele><time>2026-04-26T08:18:37.118Z</time></trkpt><trkpt lat="46.2285459" lon="8.305724"><ele>924.7142857142858</ele><time>2026-04-26T08:18:41.113Z</time></trkpt><trkpt lat="46.228475" lon="8.3056792"><ele>923.8571428571429</ele><time>2026-04-26T08:18:45.124Z</time></trkpt><trkpt lat="46.2284149" lon="8.3056184"><ele>923.0</ele><time>2026-04-26T08:18:49.125Z</time></trkpt><trkpt lat="46.2283557" lon="8.3055467"><ele>924.2857142857142</ele><time>2026-04-26T08:18:53.123Z</time></trkpt><trkpt lat="46.2282877" lon="8.305491"><ele>925.5714285714287</ele><time>2026-04-26T08:18:57.113Z</time></trkpt><trkpt lat="46.2282157" lon="8.3054405"><ele>926.8571428571429</ele><time>2026-04-26T08:19:01.131Z</time></trkpt><trkpt lat="46.2281591" lon="8.3053764"><ele>928.1428571428571</ele><time>2026-04-26T08:19:05.11Z</time></trkpt><trkpt lat="46.2281134" lon="8.3053133"><ele>929.4285714285713</ele><time>2026-04-26T08:19:08.122Z</time></trkpt><trkpt lat="46.2280587" lon="8.3052364"><ele>930.7142857142858</ele><time>2026-04-26T08:19:12.111Z</time></trkpt><trkpt lat="46.2280132" lon="8.3051574"><ele>932.0</ele><time>2026-04-26T08:19:16.119Z</time></trkpt><trkpt lat="46.2279684" lon="8.3050821"><ele>932.0</ele><time>2026-04-26T08:19:20.119Z</time></trkpt><trkpt lat="46.2279243" lon="8.3049881"><ele>932.0</ele><time>2026-04-26T08:19:24.117Z</time></trkpt><trkpt lat="46.2278815" lon="8.3049194"><ele>932.0</ele><time>2026-04-26T08:19:27.125Z</time></trkpt><trkpt lat="46.2278492" lon="8.3048402"><ele>932.0</ele><time>2026-04-26T08:19:30.127Z</time></trkpt><trkpt lat="46.2278098" lon="8.3047584"><ele>932.0</ele><time>2026-04-26T08:19:34.122Z</time></trkpt><trkpt lat="46.2277766" lon="8.3046628"><ele>932.0</ele><time>2026-04-26T08:19:38.121Z</time></trkpt><trkpt lat="46.2277171" lon="8.3045819"><ele>932.0</ele><time>2026-04-26T08:19:42.12Z</time></trkpt><trkpt lat="46.2276865" lon="8.3045019"><ele>934.6666666666667</ele><time>2026-04-26T08:19:45.12Z</time></trkpt><trkpt lat="46.2276446" lon="8.3044337"><ele>937.3333333333334</ele><time>2026-04-26T08:19:48.116Z</time></trkpt><trkpt lat="46.2275918" lon="8.3043481"><ele>940.0</ele><time>2026-04-26T08:19:52.12Z</time></trkpt><trkpt lat="46.2275346" lon="8.3042598"><ele>942.6666666666667</ele><time>2026-04-26T08:19:56.118Z</time></trkpt><trkpt lat="46.2274862" lon="8.3041678"><ele>945.3333333333334</ele><time>2026-04-26T08:20:00.123Z</time></trkpt><trkpt lat="46.2274335" lon="8.3040791"><ele>948.0</ele><time>2026-04-26T08:20:04.119Z</time></trkpt><trkpt lat="46.227397" lon="8.3039901"><ele>949.8333333333334</ele><time>2026-04-26T08:20:08.104Z</time></trkpt><trkpt lat="46.2273549" lon="8.3038957"><ele>951.6666666666667</ele><time>2026-04-26T08:20:12.117Z</time></trkpt><trkpt lat="46.2273046" lon="8.3038142"><ele>953.5</ele><time>2026-04-26T08:20:16.122Z</time></trkpt><trkpt lat="46.2272544" lon="8.3037218"><ele>955.3333333333334</ele><time>2026-04-26T08:20:20.113Z</time></trkpt><trkpt lat="46.2272045" lon="8.3036635"><ele>957.1666666666667</ele><time>2026-04-26T08:20:23.11Z</time></trkpt><trkpt lat="46.2271394" lon="8.3035889"><ele>959.0</ele><time>2026-04-26T08:20:27.107Z</time></trkpt><trkpt lat="46.2270831" lon="8.3035054"><ele>959.0</ele><time>2026-04-26T08:20:31.104Z</time></trkpt><trkpt lat="46.2270208" lon="8.3034622"><ele>959.0</ele><time>2026-04-26T08:20:35.109Z</time></trkpt><trkpt lat="46.2269526" lon="8.3034232"><ele>959.0</ele><time>2026-04-26T08:20:42.108Z</time></trkpt><trkpt lat="46.2268856" lon="8.3033642"><ele>959.0</ele><time>2026-04-26T08:20:46.118Z</time></trkpt><trkpt lat="46.2268117" lon="8.3033015"><ele>959.0</ele><time>2026-04-26T08:20:49.122Z</time></trkpt><trkpt lat="46.2267701" lon="8.3032282"><ele>959.0</ele><time>2026-04-26T08:20:52.12Z</time></trkpt><trkpt lat="46.2267623" lon="8.3031323"><ele>959.0</ele><time>2026-04-26T08:20:55.119Z</time></trkpt><trkpt lat="46.2268322" lon="8.3031354"><ele>959.0</ele><time>2026-04-26T08:21:04.115Z</time></trkpt><trkpt lat="46.2269131" lon="8.3031526"><ele>959.0</ele><time>2026-04-26T08:21:09.111Z</time></trkpt><trkpt lat="46.2269893" lon="8.3031645"><ele>959.0</ele><time>2026-04-26T08:21:13.117Z</time></trkpt><trkpt lat="46.2270573" lon="8.3031549"><ele>959.0</ele><time>2026-04-26T08:21:17.112Z</time></trkpt><trkpt lat="46.2271211" lon="8.3031213"><ele>959.0</ele><time>2026-04-26T08:21:20.118Z</time></trkpt><trkpt lat="46.2271894" lon="8.3030844"><ele>959.0</ele><time>2026-04-26T08:21:24.122Z</time></trkpt><trkpt lat="46.2272607" lon="8.3030946"><ele>959.0</ele><time>2026-04-26T08:21:27.125Z</time></trkpt><trkpt lat="46.2273366" lon="8.3031366"><ele>960.8333333333334</ele><time>2026-04-26T08:21:33.121Z</time></trkpt><trkpt lat="46.2274144" lon="8.3031628"><ele>962.6666666666667</ele><time>2026-04-26T08:21:37.12Z</time></trkpt><trkpt lat="46.227491" lon="8.3031838"><ele>964.5</ele><time>2026-04-26T08:21:41.127Z</time></trkpt><trkpt lat="46.2275606" lon="8.3032178"><ele>966.3333333333333</ele><time>2026-04-26T08:21:45.128Z</time></trkpt><trkpt lat="46.2276316" lon="8.3032065"><ele>968.1666666666666</ele><time>2026-04-26T08:21:48.128Z</time></trkpt><trkpt lat="46.2277091" lon="8.303215"><ele>970.0</ele><time>2026-04-26T08:21:51.122Z</time></trkpt><trkpt lat="46.227784" lon="8.3032204"><ele>969.9999999999999</ele><time>2026-04-26T08:21:54.127Z</time></trkpt><trkpt lat="46.2278645" lon="8.3032386"><ele>970.0</ele><time>2026-04-26T08:21:58.122Z</time></trkpt><trkpt lat="46.2279287" lon="8.3032539"><ele>970.0</ele><time>2026-04-26T08:22:01.121Z</time></trkpt><trkpt lat="46.2279933" lon="8.3032823"><ele>970.0</ele><time>2026-04-26T08:22:04.119Z</time></trkpt><trkpt lat="46.2280661" lon="8.3032756"><ele>969.9999999999999</ele><time>2026-04-26T08:22:09.126Z</time></trkpt><trkpt lat="46.2281486" lon="8.3032191"><ele>970.0</ele><time>2026-04-26T08:22:12.126Z</time></trkpt><trkpt lat="46.2282122" lon="8.3031667"><ele>970.3333333333333</ele><time>2026-04-26T08:22:14.126Z</time></trkpt><trkpt lat="46.228282" lon="8.3031216"><ele>970.6666666666666</ele><time>2026-04-26T08:22:17.137Z</time></trkpt><trkpt lat="46.2283413" lon="8.3030604"><ele>971.0</ele><time>2026-04-26T08:22:20.129Z</time></trkpt><trkpt lat="46.2283798" lon="8.302951"><ele>971.3333333333333</ele><time>2026-04-26T08:22:24.121Z</time></trkpt><trkpt lat="46.2283659" lon="8.3028331"><ele>971.6666666666666</ele><time>2026-04-26T08:22:27.125Z</time></trkpt><trkpt lat="46.2283145" lon="8.3027695"><ele>972.0</ele><time>2026-04-26T08:22:30.119Z</time></trkpt><trkpt lat="46.2282484" lon="8.3027303"><ele>974.5714285714286</ele><time>2026-04-26T08:22:33.117Z</time></trkpt><trkpt lat="46.2281811" lon="8.3026771"><ele>977.1428571428571</ele><time>2026-04-26T08:22:36.116Z</time></trkpt><trkpt lat="46.2281183" lon="8.302623"><ele>979.7142857142857</ele><time>2026-04-26T08:22:39.107Z</time></trkpt><trkpt lat="46.2281055" lon="8.3025071"><ele>982.2857142857142</ele><time>2026-04-26T08:22:44.109Z</time></trkpt><trkpt lat="46.2281744" lon="8.3025409"><ele>984.8571428571429</ele><time>2026-04-26T08:22:48.107Z</time></trkpt><trkpt lat="46.2281834" lon="8.302649"><ele>987.4285714285713</ele><time>2026-04-26T08:22:51.113Z</time></trkpt><trkpt lat="46.2281702" lon="8.3027431"><ele>989.9999999999999</ele><time>2026-04-26T08:22:55.123Z</time></trkpt><trkpt lat="46.228243" lon="8.302745"><ele>990.7142857142856</ele><time>2026-04-26T08:23:02.118Z</time></trkpt><trkpt lat="46.2283036" lon="8.3027127"><ele>991.4285714285713</ele><time>2026-04-26T08:23:05.116Z</time></trkpt><trkpt lat="46.2283699" lon="8.3026822"><ele>992.1428571428571</ele><time>2026-04-26T08:23:09.112Z</time></trkpt><trkpt lat="46.2284323" lon="8.302695"><ele>992.8571428571428</ele><time>2026-04-26T08:23:13.11Z</time></trkpt><trkpt lat="46.2284932" lon="8.3026654"><ele>993.5714285714284</ele><time>2026-04-26T08:23:17.118Z</time></trkpt><trkpt lat="46.2285593" lon="8.3026543"><ele>994.2857142857143</ele><time>2026-04-26T08:23:22.113Z</time></trkpt><trkpt lat="46.2286392" lon="8.3026253"><ele>995.0</ele><time>2026-04-26T08:23:27.119Z</time></trkpt><trkpt lat="46.2287055" lon="8.3025815"><ele>995.0</ele><time>2026-04-26T08:23:30.126Z</time></trkpt><trkpt lat="46.2287725" lon="8.3025372"><ele>995.0</ele><time>2026-04-26T08:23:33.122Z</time></trkpt><trkpt lat="46.2288375" lon="8.3024999"><ele>995.0</ele><time>2026-04-26T08:23:37.115Z</time></trkpt><trkpt lat="46.228905" lon="8.302487"><ele>995.0</ele><time>2026-04-26T08:23:40.121Z</time></trkpt><trkpt lat="46.2289698" lon="8.3024892"><ele>995.0</ele><time>2026-04-26T08:23:43.118Z</time></trkpt><trkpt lat="46.229049" lon="8.3024492"><ele>995.0</ele><time>2026-04-26T08:23:46.126Z</time></trkpt><trkpt lat="46.2291267" lon="8.3023911"><ele>995.0</ele><time>2026-04-26T08:23:49.125Z</time></trkpt><trkpt lat="46.2292092" lon="8.3023382"><ele>993.8333333333334</ele><time>2026-04-26T08:23:52.119Z</time></trkpt><trkpt lat="46.2292903" lon="8.3022932"><ele>992.6666666666667</ele><time>2026-04-26T08:23:55.115Z</time></trkpt><trkpt lat="46.2293521" lon="8.3022563"><ele>991.5</ele><time>2026-04-26T08:23:58.121Z</time></trkpt><trkpt lat="46.2294239" lon="8.3022287"><ele>990.3333333333333</ele><time>2026-04-26T08:24:02.123Z</time></trkpt><trkpt lat="46.2294923" lon="8.3021801"><ele>989.1666666666666</ele><time>2026-04-26T08:24:06.126Z</time></trkpt><trkpt lat="46.2295552" lon="8.3021072"><ele>988.0</ele><time>2026-04-26T08:24:11.121Z</time></trkpt><trkpt lat="46.2295659" lon="8.3019893"><ele>992.0</ele><time>2026-04-26T08:24:15.125Z</time></trkpt><trkpt lat="46.2295494" lon="8.3018869"><ele>996.0</ele><time>2026-04-26T08:24:19.122Z</time></trkpt><trkpt lat="46.2294828" lon="8.301849"><ele>1000.0</ele><time>2026-04-26T08:24:23.12Z</time></trkpt><trkpt lat="46.2294019" lon="8.3018348"><ele>1004.0</ele><time>2026-04-26T08:24:27.12Z</time></trkpt><trkpt lat="46.2293346" lon="8.3018312"><ele>1008.0</ele><time>2026-04-26T08:24:31.112Z</time></trkpt><trkpt lat="46.2292637" lon="8.3017948"><ele>1012.0</ele><time>2026-04-26T08:24:35.125Z</time></trkpt><trkpt lat="46.2291902" lon="8.3017724"><ele>1016.0</ele><time>2026-04-26T08:24:39.114Z</time></trkpt><trkpt lat="46.2291082" lon="8.3017388"><ele>1016.0</ele><time>2026-04-26T08:24:42.12Z</time></trkpt><trkpt lat="46.2290462" lon="8.3016944"><ele>1016.0</ele><time>2026-04-26T08:24:45.124Z</time></trkpt><trkpt lat="46.2289924" lon="8.3016276"><ele>1016.0</ele><time>2026-04-26T08:24:49.12Z</time></trkpt><trkpt lat="46.2289327" lon="8.3015921"><ele>1016.0</ele><time>2026-04-26T08:24:52.114Z</time></trkpt><trkpt lat="46.2288559" lon="8.3015947"><ele>1016.0</ele><time>2026-04-26T08:24:56.123Z</time></trkpt><trkpt lat="46.2287924" lon="8.3015572"><ele>1016.0</ele><time>2026-04-26T08:25:00.121Z</time></trkpt><trkpt lat="46.228729" lon="8.3015177"><ele>1016.0</ele><time>2026-04-26T08:25:04.114Z</time></trkpt><trkpt lat="46.2286489" lon="8.301481"><ele>1016.5000000000001</ele><time>2026-04-26T08:25:08.115Z</time></trkpt><trkpt lat="46.2285707" lon="8.3014658"><ele>1017.0</ele><time>2026-04-26T08:25:11.12Z</time></trkpt><trkpt lat="46.228509" lon="8.3014223"><ele>1017.5</ele><time>2026-04-26T08:25:14.115Z</time></trkpt><trkpt lat="46.2284556" lon="8.3013522"><ele>1018.0</ele><time>2026-04-26T08:25:18.115Z</time></trkpt><trkpt lat="46.2284181" lon="8.3012568"><ele>1018.5000000000001</ele><time>2026-04-26T08:25:23.123Z</time></trkpt><trkpt lat="46.2283458" lon="8.3011953"><ele>1019.0</ele><time>2026-04-26T08:25:28.127Z</time></trkpt><trkpt lat="46.2282743" lon="8.3011881"><ele>1020.3333333333334</ele><time>2026-04-26T08:25:32.124Z</time></trkpt><trkpt lat="46.2282055" lon="8.3011576"><ele>1021.6666666666667</ele><time>2026-04-26T08:25:36.132Z</time></trkpt><trkpt lat="46.228153" lon="8.3011071"><ele>1023.0</ele><time>2026-04-26T08:25:40.126Z</time></trkpt><trkpt lat="46.2280697" lon="8.3010815"><ele>1024.3333333333333</ele><time>2026-04-26T08:25:44.128Z</time></trkpt><trkpt lat="46.2279955" lon="8.3010618"><ele>1025.6666666666665</ele><time>2026-04-26T08:25:47.128Z</time></trkpt><trkpt lat="46.2279367" lon="8.3009922"><ele>1027.0</ele><time>2026-04-26T08:25:51.119Z</time></trkpt><trkpt lat="46.2278723" lon="8.3009256"><ele>1027.0</ele><time>2026-04-26T08:25:55.123Z</time></trkpt><trkpt lat="46.2278242" lon="8.3008584"><ele>1027.0</ele><time>2026-04-26T08:25:58.124Z</time></trkpt><trkpt lat="46.2277732" lon="8.300799"><ele>1027.0</ele><time>2026-04-26T08:26:01.12Z</time></trkpt><trkpt lat="46.2277159" lon="8.3007413"><ele>1027.0</ele><time>2026-04-26T08:26:04.12Z</time></trkpt><trkpt lat="46.2276686" lon="8.3006738"><ele>1027.0</ele><time>2026-04-26T08:26:07.124Z</time></trkpt><trkpt lat="46.2276289" lon="8.3006012"><ele>1027.0</ele><time>2026-04-26T08:26:10.129Z</time></trkpt><trkpt lat="46.2275852" lon="8.3005345"><ele>1027.0</ele><time>2026-04-26T08:26:13.126Z</time></trkpt><trkpt lat="46.2275443" lon="8.3004417"><ele>1029.5714285714287</ele><time>2026-04-26T08:26:17.122Z</time></trkpt><trkpt lat="46.2275417" lon="8.3003462"><ele>1032.1428571428573</ele><time>2026-04-26T08:26:21.124Z</time></trkpt><trkpt lat="46.2275921" lon="8.3002629"><ele>1034.7142857142858</ele><time>2026-04-26T08:26:27.125Z</time></trkpt><trkpt lat="46.2276586" lon="8.3002672"><ele>1037.2857142857142</ele><time>2026-04-26T08:26:31.124Z</time></trkpt><trkpt lat="46.2277367" lon="8.3002621"><ele>1039.8571428571427</ele><time>2026-04-26T08:26:35.124Z</time></trkpt><trkpt lat="46.2277959" lon="8.3003011"><ele>1042.4285714285713</ele><time>2026-04-26T08:26:38.126Z</time></trkpt><trkpt lat="46.2278564" lon="8.300327"><ele>1045.0</ele><time>2026-04-26T08:26:41.123Z</time></trkpt><trkpt lat="46.2279349" lon="8.300334"><ele>1045.0</ele><time>2026-04-26T08:26:45.142Z</time></trkpt><trkpt lat="46.2279959" lon="8.3002939"><ele>1045.0</ele><time>2026-04-26T08:26:48.118Z</time></trkpt><trkpt lat="46.2280617" lon="8.3003231"><ele>1045.0</ele><time>2026-04-26T08:26:52.106Z</time></trkpt><trkpt lat="46.2281336" lon="8.3003387"><ele>1045.0</ele><time>2026-04-26T08:26:55.111Z</time></trkpt><trkpt lat="46.2281932" lon="8.3002438"><ele>1045.0</ele><time>2026-04-26T08:26:57.104Z</time></trkpt><trkpt lat="46.2282563" lon="8.3001934"><ele>1045.0</ele><time>2026-04-26T08:27:00.1Z</time></trkpt><trkpt lat="46.228331" lon="8.3001522"><ele>1045.0</ele><time>2026-04-26T08:27:05.104Z</time></trkpt><trkpt lat="46.2284106" lon="8.3001198"><ele>1045.0</ele><time>2026-04-26T08:27:08.106Z</time></trkpt><trkpt lat="46.2284884" lon="8.3001239"><ele>1045.0</ele><time>2026-04-26T08:27:12.106Z</time></trkpt><trkpt lat="46.2285597" lon="8.3001046"><ele>1045.0</ele><time>2026-04-26T08:27:16.161Z</time></trkpt><trkpt lat="46.2286348" lon="8.3000655"><ele>1045.0</ele><time>2026-04-26T08:27:20.123Z</time></trkpt><trkpt lat="46.2286958" lon="8.3000374"><ele>1045.0</ele><time>2026-04-26T08:27:23.123Z</time></trkpt><trkpt lat="46.2287661" lon="8.2999785"><ele>1045.0</ele><time>2026-04-26T08:27:27.122Z</time></trkpt><trkpt lat="46.2288358" lon="8.2999468"><ele>1045.0</ele><time>2026-04-26T08:27:31.117Z</time></trkpt><trkpt lat="46.2289" lon="8.2999289"><ele>1045.857142857143</ele><time>2026-04-26T08:27:34.115Z</time></trkpt><trkpt lat="46.2289802" lon="8.299914"><ele>1046.7142857142856</ele><time>2026-04-26T08:27:38.12Z</time></trkpt><trkpt lat="46.2290446" lon="8.2999357"><ele>1047.5714285714284</ele><time>2026-04-26T08:27:41.114Z</time></trkpt><trkpt lat="46.2291237" lon="8.2999306"><ele>1048.4285714285713</ele><time>2026-04-26T08:27:45.118Z</time></trkpt><trkpt lat="46.2291943" lon="8.2999466"><ele>1049.2857142857142</ele><time>2026-04-26T08:27:49.118Z</time></trkpt><trkpt lat="46.2292722" lon="8.2999534"><ele>1050.142857142857</ele><time>2026-04-26T08:27:53.118Z</time></trkpt><trkpt lat="46.2293348" lon="8.299965"><ele>1051.0</ele><time>2026-04-26T08:27:56.12Z</time></trkpt><trkpt lat="46.2293981" lon="8.2999414"><ele>1051.0</ele><time>2026-04-26T08:27:59.122Z</time></trkpt><trkpt lat="46.2294698" lon="8.2999443"><ele>1051.0</ele><time>2026-04-26T08:28:03.117Z</time></trkpt><trkpt lat="46.229537" lon="8.2999598"><ele>1051.0</ele><time>2026-04-26T08:28:06.13Z</time></trkpt><trkpt lat="46.2296072" lon="8.2999538"><ele>1051.0</ele><time>2026-04-26T08:28:09.12Z</time></trkpt><trkpt lat="46.229665" lon="8.2998802"><ele>1051.0</ele><time>2026-04-26T08:28:12.121Z</time></trkpt><trkpt lat="46.2296992" lon="8.2998021"><ele>1051.0</ele><time>2026-04-26T08:28:14.123Z</time></trkpt><trkpt lat="46.2297415" lon="8.2996911"><ele>1051.0</ele><time>2026-04-26T08:28:17.145Z</time></trkpt><trkpt lat="46.2297764" lon="8.2995798"><ele>1051.8333333333333</ele><time>2026-04-26T08:28:20.118Z</time></trkpt><trkpt lat="46.2298073" lon="8.2994688"><ele>1052.6666666666665</ele><time>2026-04-26T08:28:23.122Z</time></trkpt><trkpt lat="46.2298428" lon="8.2993784"><ele>1053.5</ele><time>2026-04-26T08:28:26.12Z</time></trkpt><trkpt lat="46.2298903" lon="8.2992806"><ele>1054.3333333333333</ele><time>2026-04-26T08:28:30.126Z</time></trkpt><trkpt lat="46.2299237" lon="8.299185"><ele>1055.1666666666667</ele><time>2026-04-26T08:28:33.123Z</time></trkpt><trkpt lat="46.2299524" lon="8.299093"><ele>1056.0</ele><time>2026-04-26T08:28:37.125Z</time></trkpt><trkpt lat="46.2300086" lon="8.2990045"><ele>1057.0</ele><time>2026-04-26T08:28:41.126Z</time></trkpt><trkpt lat="46.2300682" lon="8.2989389"><ele>1058.0</ele><time>2026-04-26T08:28:45.126Z</time></trkpt><trkpt lat="46.2301216" lon="8.2988725"><ele>1059.0</ele><time>2026-04-26T08:28:49.122Z</time></trkpt><trkpt lat="46.2301686" lon="8.2987775"><ele>1060.0</ele><time>2026-04-26T08:28:53.112Z</time></trkpt><trkpt lat="46.2302104" lon="8.2986863"><ele>1061.0</ele><time>2026-04-26T08:28:56.123Z</time></trkpt><trkpt lat="46.230253" lon="8.2985881"><ele>1062.0</ele><time>2026-04-26T08:29:00.114Z</time></trkpt><trkpt lat="46.2303138" lon="8.2985262"><ele>1063.142857142857</ele><time>2026-04-26T08:29:04.123Z</time></trkpt><trkpt lat="46.2303641" lon="8.2984618"><ele>1064.2857142857144</ele><time>2026-04-26T08:29:07.12Z</time></trkpt><trkpt lat="46.2304213" lon="8.2983819"><ele>1065.4285714285716</ele><time>2026-04-26T08:29:11.125Z</time></trkpt><trkpt lat="46.2304672" lon="8.298315"><ele>1066.5714285714287</ele><time>2026-04-26T08:29:14.123Z</time></trkpt><trkpt lat="46.2305177" lon="8.2982265"><ele>1067.7142857142858</ele><time>2026-04-26T08:29:18.129Z</time></trkpt><trkpt lat="46.2305638" lon="8.2981411"><ele>1068.857142857143</ele><time>2026-04-26T08:29:22.124Z</time></trkpt><trkpt lat="46.2306314" lon="8.2980783"><ele>1070.0</ele><time>2026-04-26T08:29:26.124Z</time></trkpt><trkpt lat="46.2306984" lon="8.2980045"><ele>1071.4285714285713</ele><time>2026-04-26T08:29:30.125Z</time></trkpt><trkpt lat="46.2307559" lon="8.297919"><ele>1072.857142857143</ele><time>2026-04-26T08:29:34.125Z</time></trkpt><trkpt lat="46.2308105" lon="8.2978563"><ele>1074.2857142857142</ele><time>2026-04-26T08:29:38.122Z</time></trkpt><trkpt lat="46.2308772" lon="8.2977992"><ele>1075.7142857142858</ele><time>2026-04-26T08:29:42.121Z</time></trkpt><trkpt lat="46.2309292" lon="8.2977177"><ele>1077.142857142857</ele><time>2026-04-26T08:29:46.127Z</time></trkpt><trkpt lat="46.2309908" lon="8.297669"><ele>1078.5714285714284</ele><time>2026-04-26T08:29:49.125Z</time></trkpt><trkpt lat="46.2310478" lon="8.2976198"><ele>1080.0</ele><time>2026-04-26T08:29:52.123Z</time></trkpt><trkpt lat="46.2311086" lon="8.2975789"><ele>1080.0</ele><time>2026-04-26T08:29:55.12Z</time></trkpt><trkpt lat="46.2311727" lon="8.2975145"><ele>1080.0</ele><time>2026-04-26T08:29:59.106Z</time></trkpt><trkpt lat="46.2312533" lon="8.2975108"><ele>1080.0</ele><time>2026-04-26T08:30:02.103Z</time></trkpt><trkpt lat="46.2313307" lon="8.2975136"><ele>1080.0</ele><time>2026-04-26T08:30:04.108Z</time></trkpt><trkpt lat="46.2314125" lon="8.2974783"><ele>1080.0</ele><time>2026-04-26T08:30:07.099Z</time></trkpt><trkpt lat="46.2314297" lon="8.2973838"><ele>1080.0</ele><time>2026-04-26T08:30:13.118Z</time></trkpt><trkpt lat="46.2314956" lon="8.2973667"><ele>1080.2857142857142</ele><time>2026-04-26T08:30:18.122Z</time></trkpt><trkpt lat="46.2315674" lon="8.2973473"><ele>1080.5714285714284</ele><time>2026-04-26T08:30:22.119Z</time></trkpt><trkpt lat="46.2316287" lon="8.2973192"><ele>1080.857142857143</ele><time>2026-04-26T08:30:25.121Z</time></trkpt><trkpt lat="46.2316983" lon="8.2972946"><ele>1081.142857142857</ele><time>2026-04-26T08:30:29.116Z</time></trkpt><trkpt lat="46.2317699" lon="8.2972555"><ele>1081.4285714285716</ele><time>2026-04-26T08:30:32.118Z</time></trkpt><trkpt lat="46.2318138" lon="8.2971588"><ele>1081.7142857142858</ele><time>2026-04-26T08:30:35.122Z</time></trkpt><trkpt lat="46.2318185" lon="8.2970481"><ele>1082.0</ele><time>2026-04-26T08:30:38.114Z</time></trkpt><trkpt lat="46.2317787" lon="8.2969579"><ele>1083.5714285714287</ele><time>2026-04-26T08:30:41.113Z</time></trkpt><trkpt lat="46.231728" lon="8.2968991"><ele>1085.142857142857</ele><time>2026-04-26T08:30:44.106Z</time></trkpt><trkpt lat="46.2316577" lon="8.2968656"><ele>1086.7142857142858</ele><time>2026-04-26T08:30:47.115Z</time></trkpt><trkpt lat="46.2315944" lon="8.296848"><ele>1088.2857142857142</ele><time>2026-04-26T08:30:50.107Z</time></trkpt><trkpt lat="46.2315198" lon="8.296805"><ele>1089.857142857143</ele><time>2026-04-26T08:30:54.115Z</time></trkpt><trkpt lat="46.231452" lon="8.2967528"><ele>1091.4285714285716</ele><time>2026-04-26T08:30:58.113Z</time></trkpt><trkpt lat="46.2313932" lon="8.2967033"><ele>1093.0</ele><time>2026-04-26T08:31:01.102Z</time></trkpt><trkpt lat="46.2313329" lon="8.2966563"><ele>1093.0</ele><time>2026-04-26T08:31:04.104Z</time></trkpt><trkpt lat="46.2312593" lon="8.2966381"><ele>1093.0</ele><time>2026-04-26T08:31:07.107Z</time></trkpt><trkpt lat="46.2311905" lon="8.2966243"><ele>1093.0</ele><time>2026-04-26T08:31:10.108Z</time></trkpt><trkpt lat="46.2311292" lon="8.2965935"><ele>1093.0</ele><time>2026-04-26T08:31:14.111Z</time></trkpt><trkpt lat="46.2310756" lon="8.2965062"><ele>1093.0</ele><time>2026-04-26T08:31:18.122Z</time></trkpt><trkpt lat="46.2310365" lon="8.2964037"><ele>1093.0</ele><time>2026-04-26T08:31:22.124Z</time></trkpt><trkpt lat="46.231002" lon="8.2963175"><ele>1093.0</ele><time>2026-04-26T08:31:25.121Z</time></trkpt><trkpt lat="46.2309642" lon="8.2962234"><ele>1095.4285714285716</ele><time>2026-04-26T08:31:29.122Z</time></trkpt><trkpt lat="46.2309311" lon="8.2961382"><ele>1097.857142857143</ele><time>2026-04-26T08:31:33.119Z</time></trkpt><trkpt lat="46.2309058" lon="8.2960528"><ele>1100.2857142857142</ele><time>2026-04-26T08:31:37.12Z</time></trkpt><trkpt lat="46.2308817" lon="8.2959516"><ele>1102.7142857142858</ele><time>2026-04-26T08:31:41.127Z</time></trkpt><trkpt lat="46.2308347" lon="8.2958681"><ele>1105.142857142857</ele><time>2026-04-26T08:31:45.122Z</time></trkpt><trkpt lat="46.2307928" lon="8.29579"><ele>1107.5714285714287</ele><time>2026-04-26T08:31:48.116Z</time></trkpt><trkpt lat="46.2307236" lon="8.2957283"><ele>1110.0</ele><time>2026-04-26T08:31:51.118Z</time></trkpt><trkpt lat="46.2306446" lon="8.295696"><ele>1110.0000000000002</ele><time>2026-04-26T08:31:54.158Z</time></trkpt><trkpt lat="46.2305696" lon="8.2956395"><ele>1110.0</ele><time>2026-04-26T08:31:58.12Z</time></trkpt><trkpt lat="46.2305435" lon="8.2955451"><ele>1110.0</ele><time>2026-04-26T08:32:03.113Z</time></trkpt><trkpt lat="46.2305905" lon="8.295625"><ele>1110.0</ele><time>2026-04-26T08:32:08.116Z</time></trkpt><trkpt lat="46.2306076" lon="8.2957258"><ele>1110.0</ele><time>2026-04-26T08:32:11.122Z</time></trkpt><trkpt lat="46.2306659" lon="8.2957933"><ele>1110.0000000000002</ele><time>2026-04-26T08:32:18.121Z</time></trkpt><trkpt lat="46.230733" lon="8.2958303"><ele>1110.0</ele><time>2026-04-26T08:32:23.121Z</time></trkpt><trkpt lat="46.2307969" lon="8.2958137"><ele>1110.0000000000002</ele><time>2026-04-26T08:32:26.12Z</time></trkpt><trkpt lat="46.2308651" lon="8.29578"><ele>1110.0</ele><time>2026-04-26T08:32:29.12Z</time></trkpt><trkpt lat="46.2309316" lon="8.2957583"><ele>1110.0</ele><time>2026-04-26T08:32:32.126Z</time></trkpt><trkpt lat="46.231008" lon="8.2957362"><ele>1110.0</ele><time>2026-04-26T08:32:36.134Z</time></trkpt><trkpt lat="46.2310788" lon="8.2957556"><ele>1110.0</ele><time>2026-04-26T08:32:40.129Z</time></trkpt><trkpt lat="46.2311541" lon="8.2957624"><ele>1110.0000000000002</ele><time>2026-04-26T08:32:43.126Z</time></trkpt><trkpt lat="46.2312279" lon="8.295757"><ele>1110.0</ele><time>2026-04-26T08:32:46.129Z</time></trkpt><trkpt lat="46.2312941" lon="8.2957695"><ele>1110.0000000000002</ele><time>2026-04-26T08:32:49.123Z</time></trkpt><trkpt lat="46.2313653" lon="8.2957641"><ele>1110.0</ele><time>2026-04-26T08:32:53.127Z</time></trkpt><trkpt lat="46.2314339" lon="8.2957682"><ele>1110.0</ele><time>2026-04-26T08:32:57.13Z</time></trkpt><trkpt lat="46.2314946" lon="8.2957284"><ele>1110.0</ele><time>2026-04-26T08:33:00.128Z</time></trkpt><trkpt lat="46.231532" lon="8.2956242"><ele>1110.0</ele><time>2026-04-26T08:33:03.122Z</time></trkpt><trkpt lat="46.2315227" lon="8.2955075"><ele>1110.0000000000002</ele><time>2026-04-26T08:33:06.13Z</time></trkpt><trkpt lat="46.2314731" lon="8.2954204"><ele>1110.0</ele><time>2026-04-26T08:33:09.115Z</time></trkpt><trkpt lat="46.2314038" lon="8.2953911"><ele>1112.857142857143</ele><time>2026-04-26T08:33:12.122Z</time></trkpt><trkpt lat="46.231341" lon="8.29536"><ele>1115.7142857142858</ele><time>2026-04-26T08:33:15.12Z</time></trkpt><trkpt lat="46.2312763" lon="8.2953411"><ele>1118.5714285714284</ele><time>2026-04-26T08:33:18.124Z</time></trkpt><trkpt lat="46.231216" lon="8.295311"><ele>1121.4285714285716</ele><time>2026-04-26T08:33:21.118Z</time></trkpt><trkpt lat="46.2311602" lon="8.2952669"><ele>1124.2857142857142</ele><time>2026-04-26T08:33:24.123Z</time></trkpt><trkpt lat="46.2310836" lon="8.2952238"><ele>1127.142857142857</ele><time>2026-04-26T08:33:28.124Z</time></trkpt><trkpt lat="46.2310053" lon="8.295196"><ele>1130.0</ele><time>2026-04-26T08:33:32.126Z</time></trkpt><trkpt lat="46.2309349" lon="8.2951535"><ele>1130.0</ele><time>2026-04-26T08:33:36.124Z</time></trkpt><trkpt lat="46.2308601" lon="8.295107"><ele>1130.0</ele><time>2026-04-26T08:33:40.123Z</time></trkpt><trkpt lat="46.2307947" lon="8.2950383"><ele>1130.0</ele><time>2026-04-26T08:33:44.116Z</time></trkpt><trkpt lat="46.230724" lon="8.2949871"><ele>1130.0</ele><time>2026-04-26T08:33:47.12Z</time></trkpt><trkpt lat="46.2306409" lon="8.2949734"><ele>1130.0</ele><time>2026-04-26T08:33:51.119Z</time></trkpt><trkpt lat="46.230563" lon="8.2949582"><ele>1130.0</ele><time>2026-04-26T08:33:55.114Z</time></trkpt><trkpt lat="46.2304861" lon="8.2949351"><ele>1130.3333333333335</ele><time>2026-04-26T08:33:59.122Z</time></trkpt><trkpt lat="46.2304064" lon="8.294932"><ele>1130.6666666666667</ele><time>2026-04-26T08:34:03.123Z</time></trkpt><trkpt lat="46.2303426" lon="8.2949091"><ele>1131.0</ele><time>2026-04-26T08:34:07.122Z</time></trkpt><trkpt lat="46.2302665" lon="8.2948941"><ele>1131.3333333333333</ele><time>2026-04-26T08:34:11.121Z</time></trkpt><trkpt lat="46.2301958" lon="8.2948735"><ele>1131.6666666666665</ele><time>2026-04-26T08:34:14.114Z</time></trkpt><trkpt lat="46.2301222" lon="8.2948572"><ele>1132.0</ele><time>2026-04-26T08:34:18.121Z</time></trkpt><trkpt lat="46.2300434" lon="8.2948259"><ele>1132.0</ele><time>2026-04-26T08:34:22.125Z</time></trkpt><trkpt lat="46.2299783" lon="8.2948101"><ele>1132.0</ele><time>2026-04-26T08:34:25.121Z</time></trkpt><trkpt lat="46.2299145" lon="8.2947851"><ele>1132.0</ele><time>2026-04-26T08:34:28.14Z</time></trkpt><trkpt lat="46.229848" lon="8.2947697"><ele>1132.0</ele><time>2026-04-26T08:34:31.119Z</time></trkpt><trkpt lat="46.229781" lon="8.2947281"><ele>1132.0</ele><time>2026-04-26T08:34:35.118Z</time></trkpt><trkpt lat="46.2297165" lon="8.2946718"><ele>1132.0</ele><time>2026-04-26T08:34:39.123Z</time></trkpt><trkpt lat="46.2296639" lon="8.2945858"><ele>1132.0</ele><time>2026-04-26T08:34:43.116Z</time></trkpt><trkpt lat="46.229603" lon="8.2945385"><ele>1134.857142857143</ele><time>2026-04-26T08:34:47.11Z</time></trkpt><trkpt lat="46.2295396" lon="8.2944917"><ele>1137.7142857142858</ele><time>2026-04-26T08:34:51.116Z</time></trkpt><trkpt lat="46.2294776" lon="8.2944713"><ele>1140.5714285714287</ele><time>2026-04-26T08:34:55.117Z</time></trkpt><trkpt lat="46.2294194" lon="8.2943842"><ele>1143.4285714285716</ele><time>2026-04-26T08:34:59.123Z</time></trkpt><trkpt lat="46.2293675" lon="8.2943082"><ele>1146.2857142857142</ele><time>2026-04-26T08:35:02.113Z</time></trkpt><trkpt lat="46.2293442" lon="8.2942137"><ele>1149.1428571428573</ele><time>2026-04-26T08:35:05.117Z</time></trkpt><trkpt lat="46.2293205" lon="8.2940919"><ele>1152.0</ele><time>2026-04-26T08:35:09.114Z</time></trkpt><trkpt lat="46.2292795" lon="8.2940095"><ele>1152.0000000000002</ele><time>2026-04-26T08:35:12.115Z</time></trkpt><trkpt lat="46.2292238" lon="8.2939579"><ele>1152.0</ele><time>2026-04-26T08:35:15.116Z</time></trkpt><trkpt lat="46.2291511" lon="8.2939087"><ele>1152.0</ele><time>2026-04-26T08:35:18.113Z</time></trkpt><trkpt lat="46.229084" lon="8.2938761"><ele>1152.0</ele><time>2026-04-26T08:35:21.117Z</time></trkpt><trkpt lat="46.2290248" lon="8.2938141"><ele>1152.0</ele><time>2026-04-26T08:35:26.116Z</time></trkpt><trkpt lat="46.2290825" lon="8.2937444"><ele>1152.0000000000002</ele><time>2026-04-26T08:35:38.114Z</time></trkpt><trkpt lat="46.229149" lon="8.2936749"><ele>1152.0</ele><time>2026-04-26T08:35:42.118Z</time></trkpt><trkpt lat="46.2291967" lon="8.2936102"><ele>1153.857142857143</ele><time>2026-04-26T08:35:45.118Z</time></trkpt><trkpt lat="46.2292522" lon="8.2935232"><ele>1155.7142857142858</ele><time>2026-04-26T08:35:49.117Z</time></trkpt><trkpt lat="46.22931" lon="8.2934604"><ele>1157.5714285714284</ele><time>2026-04-26T08:35:52.122Z</time></trkpt><trkpt lat="46.229378" lon="8.2934195"><ele>1159.4285714285716</ele><time>2026-04-26T08:35:55.121Z</time></trkpt><trkpt lat="46.2294403" lon="8.2933893"><ele>1161.2857142857142</ele><time>2026-04-26T08:35:58.123Z</time></trkpt><trkpt lat="46.229508" lon="8.2933706"><ele>1163.142857142857</ele><time>2026-04-26T08:36:02.116Z</time></trkpt><trkpt lat="46.2295898" lon="8.2933448"><ele>1165.0</ele><time>2026-04-26T08:36:06.128Z</time></trkpt><trkpt lat="46.2296559" lon="8.2933193"><ele>1164.9999999999998</ele><time>2026-04-26T08:36:10.124Z</time></trkpt><trkpt lat="46.2297156" lon="8.2932718"><ele>1165.0</ele><time>2026-04-26T08:36:13.122Z</time></trkpt><trkpt lat="46.2297726" lon="8.2932215"><ele>1165.0</ele><time>2026-04-26T08:36:16.125Z</time></trkpt><trkpt lat="46.2298413" lon="8.2932052"><ele>1165.0</ele><time>2026-04-26T08:36:20.118Z</time></trkpt><trkpt lat="46.2299109" lon="8.2931896"><ele>1165.0</ele><time>2026-04-26T08:36:23.116Z</time></trkpt><trkpt lat="46.229988" lon="8.2932388"><ele>1164.9999999999998</ele><time>2026-04-26T08:36:27.121Z</time></trkpt><trkpt lat="46.2300584" lon="8.2932557"><ele>1165.0</ele><time>2026-04-26T08:36:31.118Z</time></trkpt><trkpt lat="46.2301255" lon="8.2932423"><ele>1165.142857142857</ele><time>2026-04-26T08:36:34.119Z</time></trkpt><trkpt lat="46.2301841" lon="8.2931959"><ele>1165.2857142857142</ele><time>2026-04-26T08:36:37.115Z</time></trkpt><trkpt lat="46.230246" lon="8.293138"><ele>1165.4285714285716</ele><time>2026-04-26T08:36:41.121Z</time></trkpt><trkpt lat="46.2302927" lon="8.2930739"><ele>1165.5714285714284</ele><time>2026-04-26T08:36:44.121Z</time></trkpt><trkpt lat="46.2303521" lon="8.2930063"><ele>1165.7142857142858</ele><time>2026-04-26T08:36:48.121Z</time></trkpt><trkpt lat="46.2304028" lon="8.2929271"><ele>1165.857142857143</ele><time>2026-04-26T08:36:53.119Z</time></trkpt><trkpt lat="46.2304698" lon="8.292904"><ele>1166.0</ele><time>2026-04-26T08:36:57.119Z</time></trkpt><trkpt lat="46.2305332" lon="8.2929257"><ele>1168.857142857143</ele><time>2026-04-26T08:37:01.118Z</time></trkpt><trkpt lat="46.2305996" lon="8.2929569"><ele>1171.7142857142858</ele><time>2026-04-26T08:37:05.115Z</time></trkpt><trkpt lat="46.2306639" lon="8.2929403"><ele>1174.5714285714284</ele><time>2026-04-26T08:37:09.118Z</time></trkpt><trkpt lat="46.2307302" lon="8.2929244"><ele>1177.4285714285716</ele><time>2026-04-26T08:37:13.111Z</time></trkpt><trkpt lat="46.2307998" lon="8.2929169"><ele>1180.2857142857142</ele><time>2026-04-26T08:37:18.114Z</time></trkpt><trkpt lat="46.2308463" lon="8.2928436"><ele>1183.142857142857</ele><time>2026-04-26T08:37:21.117Z</time></trkpt><trkpt lat="46.2309041" lon="8.2927664"><ele>1186.0</ele><time>2026-04-26T08:37:24.118Z</time></trkpt><trkpt lat="46.2309573" lon="8.2927066"><ele>1186.3333333333333</ele><time>2026-04-26T08:37:27.121Z</time></trkpt><trkpt lat="46.2310223" lon="8.292661"><ele>1186.6666666666665</ele><time>2026-04-26T08:37:31.12Z</time></trkpt><trkpt lat="46.2310902" lon="8.2926057"><ele>1187.0</ele><time>2026-04-26T08:37:35.121Z</time></trkpt><trkpt lat="46.2311694" lon="8.2925696"><ele>1187.3333333333333</ele><time>2026-04-26T08:37:39.114Z</time></trkpt><trkpt lat="46.2312465" lon="8.2925253"><ele>1187.6666666666667</ele><time>2026-04-26T08:37:42.12Z</time></trkpt><trkpt lat="46.2313047" lon="8.2924725"><ele>1188.0</ele><time>2026-04-26T08:37:45.1Z</time></trkpt><trkpt lat="46.2313586" lon="8.2924075"><ele>1188.0</ele><time>2026-04-26T08:37:48.113Z</time></trkpt><trkpt lat="46.2314405" lon="8.2923804"><ele>1188.0</ele><time>2026-04-26T08:37:52.11Z</time></trkpt><trkpt lat="46.2315095" lon="8.2923894"><ele>1188.0</ele><time>2026-04-26T08:37:55.114Z</time></trkpt><trkpt lat="46.231571" lon="8.2924102"><ele>1188.0</ele><time>2026-04-26T08:37:58.122Z</time></trkpt><trkpt lat="46.2316417" lon="8.2924216"><ele>1188.0</ele><time>2026-04-26T08:38:01.118Z</time></trkpt><trkpt lat="46.2317258" lon="8.292438"><ele>1188.0</ele><time>2026-04-26T08:38:05.113Z</time></trkpt><trkpt lat="46.2317905" lon="8.2924749"><ele>1188.0</ele><time>2026-04-26T08:38:09.109Z</time></trkpt><trkpt lat="46.231864" lon="8.2924433"><ele>1188.142857142857</ele><time>2026-04-26T08:38:13.1Z</time></trkpt><trkpt lat="46.2319303" lon="8.2924583"><ele>1188.2857142857144</ele><time>2026-04-26T08:38:16.107Z</time></trkpt><trkpt lat="46.2319991" lon="8.2924614"><ele>1188.4285714285716</ele><time>2026-04-26T08:38:20.108Z</time></trkpt><trkpt lat="46.2320858" lon="8.2924795"><ele>1188.5714285714287</ele><time>2026-04-26T08:38:24.119Z</time></trkpt><trkpt lat="46.2321547" lon="8.2924718"><ele>1188.7142857142858</ele><time>2026-04-26T08:38:27.124Z</time></trkpt><trkpt lat="46.2322319" lon="8.2924471"><ele>1188.857142857143</ele><time>2026-04-26T08:38:30.117Z</time></trkpt><trkpt lat="46.2323074" lon="8.2924697"><ele>1189.0</ele><time>2026-04-26T08:38:33.119Z</time></trkpt><trkpt lat="46.2323761" lon="8.2924632"><ele>1190.6666666666665</ele><time>2026-04-26T08:38:36.12Z</time></trkpt><trkpt lat="46.2324382" lon="8.2924368"><ele>1192.3333333333333</ele><time>2026-04-26T08:38:39.114Z</time></trkpt><trkpt lat="46.2325046" lon="8.2923868"><ele>1194.0</ele><time>2026-04-26T08:38:42.112Z</time></trkpt><trkpt lat="46.2325799" lon="8.2923536"><ele>1195.6666666666667</ele><time>2026-04-26T08:38:46.114Z</time></trkpt><trkpt lat="46.2326208" lon="8.2922616"><ele>1197.3333333333335</ele><time>2026-04-26T08:38:49.118Z</time></trkpt><trkpt lat="46.2326257" lon="8.2921316"><ele>1199.0</ele><time>2026-04-26T08:38:52.106Z</time></trkpt><trkpt lat="46.2326156" lon="8.2920323"><ele>1199.5</ele><time>2026-04-26T08:38:54.105Z</time></trkpt><trkpt lat="46.2325772" lon="8.2919338"><ele>1200.0</ele><time>2026-04-26T08:38:57.105Z</time></trkpt><trkpt lat="46.2325265" lon="8.2918568"><ele>1200.5</ele><time>2026-04-26T08:39:00.108Z</time></trkpt><trkpt lat="46.2324673" lon="8.2918066"><ele>1201.0</ele><time>2026-04-26T08:39:03.115Z</time></trkpt><trkpt lat="46.2324044" lon="8.291763"><ele>1201.5</ele><time>2026-04-26T08:39:06.134Z</time></trkpt><trkpt lat="46.2323294" lon="8.2917144"><ele>1202.0</ele><time>2026-04-26T08:39:09.108Z</time></trkpt><trkpt lat="46.2322465" lon="8.2916854"><ele>1202.7142857142856</ele><time>2026-04-26T08:39:12.109Z</time></trkpt><trkpt lat="46.2321712" lon="8.2916999"><ele>1203.4285714285716</ele><time>2026-04-26T08:39:15.115Z</time></trkpt><trkpt lat="46.2320995" lon="8.2916746"><ele>1204.142857142857</ele><time>2026-04-26T08:39:18.113Z</time></trkpt><trkpt lat="46.2320646" lon="8.2915949"><ele>1204.8571428571427</ele><time>2026-04-26T08:39:22.112Z</time></trkpt><trkpt lat="46.232138" lon="8.2916054"><ele>1205.5714285714284</ele><time>2026-04-26T08:39:26.122Z</time></trkpt><trkpt lat="46.2322037" lon="8.2915665"><ele>1206.2857142857142</ele><time>2026-04-26T08:39:29.118Z</time></trkpt><trkpt lat="46.2322526" lon="8.2914723"><ele>1207.0</ele><time>2026-04-26T08:39:32.118Z</time></trkpt><trkpt lat="46.2322886" lon="8.2913946"><ele>1207.5714285714284</ele><time>2026-04-26T08:39:35.117Z</time></trkpt><trkpt lat="46.2323111" lon="8.291297"><ele>1208.142857142857</ele><time>2026-04-26T08:39:38.118Z</time></trkpt><trkpt lat="46.2323525" lon="8.2912156"><ele>1208.7142857142858</ele><time>2026-04-26T08:39:42.118Z</time></trkpt><trkpt lat="46.2323981" lon="8.291121"><ele>1209.2857142857142</ele><time>2026-04-26T08:39:46.117Z</time></trkpt><trkpt lat="46.2324211" lon="8.2910031"><ele>1209.857142857143</ele><time>2026-04-26T08:39:49.121Z</time></trkpt><trkpt lat="46.2324506" lon="8.2909222"><ele>1210.4285714285713</ele><time>2026-04-26T08:39:52.119Z</time></trkpt><trkpt lat="46.2324951" lon="8.2908351"><ele>1211.0</ele><time>2026-04-26T08:39:56.123Z</time></trkpt><trkpt lat="46.2325137" lon="8.2907175"><ele>1211.0</ele><time>2026-04-26T08:40:00.121Z</time></trkpt><trkpt lat="46.2325508" lon="8.2906358"><ele>1211.0</ele><time>2026-04-26T08:40:03.12Z</time></trkpt><trkpt lat="46.2325689" lon="8.2905486"><ele>1211.0</ele><time>2026-04-26T08:40:06.129Z</time></trkpt><trkpt lat="46.2326251" lon="8.290477"><ele>1211.0</ele><time>2026-04-26T08:40:10.118Z</time></trkpt><trkpt lat="46.2326534" lon="8.2903697"><ele>1211.0</ele><time>2026-04-26T08:40:14.115Z</time></trkpt><trkpt lat="46.2327004" lon="8.2902782"><ele>1211.0</ele><time>2026-04-26T08:40:17.118Z</time></trkpt><trkpt lat="46.2327603" lon="8.290243"><ele>1211.0</ele><time>2026-04-26T08:40:20.118Z</time></trkpt><trkpt lat="46.2328347" lon="8.290238"><ele>1212.0</ele><time>2026-04-26T08:40:23.123Z</time></trkpt><trkpt lat="46.2329123" lon="8.2902213"><ele>1213.0</ele><time>2026-04-26T08:40:26.119Z</time></trkpt><trkpt lat="46.2329888" lon="8.2901915"><ele>1214.0</ele><time>2026-04-26T08:40:29.115Z</time></trkpt><trkpt lat="46.2330507" lon="8.2901282"><ele>1215.0</ele><time>2026-04-26T08:40:32.119Z</time></trkpt><trkpt lat="46.2331283" lon="8.2901304"><ele>1216.0</ele><time>2026-04-26T08:40:36.116Z</time></trkpt><trkpt lat="46.2331989" lon="8.2901672"><ele>1217.0</ele><time>2026-04-26T08:40:40.106Z</time></trkpt><trkpt lat="46.2332675" lon="8.2902075"><ele>1218.0</ele><time>2026-04-26T08:40:44.102Z</time></trkpt><trkpt lat="46.2333381" lon="8.2902654"><ele>1219.0</ele><time>2026-04-26T08:40:47.106Z</time></trkpt><trkpt lat="46.233487" lon="8.2901973"><ele>1220.0</ele><time>2026-04-26T08:40:49.085Z</time></trkpt><trkpt lat="46.2335611" lon="8.2901304"><ele>1221.0</ele><time>2026-04-26T08:40:50.092Z</time></trkpt><trkpt lat="46.2336154" lon="8.2900614"><ele>1222.0</ele><time>2026-04-26T08:40:52.094Z</time></trkpt><trkpt lat="46.2335848" lon="8.2901651"><ele>1222.0000000000002</ele><time>2026-04-26T08:40:56.112Z</time></trkpt><trkpt lat="46.2336513" lon="8.2901859"><ele>1222.0</ele><time>2026-04-26T08:41:02.116Z</time></trkpt><trkpt lat="46.2337129" lon="8.2901345"><ele>1222.0</ele><time>2026-04-26T08:41:07.115Z</time></trkpt><trkpt lat="46.2337859" lon="8.2900933"><ele>1222.0</ele><time>2026-04-26T08:41:11.117Z</time></trkpt><trkpt lat="46.2338514" lon="8.290031"><ele>1222.0</ele><time>2026-04-26T08:41:15.117Z</time></trkpt><trkpt lat="46.2339006" lon="8.2899309"><ele>1222.0000000000002</ele><time>2026-04-26T08:41:19.113Z</time></trkpt><trkpt lat="46.2339407" lon="8.2898568"><ele>1222.0</ele><time>2026-04-26T08:41:22.109Z</time></trkpt><trkpt lat="46.2339765" lon="8.2897447"><ele>1223.4285714285716</ele><time>2026-04-26T08:41:25.124Z</time></trkpt><trkpt lat="46.2339831" lon="8.2896538"><ele>1224.857142857143</ele><time>2026-04-26T08:41:28.125Z</time></trkpt><trkpt lat="46.2339703" lon="8.2895548"><ele>1226.2857142857142</ele><time>2026-04-26T08:41:31.124Z</time></trkpt><trkpt lat="46.2339591" lon="8.2894419"><ele>1227.7142857142858</ele><time>2026-04-26T08:41:35.115Z</time></trkpt><trkpt lat="46.2339465" lon="8.2893448"><ele>1229.142857142857</ele><time>2026-04-26T08:41:39.119Z</time></trkpt><trkpt lat="46.2339344" lon="8.2892493"><ele>1230.5714285714287</ele><time>2026-04-26T08:41:43.124Z</time></trkpt><trkpt lat="46.2339145" lon="8.2891448"><ele>1232.0</ele><time>2026-04-26T08:41:47.123Z</time></trkpt><trkpt lat="46.2339014" lon="8.2890454"><ele>1232.0</ele><time>2026-04-26T08:41:50.122Z</time></trkpt><trkpt lat="46.2338836" lon="8.2889565"><ele>1232.0</ele><time>2026-04-26T08:41:53.124Z</time></trkpt><trkpt lat="46.233843" lon="8.2888489"><ele>1232.0</ele><time>2026-04-26T08:41:57.122Z</time></trkpt><trkpt lat="46.2337902" lon="8.2887561"><ele>1232.0</ele><time>2026-04-26T08:42:01.116Z</time></trkpt><trkpt lat="46.23374" lon="8.288669"><ele>1232.0</ele><time>2026-04-26T08:42:05.121Z</time></trkpt><trkpt lat="46.2336747" lon="8.28862"><ele>1232.0</ele><time>2026-04-26T08:42:09.125Z</time></trkpt><trkpt lat="46.233653" lon="8.2885092"><ele>1233.8333333333335</ele><time>2026-04-26T08:42:13.127Z</time></trkpt><trkpt lat="46.2336802" lon="8.2886097"><ele>1235.6666666666667</ele><time>2026-04-26T08:42:21.119Z</time></trkpt><trkpt lat="46.2337037" lon="8.2887006"><ele>1237.5</ele><time>2026-04-26T08:42:25.115Z</time></trkpt><trkpt lat="46.2337743" lon="8.2886513"><ele>1239.3333333333333</ele><time>2026-04-26T08:42:47.094Z</time></trkpt><trkpt lat="46.2337713" lon="8.2885469"><ele>1241.1666666666665</ele><time>2026-04-26T08:42:48.105Z</time></trkpt><trkpt lat="46.2337141" lon="8.288664"><ele>1243.0</ele><time>2026-04-26T08:42:50.102Z</time></trkpt><trkpt lat="46.2336733" lon="8.2887902"><ele>1243.0000000000002</ele><time>2026-04-26T08:42:52.101Z</time></trkpt><trkpt lat="46.2337192" lon="8.2887122"><ele>1243.0</ele><time>2026-04-26T08:43:01.103Z</time></trkpt><trkpt lat="46.2336603" lon="8.2886629"><ele>1243.0</ele><time>2026-04-26T08:43:51.109Z</time></trkpt><trkpt lat="46.2335896" lon="8.2887102"><ele>1243.0</ele><time>2026-04-26T08:44:05.111Z</time></trkpt><trkpt lat="46.2336536" lon="8.2887166"><ele>1243.0</ele><time>2026-04-26T08:44:08.095Z</time></trkpt><trkpt lat="46.2337426" lon="8.2886916"><ele>1243.0000000000002</ele><time>2026-04-26T08:44:10.098Z</time></trkpt><trkpt lat="46.2336803" lon="8.2886593"><ele>1243.0</ele><time>2026-04-26T08:44:35.116Z</time></trkpt><trkpt lat="46.2336673" lon="8.2887975"><ele>1243.0</ele><time>2026-04-26T08:44:50.102Z</time></trkpt><trkpt lat="46.2337187" lon="8.288901"><ele>1243.0</ele><time>2026-04-26T08:44:56.087Z</time></trkpt><trkpt lat="46.2338181" lon="8.2888503"><ele>1243.0</ele><time>2026-04-26T08:44:58.093Z</time></trkpt><trkpt lat="46.2336941" lon="8.288767"><ele>1243.0</ele><time>2026-04-26T08:45:04.08Z</time></trkpt><trkpt lat="46.2335966" lon="8.2888164"><ele>1243.0</ele><time>2026-04-26T08:45:06.085Z</time></trkpt><trkpt lat="46.2335735" lon="8.2887294"><ele>1243.0</ele><time>2026-04-26T08:45:12.098Z</time></trkpt><trkpt lat="46.2335625" lon="8.2886279"><ele>1243.0</ele><time>2026-04-26T08:45:19.089Z</time></trkpt><trkpt lat="46.2336229" lon="8.2885501"><ele>1243.0</ele><time>2026-04-26T08:45:24.065Z</time></trkpt><trkpt lat="46.2336857" lon="8.2885822"><ele>1243.0</ele><time>2026-04-26T08:45:27.067Z</time></trkpt><trkpt lat="46.2337283" lon="8.2886677"><ele>1243.0</ele><time>2026-04-26T08:45:28.083Z</time></trkpt><trkpt lat="46.2337714" lon="8.2887997"><ele>1243.0</ele><time>2026-04-26T08:45:29.081Z</time></trkpt><trkpt lat="46.2337958" lon="8.2889509"><ele>1243.8333333333333</ele><time>2026-04-26T08:45:30.085Z</time></trkpt><trkpt lat="46.2338452" lon="8.2890586"><ele>1244.6666666666665</ele><time>2026-04-26T08:45:31.093Z</time></trkpt><trkpt lat="46.2338903" lon="8.2891722"><ele>1245.5</ele><time>2026-04-26T08:45:32.096Z</time></trkpt><trkpt lat="46.2339223" lon="8.289289"><ele>1246.3333333333333</ele><time>2026-04-26T08:45:33.096Z</time></trkpt><trkpt lat="46.2339535" lon="8.2893993"><ele>1247.1666666666667</ele><time>2026-04-26T08:45:34.101Z</time></trkpt><trkpt lat="46.2339747" lon="8.2895232"><ele>1248.0</ele><time>2026-04-26T08:45:35.104Z</time></trkpt><trkpt lat="46.2339848" lon="8.2896574"><ele>1245.3333333333333</ele><time>2026-04-26T08:45:36.105Z</time></trkpt><trkpt lat="46.2339817" lon="8.2897801"><ele>1242.6666666666667</ele><time>2026-04-26T08:45:37.099Z</time></trkpt><trkpt lat="46.233974" lon="8.2898833"><ele>1240.0</ele><time>2026-04-26T08:45:38.094Z</time></trkpt><trkpt lat="46.2339571" lon="8.2899739"><ele>1237.3333333333335</ele><time>2026-04-26T08:45:39.094Z</time></trkpt><trkpt lat="46.2339331" lon="8.2901011"><ele>1234.6666666666667</ele><time>2026-04-26T08:45:41.096Z</time></trkpt><trkpt lat="46.2339259" lon="8.2902163"><ele>1232.0</ele><time>2026-04-26T08:45:43.097Z</time></trkpt><trkpt lat="46.2339314" lon="8.2903244"><ele>1232.0</ele><time>2026-04-26T08:45:45.097Z</time></trkpt><trkpt lat="46.2339928" lon="8.2903882"><ele>1232.0</ele><time>2026-04-26T08:45:47.105Z</time></trkpt><trkpt lat="46.2340591" lon="8.2904723"><ele>1232.0</ele><time>2026-04-26T08:45:49.127Z</time></trkpt><trkpt lat="46.2341395" lon="8.2905433"><ele>1232.0</ele><time>2026-04-26T08:45:51.11Z</time></trkpt><trkpt lat="46.2342426" lon="8.290602"><ele>1232.0</ele><time>2026-04-26T08:45:53.107Z</time></trkpt><trkpt lat="46.2343376" lon="8.2906946"><ele>1230.4</ele><time>2026-04-26T08:45:55.106Z</time></trkpt><trkpt lat="46.2344212" lon="8.2908042"><ele>1228.8000000000002</ele><time>2026-04-26T08:45:57.104Z</time></trkpt><trkpt lat="46.2345188" lon="8.2909178"><ele>1227.2</ele><time>2026-04-26T08:45:59.11Z</time></trkpt><trkpt lat="46.2346457" lon="8.2909347"><ele>1225.6000000000001</ele><time>2026-04-26T08:46:01.095Z</time></trkpt><trkpt lat="46.2347128" lon="8.2909039"><ele>1224.0</ele><time>2026-04-26T08:46:02.099Z</time></trkpt><trkpt lat="46.2347686" lon="8.290855"><ele>1224.6666666666667</ele><time>2026-04-26T08:46:03.101Z</time></trkpt><trkpt lat="46.2348213" lon="8.2908041"><ele>1225.3333333333333</ele><time>2026-04-26T08:46:04.099Z</time></trkpt><trkpt lat="46.2349057" lon="8.2906958"><ele>1226.0</ele><time>2026-04-26T08:46:06.114Z</time></trkpt><trkpt lat="46.2349608" lon="8.2906154"><ele>1226.6666666666665</ele><time>2026-04-26T08:46:08.101Z</time></trkpt><trkpt lat="46.2350096" lon="8.2905022"><ele>1227.3333333333333</ele><time>2026-04-26T08:46:12.094Z</time></trkpt><trkpt lat="46.235061" lon="8.2904462"><ele>1228.0</ele><time>2026-04-26T08:46:16.102Z</time></trkpt><trkpt lat="46.2350822" lon="8.2903471"><ele>1229.4285714285713</ele><time>2026-04-26T08:46:20.131Z</time></trkpt><trkpt lat="46.2350944" lon="8.2902321"><ele>1230.857142857143</ele><time>2026-04-26T08:46:23.111Z</time></trkpt><trkpt lat="46.2351376" lon="8.2901494"><ele>1232.2857142857142</ele><time>2026-04-26T08:46:26.107Z</time></trkpt><trkpt lat="46.2351924" lon="8.2900831"><ele>1233.7142857142858</ele><time>2026-04-26T08:46:29.109Z</time></trkpt><trkpt lat="46.2352262" lon="8.2900028"><ele>1235.142857142857</ele><time>2026-04-26T08:46:31.097Z</time></trkpt><trkpt lat="46.2352583" lon="8.2899109"><ele>1236.5714285714284</ele><time>2026-04-26T08:46:34.104Z</time></trkpt><trkpt lat="46.2352952" lon="8.2898364"><ele>1238.0</ele><time>2026-04-26T08:46:37.112Z</time></trkpt><trkpt lat="46.2353402" lon="8.2897606"><ele>1239.5714285714284</ele><time>2026-04-26T08:46:42.105Z</time></trkpt><trkpt lat="46.2353999" lon="8.2897163"><ele>1241.142857142857</ele><time>2026-04-26T08:46:46.106Z</time></trkpt><trkpt lat="46.235467" lon="8.2896694"><ele>1242.7142857142858</ele><time>2026-04-26T08:46:50.12Z</time></trkpt><trkpt lat="46.2355085" lon="8.2895546"><ele>1244.2857142857142</ele><time>2026-04-26T08:46:55.102Z</time></trkpt><trkpt lat="46.2355629" lon="8.2894736"><ele>1245.857142857143</ele><time>2026-04-26T08:46:59.097Z</time></trkpt><trkpt lat="46.2356302" lon="8.2894795"><ele>1247.4285714285713</ele><time>2026-04-26T08:47:03.102Z</time></trkpt><trkpt lat="46.2356947" lon="8.2895054"><ele>1249.0</ele><time>2026-04-26T08:47:07.095Z</time></trkpt><trkpt lat="46.2357545" lon="8.2894259"><ele>1249.4285714285713</ele><time>2026-04-26T08:47:11.097Z</time></trkpt><trkpt lat="46.2358224" lon="8.2893577"><ele>1249.857142857143</ele><time>2026-04-26T08:47:14.097Z</time></trkpt><trkpt lat="46.2358858" lon="8.2893233"><ele>1250.2857142857142</ele><time>2026-04-26T08:47:17.098Z</time></trkpt><trkpt lat="46.2359552" lon="8.2893121"><ele>1250.7142857142858</ele><time>2026-04-26T08:47:22.105Z</time></trkpt><trkpt lat="46.2360369" lon="8.2893369"><ele>1251.142857142857</ele><time>2026-04-26T08:47:27.11Z</time></trkpt><trkpt lat="46.2361036" lon="8.2893461"><ele>1251.5714285714284</ele><time>2026-04-26T08:47:30.101Z</time></trkpt><trkpt lat="46.2361737" lon="8.2893412"><ele>1252.0</ele><time>2026-04-26T08:47:34.104Z</time></trkpt><trkpt lat="46.236245" lon="8.289331"><ele>1252.0</ele><time>2026-04-26T08:47:38.105Z</time></trkpt><trkpt lat="46.2363115" lon="8.2893802"><ele>1252.0</ele><time>2026-04-26T08:47:42.104Z</time></trkpt><trkpt lat="46.2363797" lon="8.2893978"><ele>1252.0</ele><time>2026-04-26T08:47:47.103Z</time></trkpt><trkpt lat="46.2364515" lon="8.2894011"><ele>1252.0</ele><time>2026-04-26T08:47:51.098Z</time></trkpt><trkpt lat="46.2365331" lon="8.2893959"><ele>1252.0</ele><time>2026-04-26T08:47:55.104Z</time></trkpt><trkpt lat="46.2365967" lon="8.28938"><ele>1252.0</ele><time>2026-04-26T08:47:58.103Z</time></trkpt><trkpt lat="46.2366635" lon="8.2894094"><ele>1252.0</ele><time>2026-04-26T08:48:01.105Z</time></trkpt><trkpt lat="46.2367379" lon="8.2893912"><ele>1253.0</ele><time>2026-04-26T08:48:06.106Z</time></trkpt><trkpt lat="46.2368064" lon="8.2893985"><ele>1254.0</ele><time>2026-04-26T08:48:11.099Z</time></trkpt><trkpt lat="46.2368669" lon="8.2893446"><ele>1255.0</ele><time>2026-04-26T08:48:15.102Z</time></trkpt><trkpt lat="46.2369243" lon="8.2892251"><ele>1256.0</ele><time>2026-04-26T08:48:19.107Z</time></trkpt><trkpt lat="46.2369601" lon="8.2891303"><ele>1257.0</ele><time>2026-04-26T08:48:21.104Z</time></trkpt><trkpt lat="46.2370188" lon="8.2890672"><ele>1258.0</ele><time>2026-04-26T08:48:24.096Z</time></trkpt><trkpt lat="46.2370904" lon="8.2890144"><ele>1258.0</ele><time>2026-04-26T08:48:29.1Z</time></trkpt><trkpt lat="46.2371601" lon="8.2889961"><ele>1258.0</ele><time>2026-04-26T08:48:34.096Z</time></trkpt><trkpt lat="46.2372301" lon="8.2889538"><ele>1258.0</ele><time>2026-04-26T08:48:39.095Z</time></trkpt><trkpt lat="46.2373062" lon="8.2889026"><ele>1258.0</ele><time>2026-04-26T08:48:44.103Z</time></trkpt><trkpt lat="46.2373709" lon="8.2889052"><ele>1258.0</ele><time>2026-04-26T08:48:48.108Z</time></trkpt><trkpt lat="46.2374323" lon="8.2888617"><ele>1258.0</ele><time>2026-04-26T08:48:51.11Z</time></trkpt><trkpt lat="46.2374976" lon="8.2888157"><ele>1258.0</ele><time>2026-04-26T08:48:55.104Z</time></trkpt><trkpt lat="46.2375599" lon="8.2887902"><ele>1262.5714285714284</ele><time>2026-04-26T08:48:58.103Z</time></trkpt><trkpt lat="46.2376277" lon="8.2887753"><ele>1267.1428571428573</ele><time>2026-04-26T08:49:02.106Z</time></trkpt><trkpt lat="46.237692" lon="8.2887191"><ele>1271.7142857142858</ele><time>2026-04-26T08:49:07.099Z</time></trkpt><trkpt lat="46.2377508" lon="8.2886704"><ele>1276.2857142857142</ele><time>2026-04-26T08:49:12.1Z</time></trkpt><trkpt lat="46.2378161" lon="8.2886903"><ele>1280.8571428571427</ele><time>2026-04-26T08:49:17.102Z</time></trkpt><trkpt lat="46.2378826" lon="8.2886966"><ele>1285.4285714285716</ele><time>2026-04-26T08:49:22.102Z</time></trkpt><trkpt lat="46.2379662" lon="8.2886603"><ele>1290.0</ele><time>2026-04-26T08:49:26.104Z</time></trkpt><trkpt lat="46.2380356" lon="8.2886023"><ele>1290.0</ele><time>2026-04-26T08:49:29.098Z</time></trkpt><trkpt lat="46.2380723" lon="8.2885102"><ele>1290.0</ele><time>2026-04-26T08:49:33.096Z</time></trkpt><trkpt lat="46.2380907" lon="8.28842"><ele>1290.0</ele><time>2026-04-26T08:49:37.091Z</time></trkpt><trkpt lat="46.2380103" lon="8.2883581"><ele>1290.0</ele><time>2026-04-26T08:49:45.088Z</time></trkpt><trkpt lat="46.2379485" lon="8.2883068"><ele>1290.0</ele><time>2026-04-26T08:49:47.087Z</time></trkpt><trkpt lat="46.2378842" lon="8.2882857"><ele>1290.0</ele><time>2026-04-26T08:49:49.087Z</time></trkpt><trkpt lat="46.2378182" lon="8.2882508"><ele>1290.0</ele><time>2026-04-26T08:49:53.1Z</time></trkpt><trkpt lat="46.2377576" lon="8.288183"><ele>1290.0</ele><time>2026-04-26T08:49:57.095Z</time></trkpt><trkpt lat="46.2376882" lon="8.2881529"><ele>1290.0</ele><time>2026-04-26T08:50:01.103Z</time></trkpt><trkpt lat="46.2376413" lon="8.2880896"><ele>1290.0</ele><time>2026-04-26T08:50:11.104Z</time></trkpt><trkpt lat="46.2375823" lon="8.28805"><ele>1290.0</ele><time>2026-04-26T08:50:14.108Z</time></trkpt><trkpt lat="46.2375259" lon="8.2879857"><ele>1290.0</ele><time>2026-04-26T08:50:17.098Z</time></trkpt><trkpt lat="46.237468" lon="8.2879377"><ele>1290.0</ele><time>2026-04-26T08:50:20.107Z</time></trkpt><trkpt lat="46.2373994" lon="8.2878819"><ele>1290.0</ele><time>2026-04-26T08:50:23.107Z</time></trkpt><trkpt lat="46.237318" lon="8.2878377"><ele>1294.142857142857</ele><time>2026-04-26T08:50:27.121Z</time></trkpt><trkpt lat="46.2372363" lon="8.2878129"><ele>1298.2857142857142</ele><time>2026-04-26T08:50:31.104Z</time></trkpt><trkpt lat="46.2372779" lon="8.2878902"><ele>1302.4285714285713</ele><time>2026-04-26T08:50:45.113Z</time></trkpt><trkpt lat="46.2373409" lon="8.2878808"><ele>1306.5714285714284</ele><time>2026-04-26T08:50:49.106Z</time></trkpt><trkpt lat="46.2374042" lon="8.2878354"><ele>1310.7142857142858</ele><time>2026-04-26T08:50:53.107Z</time></trkpt><trkpt lat="46.2374666" lon="8.2877674"><ele>1314.8571428571427</ele><time>2026-04-26T08:50:57.104Z</time></trkpt><trkpt lat="46.2375429" lon="8.2877326"><ele>1319.0</ele><time>2026-04-26T08:51:02.103Z</time></trkpt><trkpt lat="46.2375994" lon="8.2876759"><ele>1319.0</ele><time>2026-04-26T08:51:05.101Z</time></trkpt><trkpt lat="46.2376627" lon="8.2876555"><ele>1319.0</ele><time>2026-04-26T08:51:09.11Z</time></trkpt><trkpt lat="46.2377409" lon="8.2875936"><ele>1319.0</ele><time>2026-04-26T08:51:13.111Z</time></trkpt><trkpt lat="46.2378163" lon="8.2875924"><ele>1319.0</ele><time>2026-04-26T08:51:17.103Z</time></trkpt><trkpt lat="46.2335735" lon="8.2887294"><ele>1306.3333333333335</ele><time>2026-04-26T08:45:12.098Z</time></trkpt><trkpt lat="46.2335625" lon="8.2886279"><ele>1293.6666666666667</ele><time>2026-04-26T08:45:19.089Z</time></trkpt><trkpt lat="46.2336229" lon="8.2885501"><ele>1281.0</ele><time>2026-04-26T08:45:24.065Z</time></trkpt><trkpt lat="46.2336857" lon="8.2885822"><ele>1268.3333333333333</ele><time>2026-04-26T08:45:27.067Z</time></trkpt><trkpt lat="46.2337283" lon="8.2886677"><ele>1255.6666666666665</ele><time>2026-04-26T08:45:28.083Z</time></trkpt><trkpt lat="46.2337714" lon="8.2887997"><ele>1243.0</ele><time>2026-04-26T08:45:29.081Z</time></trkpt><trkpt lat="46.2337958" lon="8.2889509"><ele>1243.8333333333333</ele><time>2026-04-26T08:45:30.085Z</time></trkpt><trkpt lat="46.2338452" lon="8.2890586"><ele>1244.6666666666665</ele><time>2026-04-26T08:45:31.093Z</time></trkpt><trkpt lat="46.2338903" lon="8.2891722"><ele>1245.5</ele><time>2026-04-26T08:45:32.096Z</time></trkpt><trkpt lat="46.2339223" lon="8.289289"><ele>1246.3333333333333</ele><time>2026-04-26T08:45:33.096Z</time></trkpt><trkpt lat="46.2339535" lon="8.2893993"><ele>1247.1666666666667</ele><time>2026-04-26T08:45:34.101Z</time></trkpt><trkpt lat="46.2339747" lon="8.2895232"><ele>1248.0</ele><time>2026-04-26T08:45:35.104Z</time></trkpt><trkpt lat="46.2339848" lon="8.2896574"><ele>1245.3333333333333</ele><time>2026-04-26T08:45:36.105Z</time></trkpt><trkpt lat="46.2339817" lon="8.2897801"><ele>1242.6666666666667</ele><time>2026-04-26T08:45:37.099Z</time></trkpt><trkpt lat="46.233974" lon="8.2898833"><ele>1240.0</ele><time>2026-04-26T08:45:38.094Z</time></trkpt><trkpt lat="46.2339571" lon="8.2899739"><ele>1237.3333333333335</ele><time>2026-04-26T08:45:39.094Z</time></trkpt><trkpt lat="46.2339331" lon="8.2901011"><ele>1234.6666666666667</ele><time>2026-04-26T08:45:41.096Z</time></trkpt><trkpt lat="46.2339259" lon="8.2902163"><ele>1232.0</ele><time>2026-04-26T08:45:43.097Z</time></trkpt><trkpt lat="46.2339314" lon="8.2903244"><ele>1232.0</ele><time>2026-04-26T08:45:45.097Z</time></trkpt><trkpt lat="46.2339928" lon="8.2903882"><ele>1232.0</ele><time>2026-04-26T08:45:47.105Z</time></trkpt><trkpt lat="46.2340591" lon="8.2904723"><ele>1232.0</ele><time>2026-04-26T08:45:49.127Z</time></trkpt><trkpt lat="46.2341395" lon="8.2905433"><ele>1232.0</ele><time>2026-04-26T08:45:51.11Z</time></trkpt><trkpt lat="46.2342426" lon="8.290602"><ele>1232.0</ele><time>2026-04-26T08:45:53.107Z</time></trkpt><trkpt lat="46.2343376" lon="8.2906946"><ele>1230.4</ele><time>2026-04-26T08:45:55.106Z</time></trkpt><trkpt lat="46.2344212" lon="8.2908042"><ele>1228.8000000000002</ele><time>2026-04-26T08:45:57.104Z</time></trkpt><trkpt lat="46.2345188" lon="8.2909178"><ele>1227.2</ele><time>2026-04-26T08:45:59.11Z</time></trkpt><trkpt lat="46.2346457" lon="8.2909347"><ele>1225.6000000000001</ele><time>2026-04-26T08:46:01.095Z</time></trkpt><trkpt lat="46.2347128" lon="8.2909039"><ele>1224.0</ele><time>2026-04-26T08:46:02.099Z</time></trkpt><trkpt lat="46.2347686" lon="8.290855"><ele>1224.6666666666667</ele><time>2026-04-26T08:46:03.101Z</time></trkpt><trkpt lat="46.2348213" lon="8.2908041"><ele>1225.3333333333333</ele><time>2026-04-26T08:46:04.099Z</time></trkpt><trkpt lat="46.2349057" lon="8.2906958"><ele>1226.0</ele><time>2026-04-26T08:46:06.114Z</time></trkpt><trkpt lat="46.2349608" lon="8.2906154"><ele>1226.6666666666665</ele><time>2026-04-26T08:46:08.101Z</time></trkpt><trkpt lat="46.2350096" lon="8.2905022"><ele>1227.3333333333333</ele><time>2026-04-26T08:46:12.094Z</time></trkpt><trkpt lat="46.235061" lon="8.2904462"><ele>1228.0</ele><time>2026-04-26T08:46:16.102Z</time></trkpt><trkpt lat="46.2350822" lon="8.2903471"><ele>1229.4285714285713</ele><time>2026-04-26T08:46:20.131Z</time></trkpt><trkpt lat="46.2350944" lon="8.2902321"><ele>1230.857142857143</ele><time>2026-04-26T08:46:23.111Z</time></trkpt><trkpt lat="46.2351376" lon="8.2901494"><ele>1232.2857142857142</ele><time>2026-04-26T08:46:26.107Z</time></trkpt><trkpt lat="46.2351924" lon="8.2900831"><ele>1233.7142857142858</ele><time>2026-04-26T08:46:29.109Z</time></trkpt><trkpt lat="46.2352262" lon="8.2900028"><ele>1235.142857142857</ele><time>2026-04-26T08:46:31.097Z</time></trkpt><trkpt lat="46.2352583" lon="8.2899109"><ele>1236.5714285714284</ele><time>2026-04-26T08:46:34.104Z</time></trkpt><trkpt lat="46.2352952" lon="8.2898364"><ele>1238.0</ele><time>2026-04-26T08:46:37.112Z</time></trkpt><trkpt lat="46.2353402" lon="8.2897606"><ele>1239.5714285714284</ele><time>2026-04-26T08:46:42.105Z</time></trkpt><trkpt lat="46.2353999" lon="8.2897163"><ele>1241.142857142857</ele><time>2026-04-26T08:46:46.106Z</time></trkpt><trkpt lat="46.235467" lon="8.2896694"><ele>1242.7142857142858</ele><time>2026-04-26T08:46:50.12Z</time></trkpt><trkpt lat="46.2355085" lon="8.2895546"><ele>1244.2857142857142</ele><time>2026-04-26T08:46:55.102Z</time></trkpt><trkpt lat="46.2355629" lon="8.2894736"><ele>1245.857142857143</ele><time>2026-04-26T08:46:59.097Z</time></trkpt><trkpt lat="46.2356302" lon="8.2894795"><ele>1247.4285714285713</ele><time>2026-04-26T08:47:03.102Z</time></trkpt><trkpt lat="46.2356947" lon="8.2895054"><ele>1249.0</ele><time>2026-04-26T08:47:07.095Z</time></trkpt><trkpt lat="46.2357545" lon="8.2894259"><ele>1249.4285714285713</ele><time>2026-04-26T08:47:11.097Z</time></trkpt><trkpt lat="46.2358224" lon="8.2893577"><ele>1249.857142857143</ele><time>2026-04-26T08:47:14.097Z</time></trkpt><trkpt lat="46.2358858" lon="8.2893233"><ele>1250.2857142857142</ele><time>2026-04-26T08:47:17.098Z</time></trkpt><trkpt lat="46.2359552" lon="8.2893121"><ele>1250.7142857142858</ele><time>2026-04-26T08:47:22.105Z</time></trkpt><trkpt lat="46.2360369" lon="8.2893369"><ele>1251.142857142857</ele><time>2026-04-26T08:47:27.11Z</time></trkpt><trkpt lat="46.2361036" lon="8.2893461"><ele>1251.5714285714284</ele><time>2026-04-26T08:47:30.101Z</time></trkpt><trkpt lat="46.2361737" lon="8.2893412"><ele>1252.0</ele><time>2026-04-26T08:47:34.104Z</time></trkpt><trkpt lat="46.236245" lon="8.289331"><ele>1252.0</ele><time>2026-04-26T08:47:38.105Z</time></trkpt><trkpt lat="46.2363115" lon="8.2893802"><ele>1252.0</ele><time>2026-04-26T08:47:42.104Z</time></trkpt><trkpt lat="46.2363797" lon="8.2893978"><ele>1252.0</ele><time>2026-04-26T08:47:47.103Z</time></trkpt><trkpt lat="46.2364515" lon="8.2894011"><ele>1252.0</ele><time>2026-04-26T08:47:51.098Z</time></trkpt><trkpt lat="46.2365331" lon="8.2893959"><ele>1252.0</ele><time>2026-04-26T08:47:55.104Z</time></trkpt><trkpt lat="46.2365967" lon="8.28938"><ele>1252.0</ele><time>2026-04-26T08:47:58.103Z</time></trkpt><trkpt lat="46.2366635" lon="8.2894094"><ele>1252.0</ele><time>2026-04-26T08:48:01.105Z</time></trkpt><trkpt lat="46.2367379" lon="8.2893912"><ele>1253.0</ele><time>2026-04-26T08:48:06.106Z</time></trkpt><trkpt lat="46.2368064" lon="8.2893985"><ele>1254.0</ele><time>2026-04-26T08:48:11.099Z</time></trkpt><trkpt lat="46.2368669" lon="8.2893446"><ele>1255.0</ele><time>2026-04-26T08:48:15.102Z</time></trkpt><trkpt lat="46.2369243" lon="8.2892251"><ele>1256.0</ele><time>2026-04-26T08:48:19.107Z</time></trkpt><trkpt lat="46.2369601" lon="8.2891303"><ele>1257.0</ele><time>2026-04-26T08:48:21.104Z</time></trkpt><trkpt lat="46.2370188" lon="8.2890672"><ele>1258.0</ele><time>2026-04-26T08:48:24.096Z</time></trkpt><trkpt lat="46.2370904" lon="8.2890144"><ele>1258.0</ele><time>2026-04-26T08:48:29.1Z</time></trkpt><trkpt lat="46.2371601" lon="8.2889961"><ele>1258.0</ele><time>2026-04-26T08:48:34.096Z</time></trkpt><trkpt lat="46.2372301" lon="8.2889538"><ele>1258.0</ele><time>2026-04-26T08:48:39.095Z</time></trkpt><trkpt lat="46.2373062" lon="8.2889026"><ele>1258.0</ele><time>2026-04-26T08:48:44.103Z</time></trkpt><trkpt lat="46.2373709" lon="8.2889052"><ele>1258.0</ele><time>2026-04-26T08:48:48.108Z</time></trkpt><trkpt lat="46.2374323" lon="8.2888617"><ele>1258.0</ele><time>2026-04-26T08:48:51.11Z</time></trkpt><trkpt lat="46.2374976" lon="8.2888157"><ele>1258.0</ele><time>2026-04-26T08:48:55.104Z</time></trkpt><trkpt lat="46.2375599" lon="8.2887902"><ele>1262.5714285714284</ele><time>2026-04-26T08:48:58.103Z</time></trkpt><trkpt lat="46.2376277" lon="8.2887753"><ele>1267.1428571428573</ele><time>2026-04-26T08:49:02.106Z</time></trkpt><trkpt lat="46.237692" lon="8.2887191"><ele>1271.7142857142858</ele><time>2026-04-26T08:49:07.099Z</time></trkpt><trkpt lat="46.2377508" lon="8.2886704"><ele>1276.2857142857142</ele><time>2026-04-26T08:49:12.1Z</time></trkpt><trkpt lat="46.2378161" lon="8.2886903"><ele>1280.8571428571427</ele><time>2026-04-26T08:49:17.102Z</time></trkpt><trkpt lat="46.2378826" lon="8.2886966"><ele>1285.4285714285716</ele><time>2026-04-26T08:49:22.102Z</time></trkpt><trkpt lat="46.2379662" lon="8.2886603"><ele>1290.0</ele><time>2026-04-26T08:49:26.104Z</time></trkpt><trkpt lat="46.2380356" lon="8.2886023"><ele>1290.0</ele><time>2026-04-26T08:49:29.098Z</time></trkpt><trkpt lat="46.2380723" lon="8.2885102"><ele>1290.0</ele><time>2026-04-26T08:49:33.096Z</time></trkpt><trkpt lat="46.2380907" lon="8.28842"><ele>1290.0</ele><time>2026-04-26T08:49:37.091Z</time></trkpt><trkpt lat="46.2380103" lon="8.2883581"><ele>1290.0</ele><time>2026-04-26T08:49:45.088Z</time></trkpt><trkpt lat="46.2379485" lon="8.2883068"><ele>1290.0</ele><time>2026-04-26T08:49:47.087Z</time></trkpt><trkpt lat="46.2378842" lon="8.2882857"><ele>1290.0</ele><time>2026-04-26T08:49:49.087Z</time></trkpt><trkpt lat="46.2378182" lon="8.2882508"><ele>1290.0</ele><time>2026-04-26T08:49:53.1Z</time></trkpt><trkpt lat="46.2377576" lon="8.288183"><ele>1290.0</ele><time>2026-04-26T08:49:57.095Z</time></trkpt><trkpt lat="46.2376882" lon="8.2881529"><ele>1290.0</ele><time>2026-04-26T08:50:01.103Z</time></trkpt><trkpt lat="46.2376413" lon="8.2880896"><ele>1290.0</ele><time>2026-04-26T08:50:11.104Z</time></trkpt><trkpt lat="46.2375823" lon="8.28805"><ele>1290.0</ele><time>2026-04-26T08:50:14.108Z</time></trkpt><trkpt lat="46.2375259" lon="8.2879857"><ele>1290.0</ele><time>2026-04-26T08:50:17.098Z</time></trkpt><trkpt lat="46.237468" lon="8.2879377"><ele>1290.0</ele><time>2026-04-26T08:50:20.107Z</time></trkpt><trkpt lat="46.2373994" lon="8.2878819"><ele>1290.0</ele><time>2026-04-26T08:50:23.107Z</time></trkpt><trkpt lat="46.237318" lon="8.2878377"><ele>1294.142857142857</ele><time>2026-04-26T08:50:27.121Z</time></trkpt><trkpt lat="46.2372363" lon="8.2878129"><ele>1298.2857142857142</ele><time>2026-04-26T08:50:31.104Z</time></trkpt><trkpt lat="46.2372779" lon="8.2878902"><ele>1302.4285714285713</ele><time>2026-04-26T08:50:45.113Z</time></trkpt><trkpt lat="46.2373409" lon="8.2878808"><ele>1306.5714285714284</ele><time>2026-04-26T08:50:49.106Z</time></trkpt><trkpt lat="46.2374042" lon="8.2878354"><ele>1310.7142857142858</ele><time>2026-04-26T08:50:53.107Z</time></trkpt><trkpt lat="46.2374666" lon="8.2877674"><ele>1314.8571428571427</ele><time>2026-04-26T08:50:57.104Z</time></trkpt><trkpt lat="46.2375429" lon="8.2877326"><ele>1319.0</ele><time>2026-04-26T08:51:02.103Z</time></trkpt><trkpt lat="46.2375994" lon="8.2876759"><ele>1319.0</ele><time>2026-04-26T08:51:05.101Z</time></trkpt><trkpt lat="46.2376627" lon="8.2876555"><ele>1319.0</ele><time>2026-04-26T08:51:09.11Z</time></trkpt><trkpt lat="46.2377409" lon="8.2875936"><ele>1319.0</ele><time>2026-04-26T08:51:13.111Z</time></trkpt><trkpt lat="46.2378163" lon="8.2875924"><ele>1319.0</ele><time>2026-04-26T08:51:17.103Z</time></trkpt><trkpt lat="46.2378744" lon="8.2875203"><ele>1319.0</ele><time>2026-04-26T08:51:20.104Z</time></trkpt><trkpt lat="46.2379443" lon="8.2874651"><ele>1319.0</ele><time>2026-04-26T08:51:25.102Z</time></trkpt><trkpt lat="46.2380099" lon="8.2874095"><ele>1318.9999999999998</ele><time>2026-04-26T08:51:29.105Z</time></trkpt><trkpt lat="46.2380606" lon="8.2873273"><ele>1319.0</ele><time>2026-04-26T08:51:32.107Z</time></trkpt><trkpt lat="46.2381118" lon="8.2872584"><ele>1319.0</ele><time>2026-04-26T08:51:36.118Z</time></trkpt><trkpt lat="46.2381871" lon="8.2872543"><ele>1319.0</ele><time>2026-04-26T08:51:43.105Z</time></trkpt><trkpt lat="46.2382549" lon="8.2872164"><ele>1319.0</ele><time>2026-04-26T08:51:47.103Z</time></trkpt><trkpt lat="46.2383204" lon="8.2872031"><ele>1318.9999999999998</ele><time>2026-04-26T08:51:51.095Z</time></trkpt><trkpt lat="46.2383866" lon="8.2872171"><ele>1319.0</ele><time>2026-04-26T08:51:55.096Z</time></trkpt><trkpt lat="46.2384634" lon="8.287188"><ele>1324.8333333333335</ele><time>2026-04-26T08:51:59.112Z</time></trkpt><trkpt lat="46.2385313" lon="8.2871962"><ele>1330.6666666666667</ele><time>2026-04-26T08:52:03.106Z</time></trkpt><trkpt lat="46.2385992" lon="8.2872296"><ele>1336.5</ele><time>2026-04-26T08:52:07.107Z</time></trkpt><trkpt lat="46.2386728" lon="8.2872293"><ele>1342.3333333333333</ele><time>2026-04-26T08:52:11.106Z</time></trkpt><trkpt lat="46.2387366" lon="8.2872082"><ele>1348.1666666666665</ele><time>2026-04-26T08:52:14.103Z</time></trkpt><trkpt lat="46.2388253" lon="8.2872101"><ele>1354.0</ele><time>2026-04-26T08:52:17.107Z</time></trkpt><trkpt lat="46.2389091" lon="8.2871917"><ele>1354.4285714285713</ele><time>2026-04-26T08:52:20.104Z</time></trkpt><trkpt lat="46.2389845" lon="8.287214"><ele>1354.857142857143</ele><time>2026-04-26T08:52:24.104Z</time></trkpt><trkpt lat="46.2390477" lon="8.2872073"><ele>1355.2857142857142</ele><time>2026-04-26T08:52:28.11Z</time></trkpt><trkpt lat="46.2391118" lon="8.2871893"><ele>1355.7142857142858</ele><time>2026-04-26T08:52:31.103Z</time></trkpt><trkpt lat="46.2391916" lon="8.2871829"><ele>1356.142857142857</ele><time>2026-04-26T08:52:34.108Z</time></trkpt><trkpt lat="46.2392568" lon="8.2871864"><ele>1356.5714285714284</ele><time>2026-04-26T08:52:37.107Z</time></trkpt><trkpt lat="46.2393277" lon="8.2871246"><ele>1357.0</ele><time>2026-04-26T08:52:41.097Z</time></trkpt><trkpt lat="46.2393895" lon="8.2870974"><ele>1357.0</ele><time>2026-04-26T08:52:45.098Z</time></trkpt><trkpt lat="46.2394398" lon="8.2870123"><ele>1357.0</ele><time>2026-04-26T08:52:49.098Z</time></trkpt><trkpt lat="46.2394967" lon="8.2869113"><ele>1357.0</ele><time>2026-04-26T08:52:52.101Z</time></trkpt><trkpt lat="46.2395418" lon="8.2868275"><ele>1357.0</ele><time>2026-04-26T08:52:54.104Z</time></trkpt><trkpt lat="46.2396084" lon="8.2867657"><ele>1357.0</ele><time>2026-04-26T08:52:57.098Z</time></trkpt><trkpt lat="46.2396759" lon="8.2867207"><ele>1357.0</ele><time>2026-04-26T08:53:00.104Z</time></trkpt><trkpt lat="46.239716" lon="8.2866324"><ele>1357.0</ele><time>2026-04-26T08:53:03.1Z</time></trkpt><trkpt lat="46.2397758" lon="8.2865264"><ele>1357.0</ele><time>2026-04-26T08:53:07.093Z</time></trkpt><trkpt lat="46.239814" lon="8.2864537"><ele>1357.0</ele><time>2026-04-26T08:53:09.101Z</time></trkpt><trkpt lat="46.2398507" lon="8.2863634"><ele>1357.0</ele><time>2026-04-26T08:53:11.105Z</time></trkpt><trkpt lat="46.2399018" lon="8.2862748"><ele>1357.0</ele><time>2026-04-26T08:53:14.1Z</time></trkpt><trkpt lat="46.239934" lon="8.2861876"><ele>1357.0</ele><time>2026-04-26T08:53:18.092Z</time></trkpt><trkpt lat="46.2399719" lon="8.2861038"><ele>1357.0</ele><time>2026-04-26T08:53:22.094Z</time></trkpt><trkpt lat="46.2400188" lon="8.2860112"><ele>1356.857142857143</ele><time>2026-04-26T08:53:24.089Z</time></trkpt><trkpt lat="46.2400489" lon="8.2859161"><ele>1356.7142857142858</ele><time>2026-04-26T08:53:26.097Z</time></trkpt><trkpt lat="46.2400488" lon="8.2858173"><ele>1356.5714285714284</ele><time>2026-04-26T08:53:29.088Z</time></trkpt><trkpt lat="46.240091" lon="8.285734"><ele>1356.4285714285716</ele><time>2026-04-26T08:53:33.09Z</time></trkpt><trkpt lat="46.2401572" lon="8.2856772"><ele>1356.2857142857144</ele><time>2026-04-26T08:53:37.088Z</time></trkpt><trkpt lat="46.2402049" lon="8.2855955"><ele>1356.142857142857</ele><time>2026-04-26T08:53:40.08Z</time></trkpt><trkpt lat="46.2402375" lon="8.2854925"><ele>1356.0</ele><time>2026-04-26T08:53:43.081Z</time></trkpt><trkpt lat="46.2402912" lon="8.2853978"><ele>1357.5</ele><time>2026-04-26T08:53:47.087Z</time></trkpt><trkpt lat="46.240327" lon="8.2852994"><ele>1359.0</ele><time>2026-04-26T08:53:50.085Z</time></trkpt><trkpt lat="46.2403857" lon="8.2852186"><ele>1360.5</ele><time>2026-04-26T08:53:53.079Z</time></trkpt><trkpt lat="46.2404204" lon="8.2851241"><ele>1362.0</ele><time>2026-04-26T08:53:56.078Z</time></trkpt><trkpt lat="46.2404521" lon="8.2850284"><ele>1363.5</ele><time>2026-04-26T08:53:58.085Z</time></trkpt><trkpt lat="46.2404882" lon="8.2849331"><ele>1365.0</ele><time>2026-04-26T08:54:00.082Z</time></trkpt><trkpt lat="46.240496" lon="8.2848306"><ele>1366.6666666666667</ele><time>2026-04-26T08:54:05.081Z</time></trkpt><trkpt lat="46.2405126" lon="8.2847327"><ele>1368.3333333333333</ele><time>2026-04-26T08:54:09.082Z</time></trkpt><trkpt lat="46.2405265" lon="8.2846279"><ele>1370.0</ele><time>2026-04-26T08:54:12.087Z</time></trkpt><trkpt lat="46.2405391" lon="8.2844933"><ele>1371.6666666666665</ele><time>2026-04-26T08:54:15.088Z</time></trkpt><trkpt lat="46.2405502" lon="8.2843702"><ele>1373.3333333333333</ele><time>2026-04-26T08:54:18.083Z</time></trkpt><trkpt lat="46.2405947" lon="8.2842502"><ele>1375.0</ele><time>2026-04-26T08:54:22.083Z</time></trkpt><trkpt lat="46.2405975" lon="8.2841539"><ele>1374.9999999999998</ele><time>2026-04-26T08:54:25.081Z</time></trkpt><trkpt lat="46.2405692" lon="8.2840593"><ele>1375.0</ele><time>2026-04-26T08:54:29.085Z</time></trkpt><trkpt lat="46.2405487" lon="8.2839541"><ele>1375.0</ele><time>2026-04-26T08:54:33.093Z</time></trkpt><trkpt lat="46.2405641" lon="8.2838595"><ele>1375.0</ele><time>2026-04-26T08:54:37.079Z</time></trkpt><trkpt lat="46.2405906" lon="8.2837665"><ele>1375.0</ele><time>2026-04-26T08:54:42.076Z</time></trkpt><trkpt lat="46.2405821" lon="8.2836502"><ele>1374.9999999999998</ele><time>2026-04-26T08:54:45.075Z</time></trkpt><trkpt lat="46.2405729" lon="8.2835453"><ele>1375.0</ele><time>2026-04-26T08:54:47.082Z</time></trkpt><trkpt lat="46.2405864" lon="8.2834397"><ele>1375.5</ele><time>2026-04-26T08:54:49.084Z</time></trkpt><trkpt lat="46.2406362" lon="8.2833451"><ele>1376.0</ele><time>2026-04-26T08:54:52.085Z</time></trkpt><trkpt lat="46.2406602" lon="8.283236"><ele>1376.5</ele><time>2026-04-26T08:54:55.09Z</time></trkpt><trkpt lat="46.2406797" lon="8.2831135"><ele>1377.0</ele><time>2026-04-26T08:54:58.086Z</time></trkpt><trkpt lat="46.240675" lon="8.2829996"><ele>1377.5</ele><time>2026-04-26T08:55:03.083Z</time></trkpt><trkpt lat="46.2407451" lon="8.2829677"><ele>1378.0</ele><time>2026-04-26T08:55:08.095Z</time></trkpt><trkpt lat="46.2408136" lon="8.2829694"><ele>1378.0</ele><time>2026-04-26T08:55:11.081Z</time></trkpt><trkpt lat="46.2408753" lon="8.2829205"><ele>1378.0</ele><time>2026-04-26T08:55:15.1Z</time></trkpt><trkpt lat="46.2408344" lon="8.2828407"><ele>1378.0</ele><time>2026-04-26T08:56:05.119Z</time></trkpt><trkpt lat="46.2408535" lon="8.282746"><ele>1378.0</ele><time>2026-04-26T08:56:52.088Z</time></trkpt><trkpt lat="46.2408151" lon="8.2828187"><ele>1378.0</ele><time>2026-04-26T09:04:03.139Z</time></trkpt><trkpt lat="46.2407506" lon="8.2828667"><ele>1378.0</ele><time>2026-04-26T09:04:06.127Z</time></trkpt><trkpt lat="46.2406909" lon="8.2829189"><ele>1378.0</ele><time>2026-04-26T09:04:09.12Z</time></trkpt><trkpt lat="46.240632" lon="8.2829998"><ele>1378.8333333333333</ele><time>2026-04-26T09:04:17.122Z</time></trkpt><trkpt lat="46.2406151" lon="8.2830978"><ele>1379.6666666666665</ele><time>2026-04-26T09:04:19.127Z</time></trkpt><trkpt lat="46.2405937" lon="8.283201"><ele>1380.5</ele><time>2026-04-26T09:04:21.121Z</time></trkpt><trkpt lat="46.2405771" lon="8.2833051"><ele>1381.3333333333333</ele><time>2026-04-26T09:04:23.12Z</time></trkpt><trkpt lat="46.2405708" lon="8.2834479"><ele>1382.1666666666667</ele><time>2026-04-26T09:04:25.125Z</time></trkpt><trkpt lat="46.2405678" lon="8.2835407"><ele>1383.0</ele><time>2026-04-26T09:04:26.12Z</time></trkpt><trkpt lat="46.2405503" lon="8.283641"><ele>1383.0</ele><time>2026-04-26T09:04:27.119Z</time></trkpt><trkpt lat="46.2405133" lon="8.2837382"><ele>1383.0</ele><time>2026-04-26T09:04:28.109Z</time></trkpt><trkpt lat="46.2405041" lon="8.2838402"><ele>1383.0</ele><time>2026-04-26T09:04:29.111Z</time></trkpt><trkpt lat="46.2404803" lon="8.2839285"><ele>1383.0</ele><time>2026-04-26T09:04:30.108Z</time></trkpt><trkpt lat="46.240472" lon="8.284033"><ele>1383.0</ele><time>2026-04-26T09:04:31.111Z</time></trkpt><trkpt lat="46.2404554" lon="8.2841267"><ele>1383.0</ele><time>2026-04-26T09:04:32.119Z</time></trkpt><trkpt lat="46.2404591" lon="8.2842905"><ele>1381.6666666666667</ele><time>2026-04-26T09:04:34.11Z</time></trkpt><trkpt lat="46.240482" lon="8.284416"><ele>1380.3333333333333</ele><time>2026-04-26T09:04:36.108Z</time></trkpt><trkpt lat="46.2405195" lon="8.2845805"><ele>1379.0</ele><time>2026-04-26T09:04:38.122Z</time></trkpt><trkpt lat="46.2405298" lon="8.2846736"><ele>1377.6666666666665</ele><time>2026-04-26T09:04:39.129Z</time></trkpt><trkpt lat="46.2405355" lon="8.2847648"><ele>1376.3333333333333</ele><time>2026-04-26T09:04:40.121Z</time></trkpt><trkpt lat="46.2405348" lon="8.2848639"><ele>1375.0</ele><time>2026-04-26T09:04:41.12Z</time></trkpt><trkpt lat="46.2405211" lon="8.2849688"><ele>1373.5714285714284</ele><time>2026-04-26T09:04:42.112Z</time></trkpt><trkpt lat="46.2405024" lon="8.2850726"><ele>1372.142857142857</ele><time>2026-04-26T09:04:43.114Z</time></trkpt><trkpt lat="46.2404738" lon="8.2851722"><ele>1370.7142857142858</ele><time>2026-04-26T09:04:44.109Z</time></trkpt><trkpt lat="46.2404438" lon="8.2852713"><ele>1369.2857142857142</ele><time>2026-04-26T09:04:45.105Z</time></trkpt><trkpt lat="46.2404099" lon="8.2853648"><ele>1367.857142857143</ele><time>2026-04-26T09:04:46.105Z</time></trkpt><trkpt lat="46.2403851" lon="8.2854516"><ele>1366.4285714285713</ele><time>2026-04-26T09:04:47.109Z</time></trkpt><trkpt lat="46.2403656" lon="8.2855429"><ele>1365.0</ele><time>2026-04-26T09:04:48.125Z</time></trkpt><trkpt lat="46.2403359" lon="8.2856286"><ele>1363.5</ele><time>2026-04-26T09:04:49.127Z</time></trkpt><trkpt lat="46.2403031" lon="8.2857095"><ele>1362.0</ele><time>2026-04-26T09:04:50.106Z</time></trkpt><trkpt lat="46.2402322" lon="8.2858514"><ele>1360.5</ele><time>2026-04-26T09:04:52.107Z</time></trkpt><trkpt lat="46.2401725" lon="8.2859276"><ele>1359.0</ele><time>2026-04-26T09:04:53.104Z</time></trkpt><trkpt lat="46.2401157" lon="8.2859986"><ele>1357.5</ele><time>2026-04-26T09:04:54.11Z</time></trkpt><trkpt lat="46.2400593" lon="8.2860765"><ele>1356.0</ele><time>2026-04-26T09:04:55.108Z</time></trkpt><trkpt lat="46.2400042" lon="8.2861549"><ele>1356.0</ele><time>2026-04-26T09:04:56.104Z</time></trkpt><trkpt lat="46.2399582" lon="8.2862287"><ele>1356.0</ele><time>2026-04-26T09:04:57.099Z</time></trkpt><trkpt lat="46.2398937" lon="8.2863564"><ele>1356.0</ele><time>2026-04-26T09:04:59.105Z</time></trkpt><trkpt lat="46.239814" lon="8.2864536"><ele>1356.0</ele><time>2026-04-26T09:05:01.119Z</time></trkpt><trkpt lat="46.2397604" lon="8.2865032"><ele>1356.0</ele><time>2026-04-26T09:05:02.109Z</time></trkpt><trkpt lat="46.2396756" lon="8.2865973"><ele>1356.1666666666667</ele><time>2026-04-26T09:05:04.109Z</time></trkpt><trkpt lat="46.2395752" lon="8.286682"><ele>1356.3333333333333</ele><time>2026-04-26T09:05:06.108Z</time></trkpt><trkpt lat="46.2395134" lon="8.2867298"><ele>1356.5</ele><time>2026-04-26T09:05:07.104Z</time></trkpt><trkpt lat="46.2394481" lon="8.2867812"><ele>1356.6666666666665</ele><time>2026-04-26T09:05:08.111Z</time></trkpt><trkpt lat="46.2393806" lon="8.2868454"><ele>1356.8333333333333</ele><time>2026-04-26T09:05:09.109Z</time></trkpt><trkpt lat="46.2393053" lon="8.2869282"><ele>1357.0</ele><time>2026-04-26T09:05:10.112Z</time></trkpt><trkpt lat="46.2392384" lon="8.2870095"><ele>1357.0</ele><time>2026-04-26T09:05:11.106Z</time></trkpt><trkpt lat="46.2391609" lon="8.2870725"><ele>1357.0</ele><time>2026-04-26T09:05:12.11Z</time></trkpt><trkpt lat="46.239095" lon="8.2870901"><ele>1357.0</ele><time>2026-04-26T09:05:13.111Z</time></trkpt><trkpt lat="46.2390229" lon="8.2870779"><ele>1357.0</ele><time>2026-04-26T09:05:14.11Z</time></trkpt><trkpt lat="46.238961" lon="8.2870455"><ele>1357.0</ele><time>2026-04-26T09:05:15.116Z</time></trkpt><trkpt lat="46.2389015" lon="8.2870081"><ele>1357.0</ele><time>2026-04-26T09:05:16.118Z</time></trkpt><trkpt lat="46.2387863" lon="8.28694"><ele>1356.5</ele><time>2026-04-26T09:05:18.108Z</time></trkpt><trkpt lat="46.2386649" lon="8.2869329"><ele>1356.0</ele><time>2026-04-26T09:05:20.102Z</time></trkpt><trkpt lat="46.2385983" lon="8.2869437"><ele>1355.5</ele><time>2026-04-26T09:05:21.118Z</time></trkpt><trkpt lat="46.2385264" lon="8.2869566"><ele>1355.0</ele><time>2026-04-26T09:05:22.104Z</time></trkpt><trkpt lat="46.2384505" lon="8.2869766"><ele>1354.5</ele><time>2026-04-26T09:05:23.108Z</time></trkpt><trkpt lat="46.2383714" lon="8.2869761"><ele>1354.0</ele><time>2026-04-26T09:05:24.11Z</time></trkpt><trkpt lat="46.2382951" lon="8.2869804"><ele>1354.0</ele><time>2026-04-26T09:05:25.112Z</time></trkpt><trkpt lat="46.2382202" lon="8.2869828"><ele>1354.0</ele><time>2026-04-26T09:05:26.11Z</time></trkpt><trkpt lat="46.2381407" lon="8.2870044"><ele>1354.0</ele><time>2026-04-26T09:05:27.115Z</time></trkpt><trkpt lat="46.2380694" lon="8.2870315"><ele>1354.0</ele><time>2026-04-26T09:05:28.112Z</time></trkpt><trkpt lat="46.238003" lon="8.2870867"><ele>1354.0</ele><time>2026-04-26T09:05:29.118Z</time></trkpt><trkpt lat="46.2379341" lon="8.2871632"><ele>1354.0</ele><time>2026-04-26T09:05:30.11Z</time></trkpt><trkpt lat="46.2378556" lon="8.2872474"><ele>1345.25</ele><time>2026-04-26T09:05:31.114Z</time></trkpt><trkpt lat="46.2377711" lon="8.2873259"><ele>1336.5</ele><time>2026-04-26T09:05:32.114Z</time></trkpt><trkpt lat="46.237674" lon="8.2874065"><ele>1327.75</ele><time>2026-04-26T09:05:33.112Z</time></trkpt><trkpt lat="46.2375729" lon="8.287498"><ele>1319.0</ele><time>2026-04-26T09:05:34.111Z</time></trkpt><trkpt lat="46.2374547" lon="8.2875876"><ele>1319.0</ele><time>2026-04-26T09:05:35.113Z</time></trkpt><trkpt lat="46.237327" lon="8.2876677"><ele>1319.0</ele><time>2026-04-26T09:05:36.105Z</time></trkpt><trkpt lat="46.2372124" lon="8.2877358"><ele>1319.0</ele><time>2026-04-26T09:05:37.11Z</time></trkpt><trkpt lat="46.2371122" lon="8.2877915"><ele>1319.0</ele><time>2026-04-26T09:05:38.119Z</time></trkpt><trkpt lat="46.2370492" lon="8.2878338"><ele>1319.0</ele><time>2026-04-26T09:05:39.106Z</time></trkpt><trkpt lat="46.2369963" lon="8.2879295"><ele>1319.2</ele><time>2026-04-26T09:05:41.108Z</time></trkpt><trkpt lat="46.2370978" lon="8.2879862"><ele>1319.4</ele><time>2026-04-26T09:05:44.113Z</time></trkpt><trkpt lat="46.2372082" lon="8.2880313"><ele>1319.6</ele><time>2026-04-26T09:05:46.105Z</time></trkpt><trkpt lat="46.2373163" lon="8.2881006"><ele>1319.8</ele><time>2026-04-26T09:05:48.11Z</time></trkpt><trkpt lat="46.2373878" lon="8.2881562"><ele>1320.0</ele><time>2026-04-26T09:05:49.113Z</time></trkpt><trkpt lat="46.2374649" lon="8.2882134"><ele>1314.0</ele><time>2026-04-26T09:05:50.109Z</time></trkpt><trkpt lat="46.2375522" lon="8.2882723"><ele>1308.0</ele><time>2026-04-26T09:05:51.114Z</time></trkpt><trkpt lat="46.2376363" lon="8.2883153"><ele>1302.0</ele><time>2026-04-26T09:05:52.13Z</time></trkpt><trkpt lat="46.2377168" lon="8.2883421"><ele>1296.0</ele><time>2026-04-26T09:05:53.114Z</time></trkpt><trkpt lat="46.2378091" lon="8.2883524"><ele>1290.0</ele><time>2026-04-26T09:05:54.107Z</time></trkpt><trkpt lat="46.2378988" lon="8.2883643"><ele>1290.0</ele><time>2026-04-26T09:05:55.11Z</time></trkpt><trkpt lat="46.2379652" lon="8.2883715"><ele>1290.0</ele><time>2026-04-26T09:05:56.114Z</time></trkpt><trkpt lat="46.2380345" lon="8.2883966"><ele>1290.0</ele><time>2026-04-26T09:06:00.114Z</time></trkpt><trkpt lat="46.2379459" lon="8.2884577"><ele>1290.0</ele><time>2026-04-26T09:06:06.111Z</time></trkpt><trkpt lat="46.2378175" lon="8.2885148"><ele>1290.0</ele><time>2026-04-26T09:06:08.12Z</time></trkpt><trkpt lat="46.2377321" lon="8.2885376"><ele>1290.0</ele><time>2026-04-26T09:06:09.109Z</time></trkpt><trkpt lat="46.237639" lon="8.2885567"><ele>1290.0</ele><time>2026-04-26T09:06:10.107Z</time></trkpt><trkpt lat="46.2375321" lon="8.2885963"><ele>1290.0</ele><time>2026-04-26T09:06:11.107Z</time></trkpt><trkpt lat="46.2374184" lon="8.2886472"><ele>1290.0</ele><time>2026-04-26T09:06:12.104Z</time></trkpt><trkpt lat="46.2373178" lon="8.2887044"><ele>1290.0</ele><time>2026-04-26T09:06:13.106Z</time></trkpt><trkpt lat="46.2371929" lon="8.2887833"><ele>1289.75</ele><time>2026-04-26T09:06:14.118Z</time></trkpt><trkpt lat="46.2370711" lon="8.2888804"><ele>1289.5</ele><time>2026-04-26T09:06:15.109Z</time></trkpt><trkpt lat="46.236965" lon="8.2889745"><ele>1289.25</ele><time>2026-04-26T09:06:16.109Z</time></trkpt><trkpt lat="46.23688" lon="8.2890643"><ele>1289.0</ele><time>2026-04-26T09:06:17.106Z</time></trkpt><trkpt lat="46.2368094" lon="8.2891389"><ele>1282.8</ele><time>2026-04-26T09:06:18.111Z</time></trkpt><trkpt lat="46.2367273" lon="8.2891906"><ele>1276.6000000000001</ele><time>2026-04-26T09:06:19.112Z</time></trkpt><trkpt lat="46.2366446" lon="8.2892294"><ele>1270.4</ele><time>2026-04-26T09:06:20.109Z</time></trkpt><trkpt lat="46.2365591" lon="8.2892399"><ele>1264.2</ele><time>2026-04-26T09:06:21.105Z</time></trkpt><trkpt lat="46.236453" lon="8.2892461"><ele>1258.0</ele><time>2026-04-26T09:06:22.109Z</time></trkpt><trkpt lat="46.2363452" lon="8.2892414"><ele>1256.5</ele><time>2026-04-26T09:06:23.128Z</time></trkpt><trkpt lat="46.2362229" lon="8.289229"><ele>1255.0</ele><time>2026-04-26T09:06:24.112Z</time></trkpt><trkpt lat="46.2360986" lon="8.2892172"><ele>1253.5</ele><time>2026-04-26T09:06:25.118Z</time></trkpt><trkpt lat="46.235981" lon="8.2892151"><ele>1252.0</ele><time>2026-04-26T09:06:26.113Z</time></trkpt><trkpt lat="46.2358627" lon="8.2892368"><ele>1252.0</ele><time>2026-04-26T09:06:27.112Z</time></trkpt><trkpt lat="46.2357505" lon="8.2892998"><ele>1252.0</ele><time>2026-04-26T09:06:28.112Z</time></trkpt><trkpt lat="46.2356283" lon="8.289369"><ele>1252.0</ele><time>2026-04-26T09:06:29.116Z</time></trkpt><trkpt lat="46.2355166" lon="8.2894338"><ele>1252.0</ele><time>2026-04-26T09:06:30.124Z</time></trkpt><trkpt lat="46.2354315" lon="8.2895105"><ele>1251.4</ele><time>2026-04-26T09:06:31.122Z</time></trkpt><trkpt lat="46.2353457" lon="8.289585"><ele>1250.8000000000002</ele><time>2026-04-26T09:06:32.121Z</time></trkpt><trkpt lat="46.2352695" lon="8.2896682"><ele>1250.2</ele><time>2026-04-26T09:06:33.121Z</time></trkpt><trkpt lat="46.2351974" lon="8.2897721"><ele>1249.6000000000001</ele><time>2026-04-26T09:06:34.114Z</time></trkpt><trkpt lat="46.2351313" lon="8.2898979"><ele>1249.0</ele><time>2026-04-26T09:06:35.119Z</time></trkpt><trkpt lat="46.2350719" lon="8.2900248"><ele>1246.8</ele><time>2026-04-26T09:06:36.115Z</time></trkpt><trkpt lat="46.2350202" lon="8.2901537"><ele>1244.6000000000001</ele><time>2026-04-26T09:06:37.118Z</time></trkpt><trkpt lat="46.2349725" lon="8.2902966"><ele>1242.4</ele><time>2026-04-26T09:06:38.122Z</time></trkpt><trkpt lat="46.2349248" lon="8.2904461"><ele>1240.2</ele><time>2026-04-26T09:06:39.123Z</time></trkpt><trkpt lat="46.2348688" lon="8.2905908"><ele>1238.0</ele><time>2026-04-26T09:06:40.116Z</time></trkpt><trkpt lat="46.2348117" lon="8.2907138"><ele>1235.6666666666667</ele><time>2026-04-26T09:06:41.117Z</time></trkpt><trkpt lat="46.2347521" lon="8.2908118"><ele>1233.3333333333335</ele><time>2026-04-26T09:06:42.119Z</time></trkpt><trkpt lat="46.2346913" lon="8.290888"><ele>1231.0</ele><time>2026-04-26T09:06:43.12Z</time></trkpt><trkpt lat="46.2346258" lon="8.2909344"><ele>1228.6666666666667</ele><time>2026-04-26T09:06:44.115Z</time></trkpt><trkpt lat="46.2345586" lon="8.2909504"><ele>1226.3333333333333</ele><time>2026-04-26T09:06:45.118Z</time></trkpt><trkpt lat="46.2344874" lon="8.2909302"><ele>1224.0</ele><time>2026-04-26T09:06:46.129Z</time></trkpt><trkpt lat="46.2344175" lon="8.2908648"><ele>1224.0</ele><time>2026-04-26T09:06:47.129Z</time></trkpt><trkpt lat="46.2343664" lon="8.2907811"><ele>1224.0</ele><time>2026-04-26T09:06:48.124Z</time></trkpt><trkpt lat="46.2343109" lon="8.2906718"><ele>1224.0</ele><time>2026-04-26T09:06:50.126Z</time></trkpt><trkpt lat="46.2342617" lon="8.2906001"><ele>1224.0</ele><time>2026-04-26T09:06:52.126Z</time></trkpt><trkpt lat="46.2342053" lon="8.2905369"><ele>1224.0</ele><time>2026-04-26T09:06:54.14Z</time></trkpt><trkpt lat="46.2341474" lon="8.2904924"><ele>1224.0</ele><time>2026-04-26T09:06:56.124Z</time></trkpt><trkpt lat="46.2340726" lon="8.2904519"><ele>1223.6666666666667</ele><time>2026-04-26T09:06:59.133Z</time></trkpt><trkpt lat="46.2339942" lon="8.2903892"><ele>1223.3333333333333</ele><time>2026-04-26T09:07:02.126Z</time></trkpt><trkpt lat="46.2339448" lon="8.2903201"><ele>1223.0</ele><time>2026-04-26T09:07:04.122Z</time></trkpt><trkpt lat="46.2339009" lon="8.2902294"><ele>1222.6666666666665</ele><time>2026-04-26T09:07:06.123Z</time></trkpt><trkpt lat="46.2338394" lon="8.2901521"><ele>1222.3333333333333</ele><time>2026-04-26T09:07:08.127Z</time></trkpt><trkpt lat="46.2337693" lon="8.2900857"><ele>1222.0</ele><time>2026-04-26T09:07:10.126Z</time></trkpt><trkpt lat="46.2337054" lon="8.2900597"><ele>1222.0</ele><time>2026-04-26T09:07:12.118Z</time></trkpt><trkpt lat="46.2336226" lon="8.2901228"><ele>1222.0</ele><time>2026-04-26T09:09:07.117Z</time></trkpt><trkpt lat="46.2335112" lon="8.2901669"><ele>1222.0</ele><time>2026-04-26T09:09:09.122Z</time></trkpt><trkpt lat="46.2334441" lon="8.2901706"><ele>1222.0</ele><time>2026-04-26T09:09:10.125Z</time></trkpt><trkpt lat="46.2333714" lon="8.2901533"><ele>1222.0</ele><time>2026-04-26T09:09:11.125Z</time></trkpt><trkpt lat="46.2332863" lon="8.2901213"><ele>1222.0</ele><time>2026-04-26T09:09:12.125Z</time></trkpt><trkpt lat="46.2331938" lon="8.2900946"><ele>1221.0</ele><time>2026-04-26T09:09:13.128Z</time></trkpt><trkpt lat="46.2330966" lon="8.2900855"><ele>1220.0</ele><time>2026-04-26T09:09:14.128Z</time></trkpt><trkpt lat="46.2329944" lon="8.2901045"><ele>1219.0</ele><time>2026-04-26T09:09:15.127Z</time></trkpt><trkpt lat="46.2328939" lon="8.2901496"><ele>1218.0</ele><time>2026-04-26T09:09:16.131Z</time></trkpt><trkpt lat="46.2327933" lon="8.290194"><ele>1217.0</ele><time>2026-04-26T09:09:17.124Z</time></trkpt><trkpt lat="46.2326914" lon="8.2902213"><ele>1217.0</ele><time>2026-04-26T09:09:18.128Z</time></trkpt><trkpt lat="46.2325942" lon="8.2902212"><ele>1217.0</ele><time>2026-04-26T09:09:19.127Z</time></trkpt><trkpt lat="46.2325027" lon="8.2902096"><ele>1217.0</ele><time>2026-04-26T09:09:20.124Z</time></trkpt><trkpt lat="46.2324188" lon="8.2902043"><ele>1217.0</ele><time>2026-04-26T09:09:21.121Z</time></trkpt><trkpt lat="46.2323497" lon="8.2902059"><ele>1217.0</ele><time>2026-04-26T09:09:22.116Z</time></trkpt><trkpt lat="46.2322586" lon="8.2902316"><ele>1217.0</ele><time>2026-04-26T09:09:24.125Z</time></trkpt><trkpt lat="46.2321883" lon="8.2902557"><ele>1218.7142857142858</ele><time>2026-04-26T09:09:26.125Z</time></trkpt><trkpt lat="46.2321243" lon="8.2902701"><ele>1220.4285714285716</ele><time>2026-04-26T09:09:28.13Z</time></trkpt><trkpt lat="46.2320558" lon="8.2902848"><ele>1222.1428571428573</ele><time>2026-04-26T09:09:30.133Z</time></trkpt><trkpt lat="46.2319908" lon="8.2902853"><ele>1223.857142857143</ele><time>2026-04-26T09:09:32.121Z</time></trkpt><trkpt lat="46.2319052" lon="8.2902455"><ele>1225.5714285714287</ele><time>2026-04-26T09:09:35.112Z</time></trkpt><trkpt lat="46.2318395" lon="8.2901893"><ele>1227.2857142857144</ele><time>2026-04-26T09:09:38.117Z</time></trkpt><trkpt lat="46.2317853" lon="8.2901415"><ele>1229.0</ele><time>2026-04-26T09:09:41.1Z</time></trkpt><trkpt lat="46.2317344" lon="8.2900578"><ele>1229.0000000000002</ele><time>2026-04-26T09:09:45.095Z</time></trkpt><trkpt lat="46.2316408" lon="8.2900224"><ele>1229.0</ele><time>2026-04-26T09:09:48.098Z</time></trkpt><trkpt lat="46.2315775" lon="8.2900005"><ele>1229.0</ele><time>2026-04-26T09:09:51.106Z</time></trkpt><trkpt lat="46.2315061" lon="8.2900195"><ele>1229.0</ele><time>2026-04-26T09:09:56.107Z</time></trkpt><trkpt lat="46.2314371" lon="8.2899906"><ele>1229.0</ele><time>2026-04-26T09:09:59.114Z</time></trkpt><trkpt lat="46.2313716" lon="8.2899498"><ele>1229.0000000000002</ele><time>2026-04-26T09:10:02.113Z</time></trkpt><trkpt lat="46.2313108" lon="8.2899751"><ele>1229.0</ele><time>2026-04-26T09:10:06.107Z</time></trkpt><trkpt lat="46.2312285" lon="8.2899355"><ele>1229.8333333333335</ele><time>2026-04-26T09:10:09.112Z</time></trkpt><trkpt lat="46.2311175" lon="8.2899677"><ele>1230.6666666666667</ele><time>2026-04-26T09:10:11.11Z</time></trkpt><trkpt lat="46.2310496" lon="8.2899789"><ele>1231.5</ele><time>2026-04-26T09:10:12.107Z</time></trkpt><trkpt lat="46.2309538" lon="8.2899638"><ele>1232.3333333333333</ele><time>2026-04-26T09:10:14.11Z</time></trkpt><trkpt lat="46.2308886" lon="8.2899394"><ele>1233.1666666666665</ele><time>2026-04-26T09:10:18.11Z</time></trkpt><trkpt lat="46.2308611" lon="8.2898563"><ele>1234.0</ele><time>2026-04-26T09:11:22.063Z</time></trkpt><trkpt lat="46.2307754" lon="8.2898891"><ele>1234.0</ele><time>2026-04-26T09:11:23.112Z</time></trkpt><trkpt lat="46.2306921" lon="8.2899353"><ele>1234.0</ele><time>2026-04-26T09:11:24.091Z</time></trkpt><trkpt lat="46.2307403" lon="8.2900862"><ele>1234.0</ele><time>2026-04-26T09:11:27.092Z</time></trkpt><trkpt lat="46.2307777" lon="8.2902039"><ele>1234.0</ele><time>2026-04-26T09:11:28.094Z</time></trkpt><trkpt lat="46.2306991" lon="8.2901086"><ele>1234.0</ele><time>2026-04-26T09:11:55.111Z</time></trkpt><trkpt lat="46.2306192" lon="8.290145"><ele>1233.8</ele><time>2026-04-26T09:12:01.107Z</time></trkpt><trkpt lat="46.230521" lon="8.2901816"><ele>1233.6000000000001</ele><time>2026-04-26T09:12:02.106Z</time></trkpt><trkpt lat="46.2304003" lon="8.290212"><ele>1233.4</ele><time>2026-04-26T09:12:03.119Z</time></trkpt><trkpt lat="46.2303051" lon="8.2902101"><ele>1233.2</ele><time>2026-04-26T09:12:04.105Z</time></trkpt><trkpt lat="46.2302178" lon="8.2902043"><ele>1233.0</ele><time>2026-04-26T09:12:05.098Z</time></trkpt><trkpt lat="46.2301305" lon="8.2901994"><ele>1233.0</ele><time>2026-04-26T09:12:06.097Z</time></trkpt><trkpt lat="46.2300376" lon="8.2902169"><ele>1233.0</ele><time>2026-04-26T09:12:07.101Z</time></trkpt><trkpt lat="46.2299182" lon="8.2902293"><ele>1233.0</ele><time>2026-04-26T09:12:08.113Z</time></trkpt><trkpt lat="46.2298317" lon="8.2902522"><ele>1233.0</ele><time>2026-04-26T09:12:09.103Z</time></trkpt><trkpt lat="46.2297684" lon="8.2903013"><ele>1233.0</ele><time>2026-04-26T09:12:10.105Z</time></trkpt><trkpt lat="46.2296725" lon="8.2904122"><ele>1232.1666666666667</ele><time>2026-04-26T09:12:12.102Z</time></trkpt><trkpt lat="46.2295916" lon="8.2904904"><ele>1231.3333333333333</ele><time>2026-04-26T09:12:14.099Z</time></trkpt><trkpt lat="46.2295256" lon="8.2904866"><ele>1230.5</ele><time>2026-04-26T09:12:16.101Z</time></trkpt><trkpt lat="46.2294622" lon="8.2905885"><ele>1229.6666666666665</ele><time>2026-04-26T09:12:19.109Z</time></trkpt><trkpt lat="46.2294094" lon="8.2906507"><ele>1228.8333333333333</ele><time>2026-04-26T09:12:21.106Z</time></trkpt><trkpt lat="46.2293884" lon="8.2907844"><ele>1228.0</ele><time>2026-04-26T09:12:23.09Z</time></trkpt><trkpt lat="46.2293068" lon="8.2908452"><ele>1225.6</ele><time>2026-04-26T09:12:25.095Z</time></trkpt><trkpt lat="46.229184" lon="8.2908653"><ele>1223.1999999999998</ele><time>2026-04-26T09:12:27.106Z</time></trkpt><trkpt lat="46.2291105" lon="8.2908665"><ele>1220.8</ele><time>2026-04-26T09:12:28.103Z</time></trkpt><trkpt lat="46.2289757" lon="8.2909101"><ele>1218.3999999999999</ele><time>2026-04-26T09:12:30.126Z</time></trkpt><trkpt lat="46.2289038" lon="8.2909682"><ele>1216.0</ele><time>2026-04-26T09:12:31.108Z</time></trkpt><trkpt lat="46.2288345" lon="8.2910561"><ele>1215.2</ele><time>2026-04-26T09:12:32.111Z</time></trkpt><trkpt lat="46.2287788" lon="8.2911308"><ele>1214.3999999999999</ele><time>2026-04-26T09:12:33.111Z</time></trkpt><trkpt lat="46.2287084" lon="8.2912268"><ele>1213.6</ele><time>2026-04-26T09:12:35.105Z</time></trkpt><trkpt lat="46.2286261" lon="8.2913038"><ele>1212.8</ele><time>2026-04-26T09:12:37.109Z</time></trkpt><trkpt lat="46.2285716" lon="8.2914051"><ele>1212.0</ele><time>2026-04-26T09:12:39.11Z</time></trkpt><trkpt lat="46.2284924" lon="8.2914997"><ele>1209.0</ele><time>2026-04-26T09:12:41.114Z</time></trkpt><trkpt lat="46.2283994" lon="8.2915562"><ele>1206.0</ele><time>2026-04-26T09:12:43.119Z</time></trkpt><trkpt lat="46.2283088" lon="8.2915465"><ele>1203.0</ele><time>2026-04-26T09:12:45.102Z</time></trkpt><trkpt lat="46.2282201" lon="8.2915141"><ele>1200.0</ele><time>2026-04-26T09:12:47.117Z</time></trkpt><trkpt lat="46.2281196" lon="8.2915016"><ele>1197.0</ele><time>2026-04-26T09:12:49.119Z</time></trkpt><trkpt lat="46.2280469" lon="8.2914787"><ele>1198.4</ele><time>2026-04-26T09:12:52.12Z</time></trkpt><trkpt lat="46.2279934" lon="8.2913877"><ele>1199.8000000000002</ele><time>2026-04-26T09:12:55.112Z</time></trkpt><trkpt lat="46.2279269" lon="8.2912844"><ele>1201.2</ele><time>2026-04-26T09:12:57.113Z</time></trkpt><trkpt lat="46.2278319" lon="8.2912225"><ele>1202.6000000000001</ele><time>2026-04-26T09:12:59.098Z</time></trkpt><trkpt lat="46.2277388" lon="8.2911945"><ele>1204.0</ele><time>2026-04-26T09:13:01.103Z</time></trkpt><trkpt lat="46.2276461" lon="8.2911645"><ele>1204.0</ele><time>2026-04-26T09:13:03.105Z</time></trkpt><trkpt lat="46.2275703" lon="8.2911405"><ele>1204.0</ele><time>2026-04-26T09:13:05.119Z</time></trkpt><trkpt lat="46.2275052" lon="8.2910913"><ele>1204.0</ele><time>2026-04-26T09:13:07.112Z</time></trkpt><trkpt lat="46.2274451" lon="8.2910263"><ele>1204.0</ele><time>2026-04-26T09:13:09.112Z</time></trkpt><trkpt lat="46.2273829" lon="8.2909989"><ele>1204.0</ele><time>2026-04-26T09:13:11.114Z</time></trkpt><trkpt lat="46.2273133" lon="8.2909844"><ele>1204.0</ele><time>2026-04-26T09:13:14.105Z</time></trkpt><trkpt lat="46.2272295" lon="8.2909582"><ele>1204.0</ele><time>2026-04-26T09:13:17.111Z</time></trkpt><trkpt lat="46.2271477" lon="8.2909562"><ele>1204.6666666666665</ele><time>2026-04-26T09:13:20.104Z</time></trkpt><trkpt lat="46.2270718" lon="8.2909686"><ele>1205.3333333333333</ele><time>2026-04-26T09:13:23.113Z</time></trkpt><trkpt lat="46.2269852" lon="8.290958"><ele>1206.0</ele><time>2026-04-26T09:13:27.107Z</time></trkpt><trkpt lat="46.2269392" lon="8.2908917"><ele>1206.6666666666667</ele><time>2026-04-26T09:13:30.109Z</time></trkpt><trkpt lat="46.2268576" lon="8.2908338"><ele>1207.3333333333335</ele><time>2026-04-26T09:13:32.098Z</time></trkpt><trkpt lat="46.2267912" lon="8.2908242"><ele>1208.0</ele><time>2026-04-26T09:13:34.101Z</time></trkpt><trkpt lat="46.2267161" lon="8.290766"><ele>1208.0</ele><time>2026-04-26T09:13:39.103Z</time></trkpt><trkpt lat="46.2266495" lon="8.2906886"><ele>1208.0</ele><time>2026-04-26T09:13:42.106Z</time></trkpt><trkpt lat="46.2265836" lon="8.2906579"><ele>1208.0</ele><time>2026-04-26T09:13:53.115Z</time></trkpt><trkpt lat="46.2265146" lon="8.2906683"><ele>1208.0</ele><time>2026-04-26T09:14:13.099Z</time></trkpt><trkpt lat="46.2263957" lon="8.2906385"><ele>1208.0</ele><time>2026-04-26T09:14:20.078Z</time></trkpt><trkpt lat="46.2263056" lon="8.2905822"><ele>1208.0</ele><time>2026-04-26T09:14:21.087Z</time></trkpt><trkpt lat="46.2262688" lon="8.2906949"><ele>1210.2857142857144</ele><time>2026-04-26T09:14:25.098Z</time></trkpt><trkpt lat="46.2262289" lon="8.290779"><ele>1212.5714285714287</ele><time>2026-04-26T09:14:28.103Z</time></trkpt><trkpt lat="46.2261706" lon="8.290815"><ele>1214.857142857143</ele><time>2026-04-26T09:14:31.096Z</time></trkpt><trkpt lat="46.2261016" lon="8.2907765"><ele>1217.1428571428573</ele><time>2026-04-26T09:14:34.093Z</time></trkpt><trkpt lat="46.2260313" lon="8.290811"><ele>1219.4285714285716</ele><time>2026-04-26T09:14:37.118Z</time></trkpt><trkpt lat="46.2259727" lon="8.2908567"><ele>1221.7142857142858</ele><time>2026-04-26T09:14:42.094Z</time></trkpt><trkpt lat="46.2259403" lon="8.2909375"><ele>1224.0</ele><time>2026-04-26T09:14:48.103Z</time></trkpt><trkpt lat="46.2258872" lon="8.2910039"><ele>1224.0</ele><time>2026-04-26T09:14:57.091Z</time></trkpt><trkpt lat="46.2258146" lon="8.291"><ele>1224.0</ele><time>2026-04-26T09:14:59.098Z</time></trkpt><trkpt lat="46.2257251" lon="8.2910046"><ele>1224.0</ele><time>2026-04-26T09:15:01.096Z</time></trkpt><trkpt lat="46.2256502" lon="8.2909797"><ele>1224.0</ele><time>2026-04-26T09:15:03.097Z</time></trkpt><trkpt lat="46.2255878" lon="8.2909666"><ele>1224.0</ele><time>2026-04-26T09:15:08.11Z</time></trkpt><trkpt lat="46.2256245" lon="8.2910468"><ele>1224.0</ele><time>2026-04-26T09:15:11.093Z</time></trkpt><trkpt lat="46.2255416" lon="8.2911511"><ele>1229.1666666666667</ele><time>2026-04-26T09:15:13.096Z</time></trkpt><trkpt lat="46.2254887" lon="8.291211"><ele>1234.3333333333333</ele><time>2026-04-26T09:15:15.094Z</time></trkpt><trkpt lat="46.2254032" lon="8.2912546"><ele>1239.5</ele><time>2026-04-26T09:15:17.097Z</time></trkpt><trkpt lat="46.2253162" lon="8.2912836"><ele>1244.6666666666665</ele><time>2026-04-26T09:15:19.106Z</time></trkpt><trkpt lat="46.225224" lon="8.2912936"><ele>1249.8333333333333</ele><time>2026-04-26T09:15:21.104Z</time></trkpt><trkpt lat="46.2251566" lon="8.2912981"><ele>1255.0</ele><time>2026-04-26T09:15:23.092Z</time></trkpt><trkpt lat="46.2250897" lon="8.291324"><ele>1255.0</ele><time>2026-04-26T09:15:26.094Z</time></trkpt><trkpt lat="46.2250389" lon="8.2913801"><ele>1255.0</ele><time>2026-04-26T09:15:29.1Z</time></trkpt><trkpt lat="46.2249988" lon="8.2914673"><ele>1255.0</ele><time>2026-04-26T09:15:34.101Z</time></trkpt><trkpt lat="46.2249251" lon="8.2915238"><ele>1255.0</ele><time>2026-04-26T09:15:40.105Z</time></trkpt><trkpt lat="46.2248441" lon="8.2915548"><ele>1255.0</ele><time>2026-04-26T09:15:42.093Z</time></trkpt><trkpt lat="46.2247612" lon="8.2915454"><ele>1255.0</ele><time>2026-04-26T09:15:43.092Z</time></trkpt><trkpt lat="46.2246836" lon="8.2915577"><ele>1256.0</ele><time>2026-04-26T09:15:45.102Z</time></trkpt><trkpt lat="46.2246122" lon="8.2915314"><ele>1257.0</ele><time>2026-04-26T09:15:48.1Z</time></trkpt><trkpt lat="46.2245497" lon="8.2915102"><ele>1258.0</ele><time>2026-04-26T09:15:51.096Z</time></trkpt><trkpt lat="46.2244899" lon="8.2915891"><ele>1259.0</ele><time>2026-04-26T09:16:01.091Z</time></trkpt><trkpt lat="46.2244121" lon="8.2916179"><ele>1260.0</ele><time>2026-04-26T09:16:07.078Z</time></trkpt><trkpt lat="46.2243399" lon="8.2916603"><ele>1261.0</ele><time>2026-04-26T09:16:09.089Z</time></trkpt><trkpt lat="46.2243245" lon="8.2917693"><ele>1261.0</ele><time>2026-04-26T09:16:13.099Z</time></trkpt><trkpt lat="46.2243093" lon="8.2918779"><ele>1261.0</ele><time>2026-04-26T09:16:19.085Z</time></trkpt><trkpt lat="46.2242298" lon="8.2919348"><ele>1261.0</ele><time>2026-04-26T09:16:21.09Z</time></trkpt><trkpt lat="46.2241434" lon="8.2919778"><ele>1261.0</ele><time>2026-04-26T09:16:23.094Z</time></trkpt><trkpt lat="46.2240684" lon="8.2920205"><ele>1261.0</ele><time>2026-04-26T09:16:26.096Z</time></trkpt><trkpt lat="46.2239986" lon="8.2919934"><ele>1261.0</ele><time>2026-04-26T09:16:29.088Z</time></trkpt><trkpt lat="46.2239316" lon="8.2920409"><ele>1265.1666666666665</ele><time>2026-04-26T09:16:32.091Z</time></trkpt><trkpt lat="46.2238803" lon="8.2921081"><ele>1269.3333333333333</ele><time>2026-04-26T09:16:36.104Z</time></trkpt><trkpt lat="46.2237962" lon="8.2921511"><ele>1273.5</ele><time>2026-04-26T09:16:40.101Z</time></trkpt><trkpt lat="46.2236882" lon="8.2921838"><ele>1277.6666666666667</ele><time>2026-04-26T09:16:45.089Z</time></trkpt><trkpt lat="46.2236109" lon="8.292198"><ele>1281.8333333333335</ele><time>2026-04-26T09:16:47.102Z</time></trkpt><trkpt lat="46.2235169" lon="8.2921844"><ele>1286.0</ele><time>2026-04-26T09:16:49.098Z</time></trkpt><trkpt lat="46.2234316" lon="8.2921718"><ele>1286.0</ele><time>2026-04-26T09:16:51.098Z</time></trkpt><trkpt lat="46.2233199" lon="8.2921678"><ele>1286.0</ele><time>2026-04-26T09:16:54.099Z</time></trkpt><trkpt lat="46.2232496" lon="8.2921787"><ele>1286.0</ele><time>2026-04-26T09:16:56.098Z</time></trkpt><trkpt lat="46.2231578" lon="8.2921687"><ele>1286.0</ele><time>2026-04-26T09:16:58.094Z</time></trkpt><trkpt lat="46.2230554" lon="8.2921473"><ele>1286.0</ele><time>2026-04-26T09:17:00.091Z</time></trkpt><trkpt lat="46.2229473" lon="8.2921229"><ele>1288.4285714285713</ele><time>2026-04-26T09:17:02.09Z</time></trkpt><trkpt lat="46.2228541" lon="8.2921134"><ele>1290.857142857143</ele><time>2026-04-26T09:17:04.101Z</time></trkpt><trkpt lat="46.222793" lon="8.2921602"><ele>1293.2857142857142</ele><time>2026-04-26T09:17:07.093Z</time></trkpt><trkpt lat="46.2227417" lon="8.2922135"><ele>1295.7142857142858</ele><time>2026-04-26T09:17:10.099Z</time></trkpt><trkpt lat="46.2226719" lon="8.292237"><ele>1298.142857142857</ele><time>2026-04-26T09:17:13.097Z</time></trkpt><trkpt lat="46.2225989" lon="8.2922509"><ele>1300.5714285714287</ele><time>2026-04-26T09:17:18.095Z</time></trkpt><trkpt lat="46.2225337" lon="8.2922348"><ele>1303.0</ele><time>2026-04-26T09:17:21.1Z</time></trkpt><trkpt lat="46.2224569" lon="8.2922038"><ele>1303.0</ele><time>2026-04-26T09:17:25.104Z</time></trkpt><trkpt lat="46.2223738" lon="8.2922156"><ele>1303.0</ele><time>2026-04-26T09:17:28.107Z</time></trkpt><trkpt lat="46.2222978" lon="8.2921862"><ele>1303.0</ele><time>2026-04-26T09:17:31.101Z</time></trkpt><trkpt lat="46.2222338" lon="8.2921525"><ele>1303.0</ele><time>2026-04-26T09:17:33.097Z</time></trkpt><trkpt lat="46.2221508" lon="8.2921123"><ele>1303.0</ele><time>2026-04-26T09:17:35.101Z</time></trkpt><trkpt lat="46.2220836" lon="8.292096"><ele>1303.0</ele><time>2026-04-26T09:17:41.101Z</time></trkpt><trkpt lat="46.2219886" lon="8.2920713"><ele>1303.0</ele><time>2026-04-26T09:17:50.109Z</time></trkpt><trkpt lat="46.221912" lon="8.2920432"><ele>1303.0</ele><time>2026-04-26T09:17:52.097Z</time></trkpt><trkpt lat="46.2218282" lon="8.2920489"><ele>1303.0</ele><time>2026-04-26T09:17:54.094Z</time></trkpt><trkpt lat="46.2217658" lon="8.2920618"><ele>1303.0</ele><time>2026-04-26T09:17:56.086Z</time></trkpt><trkpt lat="46.2216798" lon="8.2920401"><ele>1303.0</ele><time>2026-04-26T09:17:59.092Z</time></trkpt><trkpt lat="46.2216112" lon="8.2920254"><ele>1303.0</ele><time>2026-04-26T09:18:01.096Z</time></trkpt><trkpt lat="46.2215345" lon="8.2920118"><ele>1302.0</ele><time>2026-04-26T09:18:04.089Z</time></trkpt><trkpt lat="46.2214715" lon="8.2919905"><ele>1301.0</ele><time>2026-04-26T09:18:12.1Z</time></trkpt><trkpt lat="46.2214063" lon="8.2919888"><ele>1300.0</ele><time>2026-04-26T09:18:16.103Z</time></trkpt><trkpt lat="46.2213402" lon="8.2919081"><ele>1299.0</ele><time>2026-04-26T09:18:22.093Z</time></trkpt><trkpt lat="46.2212758" lon="8.2918777"><ele>1298.0</ele><time>2026-04-26T09:18:24.105Z</time></trkpt><trkpt lat="46.2212027" lon="8.2918788"><ele>1297.0</ele><time>2026-04-26T09:18:27.106Z</time></trkpt><trkpt lat="46.2211124" lon="8.291852"><ele>1296.0</ele><time>2026-04-26T09:18:30.1Z</time></trkpt><trkpt lat="46.221032" lon="8.2918021"><ele>1296.0</ele><time>2026-04-26T09:18:32.1Z</time></trkpt><trkpt lat="46.2209449" lon="8.2917589"><ele>1296.0</ele><time>2026-04-26T09:18:34.096Z</time></trkpt><trkpt lat="46.2208815" lon="8.2916785"><ele>1296.0</ele><time>2026-04-26T09:18:36.092Z</time></trkpt><trkpt lat="46.2208163" lon="8.2916205"><ele>1296.0</ele><time>2026-04-26T09:18:38.095Z</time></trkpt><trkpt lat="46.2207141" lon="8.2915959"><ele>1296.0</ele><time>2026-04-26T09:18:40.095Z</time></trkpt><trkpt lat="46.2206331" lon="8.2915983"><ele>1296.0</ele><time>2026-04-26T09:18:42.099Z</time></trkpt><trkpt lat="46.2205379" lon="8.29164"><ele>1296.4</ele><time>2026-04-26T09:18:44.102Z</time></trkpt><trkpt lat="46.2204126" lon="8.29169"><ele>1296.8</ele><time>2026-04-26T09:18:46.106Z</time></trkpt><trkpt lat="46.2203329" lon="8.2917242"><ele>1297.2</ele><time>2026-04-26T09:18:47.109Z</time></trkpt><trkpt lat="46.2202504" lon="8.2917567"><ele>1297.6000000000001</ele><time>2026-04-26T09:18:48.104Z</time></trkpt><trkpt lat="46.2201636" lon="8.2917871"><ele>1298.0</ele><time>2026-04-26T09:18:49.104Z</time></trkpt><trkpt lat="46.2200714" lon="8.2918075"><ele>1298.0</ele><time>2026-04-26T09:18:50.1Z</time></trkpt><trkpt lat="46.2199801" lon="8.2918267"><ele>1298.0</ele><time>2026-04-26T09:18:51.102Z</time></trkpt><trkpt lat="46.2198993" lon="8.2918398"><ele>1298.0</ele><time>2026-04-26T09:18:52.1Z</time></trkpt><trkpt lat="46.219818" lon="8.291841"><ele>1298.0</ele><time>2026-04-26T09:18:53.099Z</time></trkpt><trkpt lat="46.2197409" lon="8.2918406"><ele>1298.0</ele><time>2026-04-26T09:18:54.096Z</time></trkpt><trkpt lat="46.2196235" lon="8.2918768"><ele>1298.0</ele><time>2026-04-26T09:18:56.11Z</time></trkpt><trkpt lat="46.219534" lon="8.2918542"><ele>1298.0</ele><time>2026-04-26T09:18:58.114Z</time></trkpt><trkpt lat="46.2194711" lon="8.2918148"><ele>1298.0</ele><time>2026-04-26T09:19:00.113Z</time></trkpt><trkpt lat="46.2194125" lon="8.291776"><ele>1298.0</ele><time>2026-04-26T09:19:02.11Z</time></trkpt><trkpt lat="46.2193262" lon="8.291755"><ele>1298.0</ele><time>2026-04-26T09:19:05.097Z</time></trkpt><trkpt lat="46.2192535" lon="8.2917465"><ele>1298.0</ele><time>2026-04-26T09:19:07.094Z</time></trkpt><trkpt lat="46.2191804" lon="8.2917304"><ele>1298.0</ele><time>2026-04-26T09:19:09.096Z</time></trkpt><trkpt lat="46.219097" lon="8.2917126"><ele>1298.0</ele><time>2026-04-26T09:19:11.089Z</time></trkpt><trkpt lat="46.2190299" lon="8.2917339"><ele>1298.0</ele><time>2026-04-26T09:19:14.093Z</time></trkpt><trkpt lat="46.2189476" lon="8.2917646"><ele>1298.0</ele><time>2026-04-26T09:19:18.098Z</time></trkpt><trkpt lat="46.2188766" lon="8.2917593"><ele>1298.0</ele><time>2026-04-26T09:19:22.108Z</time></trkpt><trkpt lat="46.218811" lon="8.2917371"><ele>1298.0</ele><time>2026-04-26T09:19:24.108Z</time></trkpt><trkpt lat="46.2187139" lon="8.2917216"><ele>1301.8000000000002</ele><time>2026-04-26T09:19:26.108Z</time></trkpt><trkpt lat="46.2186204" lon="8.2917389"><ele>1305.6</ele><time>2026-04-26T09:19:28.109Z</time></trkpt><trkpt lat="46.2185302" lon="8.2917852"><ele>1309.4</ele><time>2026-04-26T09:19:30.106Z</time></trkpt><trkpt lat="46.2184288" lon="8.2918273"><ele>1313.1999999999998</ele><time>2026-04-26T09:19:32.103Z</time></trkpt><trkpt lat="46.2183447" lon="8.2918621"><ele>1317.0</ele><time>2026-04-26T09:19:34.107Z</time></trkpt><trkpt lat="46.2182691" lon="8.2918964"><ele>1317.0</ele><time>2026-04-26T09:19:36.104Z</time></trkpt><trkpt lat="46.2181935" lon="8.2919507"><ele>1317.0</ele><time>2026-04-26T09:19:38.111Z</time></trkpt><trkpt lat="46.2181045" lon="8.292034"><ele>1317.0</ele><time>2026-04-26T09:19:40.105Z</time></trkpt><trkpt lat="46.2180735" lon="8.2921234"><ele>1317.0</ele><time>2026-04-26T09:19:42.106Z</time></trkpt><trkpt lat="46.2180106" lon="8.2921699"><ele>1317.0</ele><time>2026-04-26T09:19:44.095Z</time></trkpt><trkpt lat="46.2179399" lon="8.2922204"><ele>1317.0</ele><time>2026-04-26T09:19:46.113Z</time></trkpt><trkpt lat="46.2178614" lon="8.2922936"><ele>1315.3999999999999</ele><time>2026-04-26T09:19:48.095Z</time></trkpt><trkpt lat="46.2177459" lon="8.2923648"><ele>1313.8</ele><time>2026-04-26T09:19:50.092Z</time></trkpt><trkpt lat="46.2176858" lon="8.2923988"><ele>1312.2</ele><time>2026-04-26T09:19:51.094Z</time></trkpt><trkpt lat="46.2175907" lon="8.2924913"><ele>1310.6</ele><time>2026-04-26T09:19:53.088Z</time></trkpt><trkpt lat="46.2175423" lon="8.2925831"><ele>1309.0</ele><time>2026-04-26T09:19:55.09Z</time></trkpt><trkpt lat="46.2175018" lon="8.2926573"><ele>1309.0</ele><time>2026-04-26T09:19:57.092Z</time></trkpt><trkpt lat="46.2174279" lon="8.2927379"><ele>1309.0</ele><time>2026-04-26T09:19:59.095Z</time></trkpt><trkpt lat="46.2173588" lon="8.2928375"><ele>1309.0</ele><time>2026-04-26T09:20:01.089Z</time></trkpt><trkpt lat="46.2172946" lon="8.2929289"><ele>1309.0</ele><time>2026-04-26T09:20:03.092Z</time></trkpt><trkpt lat="46.2172293" lon="8.2930246"><ele>1309.0</ele><time>2026-04-26T09:20:05.091Z</time></trkpt><trkpt lat="46.2171529" lon="8.2931118"><ele>1308.6666666666665</ele><time>2026-04-26T09:20:07.096Z</time></trkpt><trkpt lat="46.2171002" lon="8.293184"><ele>1308.3333333333333</ele><time>2026-04-26T09:20:09.093Z</time></trkpt><trkpt lat="46.217018" lon="8.293225"><ele>1308.0</ele><time>2026-04-26T09:20:11.089Z</time></trkpt><trkpt lat="46.2169429" lon="8.2932834"><ele>1307.6666666666667</ele><time>2026-04-26T09:20:13.097Z</time></trkpt><trkpt lat="46.2168741" lon="8.2933214"><ele>1307.3333333333335</ele><time>2026-04-26T09:20:15.087Z</time></trkpt><trkpt lat="46.216796" lon="8.2933848"><ele>1307.0</ele><time>2026-04-26T09:20:17.106Z</time></trkpt><trkpt lat="46.2166963" lon="8.2934629"><ele>1307.0</ele><time>2026-04-26T09:20:19.087Z</time></trkpt><trkpt lat="46.2166284" lon="8.2935686"><ele>1307.0</ele><time>2026-04-26T09:20:21.078Z</time></trkpt><trkpt lat="46.2165693" lon="8.2936488"><ele>1307.0</ele><time>2026-04-26T09:20:23.076Z</time></trkpt><trkpt lat="46.2164947" lon="8.2937101"><ele>1307.0</ele><time>2026-04-26T09:20:25.078Z</time></trkpt><trkpt lat="46.2164374" lon="8.2937555"><ele>1307.0</ele><time>2026-04-26T09:20:27.066Z</time></trkpt><trkpt lat="46.2163305" lon="8.2937966"><ele>1307.0</ele><time>2026-04-26T09:20:29.075Z</time></trkpt><trkpt lat="46.2162586" lon="8.2938049"><ele>1305.0</ele><time>2026-04-26T09:20:30.087Z</time></trkpt><trkpt lat="46.2161635" lon="8.2938211"><ele>1303.0</ele><time>2026-04-26T09:20:31.091Z</time></trkpt><trkpt lat="46.2160654" lon="8.293861"><ele>1301.0</ele><time>2026-04-26T09:20:32.084Z</time></trkpt><trkpt lat="46.2159841" lon="8.2938487"><ele>1299.0</ele><time>2026-04-26T09:20:33.099Z</time></trkpt><trkpt lat="46.2158669" lon="8.2938753"><ele>1297.0</ele><time>2026-04-26T09:20:35.09Z</time></trkpt><trkpt lat="46.2157816" lon="8.2939374"><ele>1297.0</ele><time>2026-04-26T09:20:37.093Z</time></trkpt><trkpt lat="46.2157053" lon="8.2940243"><ele>1297.0</ele><time>2026-04-26T09:20:39.108Z</time></trkpt><trkpt lat="46.2156038" lon="8.2941132"><ele>1297.0</ele><time>2026-04-26T09:20:41.101Z</time></trkpt><trkpt lat="46.2154924" lon="8.2941843"><ele>1297.0</ele><time>2026-04-26T09:20:43.096Z</time></trkpt><trkpt lat="46.2154298" lon="8.294218"><ele>1297.0</ele><time>2026-04-26T09:20:44.092Z</time></trkpt><trkpt lat="46.2153251" lon="8.2942875"><ele>1301.8</ele><time>2026-04-26T09:20:46.102Z</time></trkpt><trkpt lat="46.2152712" lon="8.2943764"><ele>1306.6</ele><time>2026-04-26T09:20:48.112Z</time></trkpt><trkpt lat="46.2151979" lon="8.2944797"><ele>1311.3999999999999</ele><time>2026-04-26T09:20:50.102Z</time></trkpt><trkpt lat="46.2151391" lon="8.2945987"><ele>1316.1999999999998</ele><time>2026-04-26T09:20:52.097Z</time></trkpt><trkpt lat="46.2150905" lon="8.2947122"><ele>1321.0</ele><time>2026-04-26T09:20:54.114Z</time></trkpt><trkpt lat="46.2150276" lon="8.2948265"><ele>1321.0</ele><time>2026-04-26T09:20:56.089Z</time></trkpt><trkpt lat="46.2149661" lon="8.2949393"><ele>1321.0</ele><time>2026-04-26T09:20:58.099Z</time></trkpt><trkpt lat="46.2149258" lon="8.2950741"><ele>1321.0</ele><time>2026-04-26T09:21:00.101Z</time></trkpt><trkpt lat="46.2149078" lon="8.2952064"><ele>1321.0</ele><time>2026-04-26T09:21:02.098Z</time></trkpt><trkpt lat="46.2149018" lon="8.2953235"><ele>1321.0</ele><time>2026-04-26T09:21:04.103Z</time></trkpt><trkpt lat="46.2148979" lon="8.2954447"><ele>1321.0</ele><time>2026-04-26T09:21:06.108Z</time></trkpt><trkpt lat="46.2148899" lon="8.295564"><ele>1321.0</ele><time>2026-04-26T09:21:09.104Z</time></trkpt><trkpt lat="46.2148438" lon="8.2956333"><ele>1321.0</ele><time>2026-04-26T09:21:11.104Z</time></trkpt><trkpt lat="46.2147733" lon="8.2957366"><ele>1321.0</ele><time>2026-04-26T09:21:14.111Z</time></trkpt><trkpt lat="46.2147086" lon="8.2958036"><ele>1321.0</ele><time>2026-04-26T09:21:16.121Z</time></trkpt><trkpt lat="46.2146605" lon="8.2959247"><ele>1321.0</ele><time>2026-04-26T09:21:19.122Z</time></trkpt><trkpt lat="46.2146037" lon="8.2960189"><ele>1319.6</ele><time>2026-04-26T09:21:21.1Z</time></trkpt><trkpt lat="46.2145384" lon="8.296138"><ele>1318.1999999999998</ele><time>2026-04-26T09:21:23.102Z</time></trkpt><trkpt lat="46.2144717" lon="8.2962365"><ele>1316.8000000000002</ele><time>2026-04-26T09:21:25.108Z</time></trkpt><trkpt lat="46.2144342" lon="8.2963334"><ele>1315.4</ele><time>2026-04-26T09:21:27.113Z</time></trkpt><trkpt lat="46.2143844" lon="8.2964607"><ele>1314.0</ele><time>2026-04-26T09:21:30.112Z</time></trkpt><trkpt lat="46.2143054" lon="8.2965871"><ele>1314.0</ele><time>2026-04-26T09:21:32.099Z</time></trkpt><trkpt lat="46.2142486" lon="8.2966709"><ele>1314.0</ele><time>2026-04-26T09:21:33.106Z</time></trkpt><trkpt lat="46.2141805" lon="8.2967469"><ele>1314.0</ele><time>2026-04-26T09:21:34.105Z</time></trkpt><trkpt lat="46.2141035" lon="8.296817"><ele>1314.0</ele><time>2026-04-26T09:21:35.109Z</time></trkpt><trkpt lat="46.2140179" lon="8.2968778"><ele>1314.0</ele><time>2026-04-26T09:21:36.11Z</time></trkpt><trkpt lat="46.2139375" lon="8.2969369"><ele>1314.0</ele><time>2026-04-26T09:21:37.11Z</time></trkpt><trkpt lat="46.213851" lon="8.2970052"><ele>1315.0</ele><time>2026-04-26T09:21:38.104Z</time></trkpt><trkpt lat="46.2137762" lon="8.2970798"><ele>1316.0</ele><time>2026-04-26T09:21:39.098Z</time></trkpt><trkpt lat="46.2137173" lon="8.2971512"><ele>1317.0</ele><time>2026-04-26T09:21:40.103Z</time></trkpt><trkpt lat="46.2136737" lon="8.2972234"><ele>1318.0</ele><time>2026-04-26T09:21:41.107Z</time></trkpt><trkpt lat="46.2136392" lon="8.2973101"><ele>1319.0</ele><time>2026-04-26T09:21:42.103Z</time></trkpt><trkpt lat="46.2135977" lon="8.2973908"><ele>1320.0</ele><time>2026-04-26T09:21:43.103Z</time></trkpt><trkpt lat="46.2135542" lon="8.2974698"><ele>1321.0</ele><time>2026-04-26T09:21:44.105Z</time></trkpt><trkpt lat="46.2135044" lon="8.2975433"><ele>1321.0</ele><time>2026-04-26T09:21:45.101Z</time></trkpt><trkpt lat="46.2134511" lon="8.2976038"><ele>1321.0</ele><time>2026-04-26T09:21:46.109Z</time></trkpt><trkpt lat="46.2133947" lon="8.2976564"><ele>1321.0</ele><time>2026-04-26T09:21:47.113Z</time></trkpt><trkpt lat="46.2133311" lon="8.2977042"><ele>1321.0</ele><time>2026-04-26T09:21:48.11Z</time></trkpt><trkpt lat="46.21327" lon="8.2977388"><ele>1321.0</ele><time>2026-04-26T09:21:49.105Z</time></trkpt><trkpt lat="46.2131785" lon="8.2977953"><ele>1321.0</ele><time>2026-04-26T09:21:51.103Z</time></trkpt><trkpt lat="46.2131152" lon="8.2978748"><ele>1321.0</ele><time>2026-04-26T09:21:54.118Z</time></trkpt><trkpt lat="46.2131953" lon="8.2979224"><ele>1321.0</ele><time>2026-04-26T09:22:01.118Z</time></trkpt><trkpt lat="46.2131475" lon="8.2978557"><ele>1321.0</ele><time>2026-04-26T09:22:16.096Z</time></trkpt><trkpt lat="46.2131789" lon="8.2977203"><ele>1321.0</ele><time>2026-04-26T09:22:18.101Z</time></trkpt><trkpt lat="46.213234" lon="8.2976697"><ele>1321.0</ele><time>2026-04-26T09:22:19.1Z</time></trkpt><trkpt lat="46.2133037" lon="8.297596"><ele>1321.0</ele><time>2026-04-26T09:22:21.121Z</time></trkpt><trkpt lat="46.2132983" lon="8.2974882"><ele>1321.0</ele><time>2026-04-26T09:22:25.101Z</time></trkpt><trkpt lat="46.213378" lon="8.2973792"><ele>1321.0</ele><time>2026-04-26T09:22:28.116Z</time></trkpt><trkpt lat="46.2134596" lon="8.297296"><ele>1321.0</ele><time>2026-04-26T09:22:30.11Z</time></trkpt><trkpt lat="46.2135275" lon="8.2972481"><ele>1321.0</ele><time>2026-04-26T09:23:49.114Z</time></trkpt><trkpt lat="46.2136056" lon="8.2972736"><ele>1321.0</ele><time>2026-04-26T09:23:54.121Z</time></trkpt><trkpt lat="46.2136631" lon="8.2972034"><ele>1321.0</ele><time>2026-04-26T09:23:57.106Z</time></trkpt><trkpt lat="46.2137368" lon="8.2971853"><ele>1319.8333333333333</ele><time>2026-04-26T09:24:00.103Z</time></trkpt><trkpt lat="46.213793" lon="8.2971214"><ele>1318.6666666666665</ele><time>2026-04-26T09:24:03.098Z</time></trkpt><trkpt lat="46.2138361" lon="8.2970486"><ele>1317.5</ele><time>2026-04-26T09:24:06.111Z</time></trkpt><trkpt lat="46.2139223" lon="8.2969468"><ele>1316.3333333333333</ele><time>2026-04-26T09:24:08.106Z</time></trkpt><trkpt lat="46.2139965" lon="8.2969106"><ele>1315.1666666666667</ele><time>2026-04-26T09:24:10.108Z</time></trkpt><trkpt lat="46.214063" lon="8.2968766"><ele>1314.0</ele><time>2026-04-26T09:24:14.104Z</time></trkpt><trkpt lat="46.2141286" lon="8.296845"><ele>1314.0</ele><time>2026-04-26T09:24:17.113Z</time></trkpt><trkpt lat="46.2141835" lon="8.2967945"><ele>1314.0</ele><time>2026-04-26T09:24:19.103Z</time></trkpt><trkpt lat="46.2142392" lon="8.2967446"><ele>1314.0</ele><time>2026-04-26T09:24:21.109Z</time></trkpt><trkpt lat="46.2142898" lon="8.2966549"><ele>1314.0</ele><time>2026-04-26T09:24:23.106Z</time></trkpt><trkpt lat="46.2143327" lon="8.2965857"><ele>1314.0</ele><time>2026-04-26T09:24:25.119Z</time></trkpt><trkpt lat="46.2143799" lon="8.2965244"><ele>1314.0</ele><time>2026-04-26T09:24:28.111Z</time></trkpt><trkpt lat="46.2144249" lon="8.2964257"><ele>1314.0</ele><time>2026-04-26T09:24:33.114Z</time></trkpt><trkpt lat="46.2144675" lon="8.2963086"><ele>1318.1666666666667</ele><time>2026-04-26T09:24:36.112Z</time></trkpt><trkpt lat="46.2144909" lon="8.296198"><ele>1322.3333333333333</ele><time>2026-04-26T09:24:38.114Z</time></trkpt><trkpt lat="46.2145286" lon="8.2961083"><ele>1326.5</ele><time>2026-04-26T09:24:40.108Z</time></trkpt><trkpt lat="46.2145799" lon="8.2960225"><ele>1330.6666666666665</ele><time>2026-04-26T09:24:42.111Z</time></trkpt><trkpt lat="46.2146402" lon="8.2959045"><ele>1334.8333333333333</ele><time>2026-04-26T09:24:44.105Z</time></trkpt><trkpt lat="46.2146815" lon="8.2958346"><ele>1339.0</ele><time>2026-04-26T09:24:45.107Z</time></trkpt><trkpt lat="46.2147277" lon="8.2957559"><ele>1339.0</ele><time>2026-04-26T09:24:46.116Z</time></trkpt><trkpt lat="46.2147754" lon="8.2956904"><ele>1339.0</ele><time>2026-04-26T09:24:47.109Z</time></trkpt><trkpt lat="46.2148247" lon="8.295633"><ele>1339.0</ele><time>2026-04-26T09:24:48.111Z</time></trkpt><trkpt lat="46.2148655" lon="8.2955603"><ele>1339.0</ele><time>2026-04-26T09:24:49.112Z</time></trkpt><trkpt lat="46.2148976" lon="8.2954334"><ele>1339.0</ele><time>2026-04-26T09:24:51.115Z</time></trkpt><trkpt lat="46.214922" lon="8.295294"><ele>1339.0</ele><time>2026-04-26T09:24:53.112Z</time></trkpt><trkpt lat="46.2149535" lon="8.2951514"><ele>1341.0</ele><time>2026-04-26T09:24:55.102Z</time></trkpt><trkpt lat="46.2150181" lon="8.2950476"><ele>1343.0</ele><time>2026-04-26T09:24:57.095Z</time></trkpt><trkpt lat="46.2150803" lon="8.2949237"><ele>1345.0</ele><time>2026-04-26T09:24:59.101Z</time></trkpt><trkpt lat="46.2151364" lon="8.2947918"><ele>1347.0</ele><time>2026-04-26T09:25:01.102Z</time></trkpt><trkpt lat="46.2151885" lon="8.2947127"><ele>1349.0</ele><time>2026-04-26T09:25:02.099Z</time></trkpt><trkpt lat="46.2152482" lon="8.2946429"><ele>1349.0</ele><time>2026-04-26T09:25:03.094Z</time></trkpt><trkpt lat="46.2152998" lon="8.2945521"><ele>1349.0</ele><time>2026-04-26T09:25:04.1Z</time></trkpt><trkpt lat="46.2153478" lon="8.2944737"><ele>1349.0</ele><time>2026-04-26T09:25:05.1Z</time></trkpt><trkpt lat="46.2154042" lon="8.2943814"><ele>1349.0</ele><time>2026-04-26T09:25:06.106Z</time></trkpt><trkpt lat="46.2154532" lon="8.2943117"><ele>1349.0</ele><time>2026-04-26T09:25:07.1Z</time></trkpt><trkpt lat="46.2154994" lon="8.2942273"><ele>1349.0</ele><time>2026-04-26T09:25:08.106Z</time></trkpt><trkpt lat="46.2155521" lon="8.2941417"><ele>1349.0</ele><time>2026-04-26T09:25:09.096Z</time></trkpt><trkpt lat="46.2156109" lon="8.2940547"><ele>1349.0</ele><time>2026-04-26T09:25:10.096Z</time></trkpt><trkpt lat="46.2156647" lon="8.2939899"><ele>1349.0</ele><time>2026-04-26T09:25:11.101Z</time></trkpt><trkpt lat="46.2157209" lon="8.2939434"><ele>1349.0</ele><time>2026-04-26T09:25:12.098Z</time></trkpt><trkpt lat="46.2158258" lon="8.2938727"><ele>1349.0</ele><time>2026-04-26T09:25:14.107Z</time></trkpt><trkpt lat="46.2159144" lon="8.2938064"><ele>1349.0</ele><time>2026-04-26T09:25:16.087Z</time></trkpt><trkpt lat="46.2159706" lon="8.2937626"><ele>1346.8333333333335</ele><time>2026-04-26T09:25:17.088Z</time></trkpt><trkpt lat="46.2160903" lon="8.2936932"><ele>1344.6666666666667</ele><time>2026-04-26T09:25:19.093Z</time></trkpt><trkpt lat="46.2161507" lon="8.2936552"><ele>1342.5</ele><time>2026-04-26T09:25:20.092Z</time></trkpt><trkpt lat="46.2162129" lon="8.2936088"><ele>1340.3333333333333</ele><time>2026-04-26T09:25:21.094Z</time></trkpt><trkpt lat="46.2162701" lon="8.2935551"><ele>1338.1666666666665</ele><time>2026-04-26T09:25:22.091Z</time></trkpt><trkpt lat="46.216361" lon="8.2934922"><ele>1336.0</ele><time>2026-04-26T09:25:24.096Z</time></trkpt><trkpt lat="46.216437" lon="8.293475"><ele>1330.1999999999998</ele><time>2026-04-26T09:25:26.101Z</time></trkpt><trkpt lat="46.2165245" lon="8.2934265"><ele>1324.3999999999999</ele><time>2026-04-26T09:25:28.106Z</time></trkpt><trkpt lat="46.2165841" lon="8.2933745"><ele>1318.6</ele><time>2026-04-26T09:25:29.106Z</time></trkpt><trkpt lat="46.2166823" lon="8.293342"><ele>1312.8</ele><time>2026-04-26T09:25:31.106Z</time></trkpt><trkpt lat="46.2167921" lon="8.2932952"><ele>1307.0</ele><time>2026-04-26T09:25:33.105Z</time></trkpt><trkpt lat="46.2168863" lon="8.2932558"><ele>1307.0</ele><time>2026-04-26T09:25:35.103Z</time></trkpt><trkpt lat="46.2169917" lon="8.2931879"><ele>1307.0</ele><time>2026-04-26T09:25:37.106Z</time></trkpt><trkpt lat="46.2170506" lon="8.2931267"><ele>1307.0</ele><time>2026-04-26T09:25:38.112Z</time></trkpt><trkpt lat="46.2171111" lon="8.2930608"><ele>1307.0</ele><time>2026-04-26T09:25:39.105Z</time></trkpt><trkpt lat="46.2171617" lon="8.2930006"><ele>1307.0</ele><time>2026-04-26T09:25:40.108Z</time></trkpt><trkpt lat="46.2172038" lon="8.2929271"><ele>1307.0</ele><time>2026-04-26T09:25:41.109Z</time></trkpt><trkpt lat="46.2172466" lon="8.2928481"><ele>1307.3999999999999</ele><time>2026-04-26T09:25:42.112Z</time></trkpt><trkpt lat="46.2172914" lon="8.292772"><ele>1307.8</ele><time>2026-04-26T09:25:43.103Z</time></trkpt><trkpt lat="46.2173493" lon="8.292636"><ele>1308.2</ele><time>2026-04-26T09:25:45.104Z</time></trkpt><trkpt lat="46.2174339" lon="8.292604"><ele>1308.6</ele><time>2026-04-26T09:25:47.106Z</time></trkpt><trkpt lat="46.217534" lon="8.2925335"><ele>1309.0</ele><time>2026-04-26T09:25:49.103Z</time></trkpt><trkpt lat="46.2176338" lon="8.2924159"><ele>1309.0</ele><time>2026-04-26T09:25:51.105Z</time></trkpt><trkpt lat="46.2177368" lon="8.2923438"><ele>1309.0</ele><time>2026-04-26T09:25:53.106Z</time></trkpt><trkpt lat="46.2178338" lon="8.2922927"><ele>1309.0</ele><time>2026-04-26T09:25:55.104Z</time></trkpt><trkpt lat="46.2179376" lon="8.2922188"><ele>1309.0</ele><time>2026-04-26T09:25:57.105Z</time></trkpt><trkpt lat="46.2180379" lon="8.2921091"><ele>1310.142857142857</ele><time>2026-04-26T09:25:59.109Z</time></trkpt><trkpt lat="46.2180881" lon="8.2920509"><ele>1311.2857142857142</ele><time>2026-04-26T09:26:00.1Z</time></trkpt><trkpt lat="46.2181461" lon="8.2919916"><ele>1312.4285714285716</ele><time>2026-04-26T09:26:01.105Z</time></trkpt><trkpt lat="46.2182085" lon="8.2919573"><ele>1313.5714285714284</ele><time>2026-04-26T09:26:02.103Z</time></trkpt><trkpt lat="46.2182636" lon="8.2919052"><ele>1314.7142857142858</ele><time>2026-04-26T09:26:03.108Z</time></trkpt><trkpt lat="46.2183228" lon="8.2918541"><ele>1315.857142857143</ele><time>2026-04-26T09:26:04.103Z</time></trkpt><trkpt lat="46.2183887" lon="8.2918012"><ele>1317.0</ele><time>2026-04-26T09:26:05.097Z</time></trkpt><trkpt lat="46.2184911" lon="8.2917212"><ele>1317.0</ele><time>2026-04-26T09:26:07.103Z</time></trkpt><trkpt lat="46.2185828" lon="8.2916885"><ele>1317.0</ele><time>2026-04-26T09:26:09.093Z</time></trkpt><trkpt lat="46.2187055" lon="8.2916841"><ele>1317.0</ele><time>2026-04-26T09:26:11.101Z</time></trkpt><trkpt lat="46.2187798" lon="8.2916717"><ele>1317.0</ele><time>2026-04-26T09:26:12.101Z</time></trkpt><trkpt lat="46.2188527" lon="8.2916636"><ele>1317.0</ele><time>2026-04-26T09:26:13.099Z</time></trkpt><trkpt lat="46.2189331" lon="8.2916544"><ele>1317.0</ele><time>2026-04-26T09:26:14.114Z</time></trkpt><trkpt lat="46.2190001" lon="8.2916693"><ele>1313.8333333333333</ele><time>2026-04-26T09:26:15.103Z</time></trkpt><trkpt lat="46.2190727" lon="8.2916828"><ele>1310.6666666666667</ele><time>2026-04-26T09:26:16.1Z</time></trkpt><trkpt lat="46.2192063" lon="8.2916724"><ele>1307.5</ele><time>2026-04-26T09:26:18.109Z</time></trkpt><trkpt lat="46.2192753" lon="8.2916791"><ele>1304.3333333333335</ele><time>2026-04-26T09:26:19.095Z</time></trkpt><trkpt lat="46.2193454" lon="8.2916988"><ele>1301.1666666666667</ele><time>2026-04-26T09:26:20.1Z</time></trkpt><trkpt lat="46.2194406" lon="8.2917074"><ele>1298.0</ele><time>2026-04-26T09:26:21.107Z</time></trkpt><trkpt lat="46.2195302" lon="8.2917132"><ele>1298.0</ele><time>2026-04-26T09:26:22.106Z</time></trkpt><trkpt lat="46.2196352" lon="8.2917219"><ele>1298.0</ele><time>2026-04-26T09:26:23.107Z</time></trkpt><trkpt lat="46.2197449" lon="8.2917238"><ele>1298.0</ele><time>2026-04-26T09:26:24.1Z</time></trkpt><trkpt lat="46.2198407" lon="8.2917151"><ele>1298.0</ele><time>2026-04-26T09:26:25.109Z</time></trkpt><trkpt lat="46.2199191" lon="8.291702"><ele>1298.0</ele><time>2026-04-26T09:26:26.109Z</time></trkpt><trkpt lat="46.2199854" lon="8.2916921"><ele>1298.0</ele><time>2026-04-26T09:26:27.104Z</time></trkpt><trkpt lat="46.2200475" lon="8.2916652"><ele>1298.0</ele><time>2026-04-26T09:26:28.103Z</time></trkpt><trkpt lat="46.2201617" lon="8.2916576"><ele>1298.0</ele><time>2026-04-26T09:26:30.101Z</time></trkpt><trkpt lat="46.2202572" lon="8.2916088"><ele>1298.0</ele><time>2026-04-26T09:26:32.101Z</time></trkpt><trkpt lat="46.2203319" lon="8.2915847"><ele>1298.0</ele><time>2026-04-26T09:26:34.095Z</time></trkpt><trkpt lat="46.2204288" lon="8.2915661"><ele>1298.0</ele><time>2026-04-26T09:26:37.093Z</time></trkpt><trkpt lat="46.2205174" lon="8.2915288"><ele>1298.0</ele><time>2026-04-26T09:26:39.101Z</time></trkpt><trkpt lat="46.2206001" lon="8.2914544"><ele>1298.0</ele><time>2026-04-26T09:26:42.101Z</time></trkpt><trkpt lat="46.2206681" lon="8.2914773"><ele>1298.0</ele><time>2026-04-26T09:26:45.107Z</time></trkpt><trkpt lat="46.2207331" lon="8.2914827"><ele>1298.0</ele><time>2026-04-26T09:26:49.112Z</time></trkpt><trkpt lat="46.220803" lon="8.2915165"><ele>1298.0</ele><time>2026-04-26T09:26:51.113Z</time></trkpt><trkpt lat="46.22091" lon="8.2915556"><ele>1297.6666666666667</ele><time>2026-04-26T09:26:53.1Z</time></trkpt><trkpt lat="46.2209836" lon="8.2915839"><ele>1297.3333333333335</ele><time>2026-04-26T09:26:54.096Z</time></trkpt><trkpt lat="46.2210548" lon="8.2916145"><ele>1297.0</ele><time>2026-04-26T09:26:55.098Z</time></trkpt><trkpt lat="46.2211251" lon="8.2916334"><ele>1296.6666666666667</ele><time>2026-04-26T09:26:56.093Z</time></trkpt><trkpt lat="46.2212114" lon="8.2916836"><ele>1296.3333333333333</ele><time>2026-04-26T09:26:57.107Z</time></trkpt><trkpt lat="46.2213019" lon="8.2917307"><ele>1296.0</ele><time>2026-04-26T09:26:58.093Z</time></trkpt><trkpt lat="46.2214002" lon="8.2917808"><ele>1297.1666666666667</ele><time>2026-04-26T09:26:59.094Z</time></trkpt><trkpt lat="46.2214965" lon="8.2918417"><ele>1298.3333333333333</ele><time>2026-04-26T09:27:00.106Z</time></trkpt><trkpt lat="46.2215726" lon="8.2919007"><ele>1299.5</ele><time>2026-04-26T09:27:01.096Z</time></trkpt><trkpt lat="46.2216419" lon="8.2919611"><ele>1300.6666666666665</ele><time>2026-04-26T09:27:02.099Z</time></trkpt><trkpt lat="46.2217122" lon="8.292006"><ele>1301.8333333333333</ele><time>2026-04-26T09:27:03.103Z</time></trkpt><trkpt lat="46.2217902" lon="8.2920466"><ele>1303.0</ele><time>2026-04-26T09:27:04.103Z</time></trkpt><trkpt lat="46.2218728" lon="8.2920682"><ele>1303.0</ele><time>2026-04-26T09:27:05.109Z</time></trkpt><trkpt lat="46.2219729" lon="8.2920939"><ele>1303.0</ele><time>2026-04-26T09:27:06.101Z</time></trkpt><trkpt lat="46.2220868" lon="8.2920978"><ele>1303.0</ele><time>2026-04-26T09:27:07.09Z</time></trkpt><trkpt lat="46.2221809" lon="8.2920967"><ele>1303.0</ele><time>2026-04-26T09:27:08.102Z</time></trkpt><trkpt lat="46.2222576" lon="8.2921151"><ele>1303.0</ele><time>2026-04-26T09:27:09.093Z</time></trkpt><trkpt lat="46.2223408" lon="8.2921145"><ele>1303.0</ele><time>2026-04-26T09:27:10.107Z</time></trkpt><trkpt lat="46.2224132" lon="8.2921372"><ele>1303.0</ele><time>2026-04-26T09:27:11.106Z</time></trkpt><trkpt lat="46.2224916" lon="8.2921476"><ele>1303.0</ele><time>2026-04-26T09:27:12.1Z</time></trkpt><trkpt lat="46.222571" lon="8.2921505"><ele>1303.0</ele><time>2026-04-26T09:27:13.094Z</time></trkpt><trkpt lat="46.222645" lon="8.2921564"><ele>1303.0</ele><time>2026-04-26T09:27:14.094Z</time></trkpt><trkpt lat="46.2227217" lon="8.2921719"><ele>1303.0</ele><time>2026-04-26T09:27:15.102Z</time></trkpt><trkpt lat="46.222803" lon="8.2922016"><ele>1303.0</ele><time>2026-04-26T09:27:16.1Z</time></trkpt><trkpt lat="46.2228802" lon="8.2922341"><ele>1303.0</ele><time>2026-04-26T09:27:17.099Z</time></trkpt><trkpt lat="46.2229599" lon="8.2922628"><ele>1303.0</ele><time>2026-04-26T09:27:18.103Z</time></trkpt><trkpt lat="46.2230416" lon="8.292277"><ele>1303.0</ele><time>2026-04-26T09:27:19.095Z</time></trkpt><trkpt lat="46.2231368" lon="8.2922925"><ele>1303.0</ele><time>2026-04-26T09:27:20.087Z</time></trkpt><trkpt lat="46.2232382" lon="8.292287"><ele>1303.0</ele><time>2026-04-26T09:27:21.094Z</time></trkpt><trkpt lat="46.2233295" lon="8.292293"><ele>1299.6000000000001</ele><time>2026-04-26T09:27:22.097Z</time></trkpt><trkpt lat="46.2234305" lon="8.2922724"><ele>1296.2</ele><time>2026-04-26T09:27:23.094Z</time></trkpt><trkpt lat="46.2235209" lon="8.2922617"><ele>1292.8</ele><time>2026-04-26T09:27:24.112Z</time></trkpt><trkpt lat="46.2236153" lon="8.292254"><ele>1289.4</ele><time>2026-04-26T09:27:25.109Z</time></trkpt><trkpt lat="46.2237227" lon="8.2922295"><ele>1286.0</ele><time>2026-04-26T09:27:26.096Z</time></trkpt><trkpt lat="46.223813" lon="8.2922103"><ele>1286.0</ele><time>2026-04-26T09:27:27.094Z</time></trkpt><trkpt lat="46.2238983" lon="8.2921694"><ele>1286.0</ele><time>2026-04-26T09:27:28.105Z</time></trkpt><trkpt lat="46.2239914" lon="8.2921034"><ele>1286.0</ele><time>2026-04-26T09:27:29.098Z</time></trkpt><trkpt lat="46.2240736" lon="8.2920262"><ele>1286.0</ele><time>2026-04-26T09:27:30.088Z</time></trkpt><trkpt lat="46.2241464" lon="8.2919385"><ele>1286.0</ele><time>2026-04-26T09:27:31.112Z</time></trkpt><trkpt lat="46.224207" lon="8.2918393"><ele>1286.1666666666667</ele><time>2026-04-26T09:27:32.106Z</time></trkpt><trkpt lat="46.2242605" lon="8.2917525"><ele>1286.3333333333335</ele><time>2026-04-26T09:27:33.108Z</time></trkpt><trkpt lat="46.2243208" lon="8.2916655"><ele>1286.5</ele><time>2026-04-26T09:27:34.107Z</time></trkpt><trkpt lat="46.2243894" lon="8.2915853"><ele>1286.6666666666667</ele><time>2026-04-26T09:27:35.098Z</time></trkpt><trkpt lat="46.2244511" lon="8.2915259"><ele>1286.8333333333333</ele><time>2026-04-26T09:27:36.095Z</time></trkpt><trkpt lat="46.2245033" lon="8.2914575"><ele>1287.0</ele><time>2026-04-26T09:27:37.112Z</time></trkpt><trkpt lat="46.2246002" lon="8.2914095"><ele>1282.6666666666667</ele><time>2026-04-26T09:27:39.099Z</time></trkpt><trkpt lat="46.224725" lon="8.2914399"><ele>1278.3333333333333</ele><time>2026-04-26T09:27:41.094Z</time></trkpt><trkpt lat="46.2247955" lon="8.2914513"><ele>1274.0</ele><time>2026-04-26T09:27:42.097Z</time></trkpt><trkpt lat="46.2248718" lon="8.291452"><ele>1269.6666666666665</ele><time>2026-04-26T09:27:43.124Z</time></trkpt><trkpt lat="46.2249297" lon="8.291413"><ele>1265.3333333333333</ele><time>2026-04-26T09:27:44.11Z</time></trkpt><trkpt lat="46.2249857" lon="8.291368"><ele>1261.0</ele><time>2026-04-26T09:27:45.109Z</time></trkpt><trkpt lat="46.2250452" lon="8.2913189"><ele>1260.0</ele><time>2026-04-26T09:27:46.117Z</time></trkpt><trkpt lat="46.2251112" lon="8.2912567"><ele>1259.0</ele><time>2026-04-26T09:27:47.098Z</time></trkpt><trkpt lat="46.2251706" lon="8.2911792"><ele>1258.0</ele><time>2026-04-26T09:27:48.101Z</time></trkpt><trkpt lat="46.2252357" lon="8.2910794"><ele>1257.0</ele><time>2026-04-26T09:27:49.103Z</time></trkpt><trkpt lat="46.2252997" lon="8.2909741"><ele>1256.0</ele><time>2026-04-26T09:27:50.103Z</time></trkpt><trkpt lat="46.2253645" lon="8.2908891"><ele>1255.0</ele><time>2026-04-26T09:27:51.106Z</time></trkpt><trkpt lat="46.2254441" lon="8.2908145"><ele>1255.0</ele><time>2026-04-26T09:27:52.107Z</time></trkpt><trkpt lat="46.2255139" lon="8.2907644"><ele>1255.0</ele><time>2026-04-26T09:27:53.103Z</time></trkpt><trkpt lat="46.2255911" lon="8.2907136"><ele>1255.0</ele><time>2026-04-26T09:27:54.103Z</time></trkpt><trkpt lat="46.2256629" lon="8.2906882"><ele>1255.0</ele><time>2026-04-26T09:27:55.105Z</time></trkpt><trkpt lat="46.225734" lon="8.2906672"><ele>1255.0</ele><time>2026-04-26T09:27:56.106Z</time></trkpt><trkpt lat="46.225829" lon="8.2906857"><ele>1255.0</ele><time>2026-04-26T09:27:58.1Z</time></trkpt><trkpt lat="46.2259078" lon="8.2907115"><ele>1249.8333333333333</ele><time>2026-04-26T09:28:00.105Z</time></trkpt><trkpt lat="46.2260039" lon="8.2907449"><ele>1244.6666666666665</ele><time>2026-04-26T09:28:02.118Z</time></trkpt><trkpt lat="46.2260641" lon="8.2907925"><ele>1239.5</ele><time>2026-04-26T09:28:04.108Z</time></trkpt><trkpt lat="46.22613" lon="8.2908263"><ele>1234.3333333333333</ele><time>2026-04-26T09:28:10.109Z</time></trkpt><trkpt lat="46.2261864" lon="8.2907785"><ele>1229.1666666666667</ele><time>2026-04-26T09:28:26.104Z</time></trkpt><trkpt lat="46.2262584" lon="8.2907259"><ele>1224.0</ele><time>2026-04-26T09:28:28.105Z</time></trkpt><trkpt lat="46.2263496" lon="8.2907201"><ele>1224.0</ele><time>2026-04-26T09:28:30.105Z</time></trkpt><trkpt lat="46.2264428" lon="8.2907692"><ele>1224.0</ele><time>2026-04-26T09:28:32.099Z</time></trkpt><trkpt lat="46.2264987" lon="8.2908237"><ele>1224.0</ele><time>2026-04-26T09:28:33.125Z</time></trkpt><trkpt lat="46.2265542" lon="8.2908685"><ele>1224.0</ele><time>2026-04-26T09:28:34.11Z</time></trkpt><trkpt lat="46.2266186" lon="8.2908961"><ele>1224.0</ele><time>2026-04-26T09:28:35.102Z</time></trkpt><trkpt lat="46.2266901" lon="8.2909176"><ele>1224.0</ele><time>2026-04-26T09:28:36.107Z</time></trkpt><trkpt lat="46.2267763" lon="8.290931"><ele>1221.3333333333333</ele><time>2026-04-26T09:28:37.106Z</time></trkpt><trkpt lat="46.2268548" lon="8.2909429"><ele>1218.6666666666667</ele><time>2026-04-26T09:28:38.103Z</time></trkpt><trkpt lat="46.2269202" lon="8.2909465"><ele>1216.0</ele><time>2026-04-26T09:28:39.1Z</time></trkpt><trkpt lat="46.2270304" lon="8.2910097"><ele>1213.3333333333335</ele><time>2026-04-26T09:28:41.106Z</time></trkpt><trkpt lat="46.2270936" lon="8.2910376"><ele>1210.6666666666667</ele><time>2026-04-26T09:28:42.103Z</time></trkpt><trkpt lat="46.227198" lon="8.2910412"><ele>1208.0</ele><time>2026-04-26T09:28:44.105Z</time></trkpt><trkpt lat="46.2272899" lon="8.2910873"><ele>1207.3333333333335</ele><time>2026-04-26T09:28:46.099Z</time></trkpt><trkpt lat="46.2273488" lon="8.2911233"><ele>1206.6666666666667</ele><time>2026-04-26T09:28:47.101Z</time></trkpt><trkpt lat="46.2274091" lon="8.2911529"><ele>1206.0</ele><time>2026-04-26T09:28:48.099Z</time></trkpt><trkpt lat="46.2275144" lon="8.2912329"><ele>1205.3333333333333</ele><time>2026-04-26T09:28:50.102Z</time></trkpt><trkpt lat="46.2276067" lon="8.2913022"><ele>1204.6666666666665</ele><time>2026-04-26T09:28:52.089Z</time></trkpt><trkpt lat="46.2276872" lon="8.2913403"><ele>1204.0</ele><time>2026-04-26T09:28:54.103Z</time></trkpt><trkpt lat="46.2277688" lon="8.2913969"><ele>1201.3333333333333</ele><time>2026-04-26T09:28:56.103Z</time></trkpt><trkpt lat="46.2278077" lon="8.2914703"><ele>1198.6666666666665</ele><time>2026-04-26T09:29:04.119Z</time></trkpt><trkpt lat="46.2278469" lon="8.2915603"><ele>1196.0</ele><time>2026-04-26T09:29:09.119Z</time></trkpt><trkpt lat="46.2278355" lon="8.2916523"><ele>1193.3333333333333</ele><time>2026-04-26T09:29:12.123Z</time></trkpt><trkpt lat="46.2277759" lon="8.2917137"><ele>1190.6666666666667</ele><time>2026-04-26T09:29:17.115Z</time></trkpt><trkpt lat="46.2276778" lon="8.2917947"><ele>1188.0</ele><time>2026-04-26T09:29:43.115Z</time></trkpt><trkpt lat="46.2275963" lon="8.2917279"><ele>1188.0</ele><time>2026-04-26T09:29:46.114Z</time></trkpt><trkpt lat="46.2275247" lon="8.2916667"><ele>1188.0</ele><time>2026-04-26T09:29:49.111Z</time></trkpt><trkpt lat="46.227454" lon="8.2916407"><ele>1188.0</ele><time>2026-04-26T09:29:52.109Z</time></trkpt><trkpt lat="46.2275591" lon="8.2916953"><ele>1188.0</ele><time>2026-04-26T09:30:30.087Z</time></trkpt><trkpt lat="46.2276221" lon="8.2916945"><ele>1188.0</ele><time>2026-04-26T09:30:31.088Z</time></trkpt><trkpt lat="46.2275511" lon="8.2916651"><ele>1188.0</ele><time>2026-04-26T09:30:41.093Z</time></trkpt><trkpt lat="46.2274752" lon="8.2916415"><ele>1188.0</ele><time>2026-04-26T09:30:42.091Z</time></trkpt><trkpt lat="46.2273507" lon="8.2915758"><ele>1188.0</ele><time>2026-04-26T09:30:44.093Z</time></trkpt><trkpt lat="46.2272454" lon="8.2915825"><ele>1188.0</ele><time>2026-04-26T09:30:45.102Z</time></trkpt><trkpt lat="46.2271632" lon="8.2916343"><ele>1188.0</ele><time>2026-04-26T09:30:46.098Z</time></trkpt><trkpt lat="46.2271248" lon="8.2917227"><ele>1188.0</ele><time>2026-04-26T09:30:55.103Z</time></trkpt><trkpt lat="46.2270838" lon="8.2917969"><ele>1188.6666666666667</ele><time>2026-04-26T09:30:57.108Z</time></trkpt><trkpt lat="46.2271276" lon="8.2918786"><ele>1189.3333333333333</ele><time>2026-04-26T09:31:04.109Z</time></trkpt><trkpt lat="46.2271818" lon="8.291934"><ele>1190.0</ele><time>2026-04-26T09:31:07.126Z</time></trkpt><trkpt lat="46.2271855" lon="8.2920521"><ele>1190.6666666666665</ele><time>2026-04-26T09:31:10.118Z</time></trkpt><trkpt lat="46.2271488" lon="8.2921714"><ele>1191.3333333333333</ele><time>2026-04-26T09:31:12.109Z</time></trkpt><trkpt lat="46.2270843" lon="8.2922581"><ele>1192.0</ele><time>2026-04-26T09:31:14.113Z</time></trkpt><trkpt lat="46.2270317" lon="8.2923453"><ele>1188.5</ele><time>2026-04-26T09:31:17.113Z</time></trkpt><trkpt lat="46.226996" lon="8.2924216"><ele>1185.0</ele><time>2026-04-26T09:31:22.127Z</time></trkpt><trkpt lat="46.2269663" lon="8.2925098"><ele>1181.5</ele><time>2026-04-26T09:31:25.121Z</time></trkpt><trkpt lat="46.2269302" lon="8.2925915"><ele>1178.0</ele><time>2026-04-26T09:31:27.125Z</time></trkpt><trkpt lat="46.2268714" lon="8.2926764"><ele>1174.5</ele><time>2026-04-26T09:31:29.123Z</time></trkpt><trkpt lat="46.2267885" lon="8.2927567"><ele>1171.0</ele><time>2026-04-26T09:31:31.122Z</time></trkpt><trkpt lat="46.2267234" lon="8.2928452"><ele>1171.0</ele><time>2026-04-26T09:31:33.115Z</time></trkpt><trkpt lat="46.2266745" lon="8.2929069"><ele>1171.0</ele><time>2026-04-26T09:31:35.12Z</time></trkpt><trkpt lat="46.2266102" lon="8.2929636"><ele>1171.0</ele><time>2026-04-26T09:31:38.146Z</time></trkpt><trkpt lat="46.2265287" lon="8.2929889"><ele>1171.0</ele><time>2026-04-26T09:31:42.134Z</time></trkpt><trkpt lat="46.2264637" lon="8.2930334"><ele>1171.0</ele><time>2026-04-26T09:31:46.127Z</time></trkpt><trkpt lat="46.2264078" lon="8.2931159"><ele>1171.0</ele><time>2026-04-26T09:31:51.127Z</time></trkpt><trkpt lat="46.226349" lon="8.2932071"><ele>1169.0</ele><time>2026-04-26T09:31:54.119Z</time></trkpt><trkpt lat="46.2262983" lon="8.2932624"><ele>1167.0</ele><time>2026-04-26T09:31:56.12Z</time></trkpt><trkpt lat="46.2262493" lon="8.2933747"><ele>1165.0</ele><time>2026-04-26T09:31:59.124Z</time></trkpt><trkpt lat="46.2262214" lon="8.2934844"><ele>1163.0</ele><time>2026-04-26T09:32:01.129Z</time></trkpt><trkpt lat="46.2262049" lon="8.2935992"><ele>1161.0</ele><time>2026-04-26T09:32:03.119Z</time></trkpt><trkpt lat="46.2261811" lon="8.2936913"><ele>1159.0</ele><time>2026-04-26T09:32:06.11Z</time></trkpt><trkpt lat="46.2261853" lon="8.2938165"><ele>1159.0000000000002</ele><time>2026-04-26T09:32:09.119Z</time></trkpt><trkpt lat="46.2262143" lon="8.2939196"><ele>1159.0</ele><time>2026-04-26T09:32:12.111Z</time></trkpt><trkpt lat="46.2262197" lon="8.2940155"><ele>1159.0</ele><time>2026-04-26T09:32:15.109Z</time></trkpt><trkpt lat="46.2262046" lon="8.2941054"><ele>1159.0</ele><time>2026-04-26T09:32:18.11Z</time></trkpt><trkpt lat="46.2262023" lon="8.2942057"><ele>1159.0</ele><time>2026-04-26T09:32:22.113Z</time></trkpt><trkpt lat="46.2261583" lon="8.2942881"><ele>1159.0000000000002</ele><time>2026-04-26T09:32:30.108Z</time></trkpt><trkpt lat="46.2260832" lon="8.2943002"><ele>1159.0</ele><time>2026-04-26T09:33:06.113Z</time></trkpt><trkpt lat="46.2260242" lon="8.2943619"><ele>1153.8</ele><time>2026-04-26T09:33:11.146Z</time></trkpt><trkpt lat="46.2259471" lon="8.2944449"><ele>1148.6000000000001</ele><time>2026-04-26T09:33:14.107Z</time></trkpt><trkpt lat="46.2258635" lon="8.2945595"><ele>1143.4</ele><time>2026-04-26T09:33:16.106Z</time></trkpt><trkpt lat="46.2257704" lon="8.294671"><ele>1138.2</ele><time>2026-04-26T09:33:18.111Z</time></trkpt><trkpt lat="46.2256793" lon="8.2947596"><ele>1133.0</ele><time>2026-04-26T09:33:20.108Z</time></trkpt><trkpt lat="46.2256169" lon="8.2948031"><ele>1131.6666666666667</ele><time>2026-04-26T09:33:22.107Z</time></trkpt><trkpt lat="46.2255458" lon="8.2948518"><ele>1130.3333333333335</ele><time>2026-04-26T09:33:24.11Z</time></trkpt><trkpt lat="46.2254648" lon="8.2948804"><ele>1129.0</ele><time>2026-04-26T09:33:42.104Z</time></trkpt><trkpt lat="46.2253958" lon="8.2949461"><ele>1127.6666666666667</ele><time>2026-04-26T09:33:45.101Z</time></trkpt><trkpt lat="46.2253557" lon="8.2950438"><ele>1126.3333333333333</ele><time>2026-04-26T09:33:47.1Z</time></trkpt><trkpt lat="46.2253275" lon="8.2951545"><ele>1125.0</ele><time>2026-04-26T09:33:49.097Z</time></trkpt><trkpt lat="46.2253291" lon="8.2952495"><ele>1125.0</ele><time>2026-04-26T09:33:51.101Z</time></trkpt><trkpt lat="46.2253931" lon="8.2953163"><ele>1125.0</ele><time>2026-04-26T09:33:53.133Z</time></trkpt><trkpt lat="46.2254877" lon="8.2953237"><ele>1125.0</ele><time>2026-04-26T09:33:55.117Z</time></trkpt><trkpt lat="46.2255978" lon="8.2953459"><ele>1125.0</ele><time>2026-04-26T09:33:57.104Z</time></trkpt><trkpt lat="46.2256742" lon="8.2953421"><ele>1125.0</ele><time>2026-04-26T09:33:58.106Z</time></trkpt><trkpt lat="46.2257582" lon="8.2953462"><ele>1125.0</ele><time>2026-04-26T09:33:59.116Z</time></trkpt><trkpt lat="46.2258435" lon="8.2953279"><ele>1123.8333333333333</ele><time>2026-04-26T09:34:00.103Z</time></trkpt><trkpt lat="46.2259363" lon="8.2953059"><ele>1122.6666666666667</ele><time>2026-04-26T09:34:01.112Z</time></trkpt><trkpt lat="46.2260239" lon="8.2952829"><ele>1121.5</ele><time>2026-04-26T09:34:02.112Z</time></trkpt><trkpt lat="46.2261096" lon="8.2952441"><ele>1120.3333333333335</ele><time>2026-04-26T09:34:03.123Z</time></trkpt><trkpt lat="46.2261787" lon="8.2952055"><ele>1119.1666666666667</ele><time>2026-04-26T09:34:04.102Z</time></trkpt><trkpt lat="46.226256" lon="8.2951325"><ele>1118.0</ele><time>2026-04-26T09:34:05.111Z</time></trkpt><trkpt lat="46.2263186" lon="8.2950837"><ele>1118.0</ele><time>2026-04-26T09:34:06.106Z</time></trkpt><trkpt lat="46.2263721" lon="8.2950308"><ele>1118.0</ele><time>2026-04-26T09:34:07.108Z</time></trkpt><trkpt lat="46.2264469" lon="8.2949731"><ele>1118.0</ele><time>2026-04-26T09:34:09.12Z</time></trkpt><trkpt lat="46.2265043" lon="8.2950399"><ele>1118.0</ele><time>2026-04-26T09:34:11.107Z</time></trkpt><trkpt lat="46.2265608" lon="8.2951407"><ele>1118.0</ele><time>2026-04-26T09:34:13.11Z</time></trkpt><trkpt lat="46.2266497" lon="8.2952579"><ele>1118.0</ele><time>2026-04-26T09:34:15.101Z</time></trkpt><trkpt lat="46.2266995" lon="8.2953179"><ele>1117.6666666666667</ele><time>2026-04-26T09:34:16.107Z</time></trkpt><trkpt lat="46.226745" lon="8.2953928"><ele>1117.3333333333335</ele><time>2026-04-26T09:34:17.111Z</time></trkpt><trkpt lat="46.2267901" lon="8.2954591"><ele>1117.0</ele><time>2026-04-26T09:34:18.111Z</time></trkpt><trkpt lat="46.2268439" lon="8.2955337"><ele>1116.6666666666667</ele><time>2026-04-26T09:34:19.11Z</time></trkpt><trkpt lat="46.226874" lon="8.2956462"><ele>1116.3333333333333</ele><time>2026-04-26T09:34:20.103Z</time></trkpt><trkpt lat="46.2269023" lon="8.2957555"><ele>1116.0</ele><time>2026-04-26T09:34:21.104Z</time></trkpt><trkpt lat="46.2269174" lon="8.2958839"><ele>1114.0</ele><time>2026-04-26T09:34:22.102Z</time></trkpt><trkpt lat="46.2269231" lon="8.2959982"><ele>1112.0</ele><time>2026-04-26T09:34:23.101Z</time></trkpt><trkpt lat="46.2269208" lon="8.2961306"><ele>1110.0</ele><time>2026-04-26T09:34:25.088Z</time></trkpt><trkpt lat="46.2269572" lon="8.2962129"><ele>1108.0</ele><time>2026-04-26T09:34:27.093Z</time></trkpt><trkpt lat="46.2270317" lon="8.2962764"><ele>1106.0</ele><time>2026-04-26T09:34:29.093Z</time></trkpt><trkpt lat="46.2271107" lon="8.296352"><ele>1104.0</ele><time>2026-04-26T09:34:31.102Z</time></trkpt><trkpt lat="46.2271895" lon="8.2964122"><ele>1103.0</ele><time>2026-04-26T09:34:33.105Z</time></trkpt><trkpt lat="46.2272738" lon="8.2964981"><ele>1102.0</ele><time>2026-04-26T09:34:35.106Z</time></trkpt><trkpt lat="46.2273732" lon="8.2965497"><ele>1101.0</ele><time>2026-04-26T09:34:37.108Z</time></trkpt><trkpt lat="46.2274723" lon="8.296578"><ele>1100.0</ele><time>2026-04-26T09:34:39.116Z</time></trkpt><trkpt lat="46.2275703" lon="8.2966162"><ele>1099.0</ele><time>2026-04-26T09:34:41.109Z</time></trkpt><trkpt lat="46.2276481" lon="8.2966442"><ele>1099.0</ele><time>2026-04-26T09:34:42.113Z</time></trkpt><trkpt lat="46.2277441" lon="8.2966753"><ele>1099.0</ele><time>2026-04-26T09:34:43.113Z</time></trkpt><trkpt lat="46.227841" lon="8.2966728"><ele>1099.0</ele><time>2026-04-26T09:34:44.104Z</time></trkpt><trkpt lat="46.2279306" lon="8.2966887"><ele>1099.0</ele><time>2026-04-26T09:34:45.106Z</time></trkpt><trkpt lat="46.2280072" lon="8.2966937"><ele>1099.0</ele><time>2026-04-26T09:34:46.107Z</time></trkpt><trkpt lat="46.2280792" lon="8.2966584"><ele>1099.0</ele><time>2026-04-26T09:34:48.11Z</time></trkpt><trkpt lat="46.2281562" lon="8.2966159"><ele>1097.8333333333333</ele><time>2026-04-26T09:34:51.11Z</time></trkpt><trkpt lat="46.2282172" lon="8.2966456"><ele>1096.6666666666665</ele><time>2026-04-26T09:34:53.114Z</time></trkpt><trkpt lat="46.2282769" lon="8.2967788"><ele>1095.5</ele><time>2026-04-26T09:34:55.11Z</time></trkpt><trkpt lat="46.2282983" lon="8.2968726"><ele>1094.3333333333333</ele><time>2026-04-26T09:34:56.107Z</time></trkpt><trkpt lat="46.2283025" lon="8.2969929"><ele>1093.1666666666667</ele><time>2026-04-26T09:34:58.118Z</time></trkpt><trkpt lat="46.2282693" lon="8.2971182"><ele>1092.0</ele><time>2026-04-26T09:35:00.098Z</time></trkpt><trkpt lat="46.2282494" lon="8.2972424"><ele>1090.2</ele><time>2026-04-26T09:35:01.106Z</time></trkpt><trkpt lat="46.2282384" lon="8.2973976"><ele>1088.4</ele><time>2026-04-26T09:35:02.105Z</time></trkpt><trkpt lat="46.2282276" lon="8.29754"><ele>1086.6</ele><time>2026-04-26T09:35:03.084Z</time></trkpt><trkpt lat="46.2282083" lon="8.2976733"><ele>1084.8</ele><time>2026-04-26T09:35:04.095Z</time></trkpt><trkpt lat="46.2281696" lon="8.2977916"><ele>1083.0</ele><time>2026-04-26T09:35:05.121Z</time></trkpt><trkpt lat="46.2281181" lon="8.2978937"><ele>1083.0</ele><time>2026-04-26T09:35:06.096Z</time></trkpt><trkpt lat="46.2280492" lon="8.2980038"><ele>1083.0</ele><time>2026-04-26T09:35:07.093Z</time></trkpt><trkpt lat="46.2279676" lon="8.2980871"><ele>1083.0</ele><time>2026-04-26T09:35:08.101Z</time></trkpt><trkpt lat="46.2278748" lon="8.2981716"><ele>1083.0</ele><time>2026-04-26T09:35:09.106Z</time></trkpt><trkpt lat="46.2277916" lon="8.2982486"><ele>1083.0</ele><time>2026-04-26T09:35:10.111Z</time></trkpt><trkpt lat="46.2277334" lon="8.2983359"><ele>1080.6666666666667</ele><time>2026-04-26T09:35:11.115Z</time></trkpt><trkpt lat="46.2276951" lon="8.2984301"><ele>1078.3333333333333</ele><time>2026-04-26T09:35:12.109Z</time></trkpt><trkpt lat="46.2276679" lon="8.2985291"><ele>1076.0</ele><time>2026-04-26T09:35:13.109Z</time></trkpt><trkpt lat="46.2276949" lon="8.2986681"><ele>1073.6666666666665</ele><time>2026-04-26T09:35:15.103Z</time></trkpt><trkpt lat="46.2277535" lon="8.2987049"><ele>1071.3333333333333</ele><time>2026-04-26T09:35:16.103Z</time></trkpt><trkpt lat="46.2278217" lon="8.2987326"><ele>1069.0</ele><time>2026-04-26T09:35:17.101Z</time></trkpt><trkpt lat="46.2278898" lon="8.2987569"><ele>1069.0</ele><time>2026-04-26T09:35:18.101Z</time></trkpt><trkpt lat="46.2279672" lon="8.2987938"><ele>1069.0</ele><time>2026-04-26T09:35:19.098Z</time></trkpt><trkpt lat="46.2280447" lon="8.2988437"><ele>1069.0</ele><time>2026-04-26T09:35:20.1Z</time></trkpt><trkpt lat="46.2281282" lon="8.2988908"><ele>1069.0</ele><time>2026-04-26T09:35:21.109Z</time></trkpt><trkpt lat="46.2282109" lon="8.2989327"><ele>1069.0</ele><time>2026-04-26T09:35:22.112Z</time></trkpt><trkpt lat="46.2282969" lon="8.2989793"><ele>1069.0</ele><time>2026-04-26T09:35:23.107Z</time></trkpt><trkpt lat="46.2283661" lon="8.2990214"><ele>1067.0</ele><time>2026-04-26T09:35:24.104Z</time></trkpt><trkpt lat="46.228411" lon="8.2990902"><ele>1065.0</ele><time>2026-04-26T09:35:26.109Z</time></trkpt><trkpt lat="46.2283545" lon="8.2991821"><ele>1063.0</ele><time>2026-04-26T09:35:28.111Z</time></trkpt><trkpt lat="46.2282736" lon="8.2992621"><ele>1061.0</ele><time>2026-04-26T09:35:30.115Z</time></trkpt><trkpt lat="46.2282727" lon="8.2993911"><ele>1059.0</ele><time>2026-04-26T09:35:32.105Z</time></trkpt><trkpt lat="46.2283382" lon="8.2995399"><ele>1059.0</ele><time>2026-04-26T09:35:34.105Z</time></trkpt><trkpt lat="46.2283937" lon="8.2996378"><ele>1059.0</ele><time>2026-04-26T09:35:36.116Z</time></trkpt><trkpt lat="46.2284631" lon="8.2996758"><ele>1059.0</ele><time>2026-04-26T09:35:38.128Z</time></trkpt><trkpt lat="46.2285591" lon="8.2996596"><ele>1059.0</ele><time>2026-04-26T09:35:40.107Z</time></trkpt><trkpt lat="46.2286574" lon="8.2996661"><ele>1059.0</ele><time>2026-04-26T09:35:42.115Z</time></trkpt><trkpt lat="46.2287488" lon="8.299696"><ele>1056.6666666666667</ele><time>2026-04-26T09:35:44.117Z</time></trkpt><trkpt lat="46.2288088" lon="8.2997538"><ele>1054.3333333333333</ele><time>2026-04-26T09:35:46.109Z</time></trkpt><trkpt lat="46.2288246" lon="8.299843"><ele>1052.0</ele><time>2026-04-26T09:35:50.121Z</time></trkpt><trkpt lat="46.2287822" lon="8.2999433"><ele>1049.6666666666665</ele><time>2026-04-26T09:35:53.115Z</time></trkpt><trkpt lat="46.228695" lon="8.2999929"><ele>1047.3333333333333</ele><time>2026-04-26T09:35:55.121Z</time></trkpt><trkpt lat="46.228619" lon="8.300007"><ele>1045.0</ele><time>2026-04-26T09:35:56.118Z</time></trkpt><trkpt lat="46.2285307" lon="8.3000247"><ele>1045.0</ele><time>2026-04-26T09:35:57.119Z</time></trkpt><trkpt lat="46.228424" lon="8.3000432"><ele>1045.0</ele><time>2026-04-26T09:35:58.123Z</time></trkpt><trkpt lat="46.2282952" lon="8.3000704"><ele>1045.0</ele><time>2026-04-26T09:35:59.123Z</time></trkpt><trkpt lat="46.2281687" lon="8.3000977"><ele>1045.0</ele><time>2026-04-26T09:36:00.119Z</time></trkpt><trkpt lat="46.2280441" lon="8.3001287"><ele>1045.0</ele><time>2026-04-26T09:36:01.119Z</time></trkpt><trkpt lat="46.2279336" lon="8.3001563"><ele>1045.0</ele><time>2026-04-26T09:36:02.122Z</time></trkpt><trkpt lat="46.2278434" lon="8.3001684"><ele>1045.0</ele><time>2026-04-26T09:36:03.12Z</time></trkpt><trkpt lat="46.2277519" lon="8.3001728"><ele>1045.0</ele><time>2026-04-26T09:36:04.116Z</time></trkpt><trkpt lat="46.2276596" lon="8.3001952"><ele>1045.0</ele><time>2026-04-26T09:36:05.116Z</time></trkpt><trkpt lat="46.2275791" lon="8.3002239"><ele>1045.0</ele><time>2026-04-26T09:36:06.115Z</time></trkpt><trkpt lat="46.2275153" lon="8.3002944"><ele>1045.0</ele><time>2026-04-26T09:36:07.129Z</time></trkpt><trkpt lat="46.2274839" lon="8.300379"><ele>1045.0</ele><time>2026-04-26T09:36:08.123Z</time></trkpt><trkpt lat="46.2274999" lon="8.3004894"><ele>1045.0</ele><time>2026-04-26T09:36:09.101Z</time></trkpt><trkpt lat="46.2275305" lon="8.3006025"><ele>1045.0</ele><time>2026-04-26T09:36:10.103Z</time></trkpt><trkpt lat="46.2275751" lon="8.3007046"><ele>1045.0</ele><time>2026-04-26T09:36:11.109Z</time></trkpt><trkpt lat="46.2276229" lon="8.3008088"><ele>1042.0</ele><time>2026-04-26T09:36:12.105Z</time></trkpt><trkpt lat="46.227676" lon="8.3009099"><ele>1039.0</ele><time>2026-04-26T09:36:13.108Z</time></trkpt><trkpt lat="46.2277189" lon="8.3009935"><ele>1036.0</ele><time>2026-04-26T09:36:14.111Z</time></trkpt><trkpt lat="46.2278062" lon="8.3010955"><ele>1033.0</ele><time>2026-04-26T09:36:16.117Z</time></trkpt><trkpt lat="46.2278628" lon="8.301158"><ele>1030.0</ele><time>2026-04-26T09:36:18.101Z</time></trkpt><trkpt lat="46.2279294" lon="8.3011641"><ele>1027.0</ele><time>2026-04-26T09:36:23.107Z</time></trkpt><trkpt lat="46.2279773" lon="8.3012312"><ele>1027.0</ele><time>2026-04-26T09:36:28.12Z</time></trkpt><trkpt lat="46.2279314" lon="8.3013374"><ele>1027.0</ele><time>2026-04-26T09:36:32.116Z</time></trkpt><trkpt lat="46.227862" lon="8.3014284"><ele>1027.0</ele><time>2026-04-26T09:36:35.118Z</time></trkpt><trkpt lat="46.2277906" lon="8.3014556"><ele>1027.0</ele><time>2026-04-26T09:36:38.114Z</time></trkpt><trkpt lat="46.2277171" lon="8.3014655"><ele>1027.0</ele><time>2026-04-26T09:36:42.116Z</time></trkpt><trkpt lat="46.2276487" lon="8.3014834"><ele>1027.0</ele><time>2026-04-26T09:36:45.107Z</time></trkpt><trkpt lat="46.2276184" lon="8.3015876"><ele>1024.857142857143</ele><time>2026-04-26T09:36:50.125Z</time></trkpt><trkpt lat="46.2276193" lon="8.3016971"><ele>1022.7142857142858</ele><time>2026-04-26T09:36:57.123Z</time></trkpt><trkpt lat="46.22764" lon="8.3017881"><ele>1020.5714285714287</ele><time>2026-04-26T09:37:02.112Z</time></trkpt><trkpt lat="46.2276677" lon="8.3019019"><ele>1018.4285714285716</ele><time>2026-04-26T09:37:05.105Z</time></trkpt><trkpt lat="46.227723" lon="8.3019873"><ele>1016.2857142857143</ele><time>2026-04-26T09:37:08.128Z</time></trkpt><trkpt lat="46.2277216" lon="8.3020791"><ele>1014.1428571428573</ele><time>2026-04-26T09:37:13.122Z</time></trkpt><trkpt lat="46.2276753" lon="8.3021624"><ele>1012.0000000000001</ele><time>2026-04-26T09:37:17.118Z</time></trkpt><trkpt lat="46.2276282" lon="8.302239"><ele>1008.3333333333333</ele><time>2026-04-26T09:37:21.114Z</time></trkpt><trkpt lat="46.2276449" lon="8.3023809"><ele>1004.6666666666666</ele><time>2026-04-26T09:37:26.109Z</time></trkpt><trkpt lat="46.2276445" lon="8.3025277"><ele>1001.0</ele><time>2026-04-26T09:37:29.106Z</time></trkpt><trkpt lat="46.2276105" lon="8.3026505"><ele>997.3333333333333</ele><time>2026-04-26T09:37:31.104Z</time></trkpt><trkpt lat="46.2275857" lon="8.302743"><ele>993.6666666666666</ele><time>2026-04-26T09:37:48.109Z</time></trkpt><trkpt lat="46.2275158" lon="8.3028005"><ele>990.0</ele><time>2026-04-26T09:38:01.111Z</time></trkpt><trkpt lat="46.2274299" lon="8.3028423"><ele>990.0</ele><time>2026-04-26T09:38:07.122Z</time></trkpt><trkpt lat="46.2273624" lon="8.3028225"><ele>990.0</ele><time>2026-04-26T09:38:11.107Z</time></trkpt><trkpt lat="46.227284" lon="8.3028737"><ele>990.0</ele><time>2026-04-26T09:38:14.105Z</time></trkpt><trkpt lat="46.2271613" lon="8.3029479"><ele>990.0</ele><time>2026-04-26T09:38:16.109Z</time></trkpt><trkpt lat="46.2270863" lon="8.3029786"><ele>990.0</ele><time>2026-04-26T09:38:17.109Z</time></trkpt><trkpt lat="46.2269815" lon="8.3030036"><ele>988.25</ele><time>2026-04-26T09:38:18.108Z</time></trkpt><trkpt lat="46.2268675" lon="8.3030388"><ele>986.5</ele><time>2026-04-26T09:38:19.115Z</time></trkpt><trkpt lat="46.2267989" lon="8.3030795"><ele>984.75</ele><time>2026-04-26T09:38:20.121Z</time></trkpt><trkpt lat="46.2268584" lon="8.3030003"><ele>983.0</ele><time>2026-04-26T09:38:29.111Z</time></trkpt><trkpt lat="46.2269821" lon="8.3031863"><ele>979.75</ele><time>2026-04-26T09:38:30.1Z</time></trkpt><trkpt lat="46.2271182" lon="8.3033551"><ele>976.5</ele><time>2026-04-26T09:38:31.111Z</time></trkpt><trkpt lat="46.2272027" lon="8.3035058"><ele>973.25</ele><time>2026-04-26T09:38:32.1Z</time></trkpt><trkpt lat="46.2272775" lon="8.3036513"><ele>970.0</ele><time>2026-04-26T09:38:33.102Z</time></trkpt><trkpt lat="46.2273528" lon="8.3038188"><ele>962.6666666666666</ele><time>2026-04-26T09:38:34.106Z</time></trkpt><trkpt lat="46.2274423" lon="8.3040091"><ele>955.3333333333333</ele><time>2026-04-26T09:38:35.113Z</time></trkpt><trkpt lat="46.2275409" lon="8.3042173"><ele>948.0</ele><time>2026-04-26T09:38:36.117Z</time></trkpt><trkpt lat="46.2276146" lon="8.3043963"><ele>948.0</ele><time>2026-04-26T09:38:37.11Z</time></trkpt><trkpt lat="46.2276903" lon="8.3045668"><ele>948.0</ele><time>2026-04-26T09:38:38.109Z</time></trkpt><trkpt lat="46.2277679" lon="8.3047335"><ele>948.0</ele><time>2026-04-26T09:38:39.11Z</time></trkpt><trkpt lat="46.2278557" lon="8.3048996"><ele>948.0</ele><time>2026-04-26T09:38:40.106Z</time></trkpt><trkpt lat="46.2279608" lon="8.3050471"><ele>945.0</ele><time>2026-04-26T09:38:41.098Z</time></trkpt><trkpt lat="46.2280702" lon="8.3051813"><ele>942.0</ele><time>2026-04-26T09:38:42.101Z</time></trkpt><trkpt lat="46.2281856" lon="8.3053096"><ele>939.0</ele><time>2026-04-26T09:38:43.102Z</time></trkpt><trkpt lat="46.2282921" lon="8.305432"><ele>936.0</ele><time>2026-04-26T09:38:44.101Z</time></trkpt><trkpt lat="46.2283832" lon="8.305536"><ele>936.0</ele><time>2026-04-26T09:38:45.104Z</time></trkpt><trkpt lat="46.2284549" lon="8.3055996"><ele>936.0</ele><time>2026-04-26T09:38:46.103Z</time></trkpt><trkpt lat="46.2285413" lon="8.3056193"><ele>936.0</ele><time>2026-04-26T09:38:47.096Z</time></trkpt><trkpt lat="46.2286251" lon="8.3056011"><ele>936.0</ele><time>2026-04-26T09:38:48.095Z</time></trkpt><trkpt lat="46.2287104" lon="8.305566"><ele>936.0</ele><time>2026-04-26T09:38:49.105Z</time></trkpt><trkpt lat="46.2287873" lon="8.3055113"><ele>936.0</ele><time>2026-04-26T09:38:50.118Z</time></trkpt><trkpt lat="46.2288803" lon="8.3054645"><ele>936.0</ele><time>2026-04-26T09:38:51.107Z</time></trkpt><trkpt lat="46.2289755" lon="8.3054332"><ele>935.9999999999999</ele><time>2026-04-26T09:38:52.104Z</time></trkpt><trkpt lat="46.2290635" lon="8.305429"><ele>935.9999999999999</ele><time>2026-04-26T09:38:53.1Z</time></trkpt><trkpt lat="46.229153" lon="8.3054605"><ele>936.0</ele><time>2026-04-26T09:38:54.101Z</time></trkpt><trkpt lat="46.2292361" lon="8.305548"><ele>936.0</ele><time>2026-04-26T09:38:55.102Z</time></trkpt><trkpt lat="46.2293102" lon="8.3056619"><ele>932.0</ele><time>2026-04-26T09:38:56.099Z</time></trkpt><trkpt lat="46.2293744" lon="8.3057905"><ele>927.9999999999999</ele><time>2026-04-26T09:38:57.105Z</time></trkpt><trkpt lat="46.2294503" lon="8.3059005"><ele>923.9999999999999</ele><time>2026-04-26T09:38:58.106Z</time></trkpt><trkpt lat="46.229538" lon="8.3059893"><ele>920.0</ele><time>2026-04-26T09:38:59.101Z</time></trkpt><trkpt lat="46.2296354" lon="8.3060464"><ele>916.0</ele><time>2026-04-26T09:39:00.105Z</time></trkpt><trkpt lat="46.2297026" lon="8.3060702"><ele>915.9999999999999</ele><time>2026-04-26T09:39:01.1Z</time></trkpt><trkpt lat="46.2297597" lon="8.3061153"><ele>916.0</ele><time>2026-04-26T09:39:02.098Z</time></trkpt><trkpt lat="46.2298104" lon="8.3062328"><ele>916.0</ele><time>2026-04-26T09:39:04.099Z</time></trkpt><trkpt lat="46.2298368" lon="8.3063265"><ele>916.0</ele><time>2026-04-26T09:39:06.103Z</time></trkpt><trkpt lat="46.2297635" lon="8.3064168"><ele>915.9999999999999</ele><time>2026-04-26T09:39:08.093Z</time></trkpt><trkpt lat="46.2296987" lon="8.3064487"><ele>916.0</ele><time>2026-04-26T09:39:09.103Z</time></trkpt><trkpt lat="46.2296261" lon="8.3064701"><ele>913.9999999999999</ele><time>2026-04-26T09:39:10.102Z</time></trkpt><trkpt lat="46.2295529" lon="8.3065002"><ele>912.0</ele><time>2026-04-26T09:39:11.108Z</time></trkpt><trkpt lat="46.2294758" lon="8.3065284"><ele>910.0</ele><time>2026-04-26T09:39:12.103Z</time></trkpt><trkpt lat="46.2293912" lon="8.3065467"><ele>908.0</ele><time>2026-04-26T09:39:13.12Z</time></trkpt><trkpt lat="46.2292952" lon="8.3065709"><ele>905.9999999999999</ele><time>2026-04-26T09:39:14.116Z</time></trkpt><trkpt lat="46.2292138" lon="8.3066026"><ele>904.0</ele><time>2026-04-26T09:39:15.113Z</time></trkpt><trkpt lat="46.2291421" lon="8.3066417"><ele>903.9999999999999</ele><time>2026-04-26T09:39:16.114Z</time></trkpt><trkpt lat="46.2290713" lon="8.3067042"><ele>904.0</ele><time>2026-04-26T09:39:17.116Z</time></trkpt><trkpt lat="46.2290256" lon="8.3067695"><ele>904.0</ele><time>2026-04-26T09:39:18.118Z</time></trkpt><trkpt lat="46.2290832" lon="8.3068798"><ele>904.0</ele><time>2026-04-26T09:39:20.11Z</time></trkpt><trkpt lat="46.2291411" lon="8.3069345"><ele>903.9999999999999</ele><time>2026-04-26T09:39:21.126Z</time></trkpt><trkpt lat="46.2292093" lon="8.3069981"><ele>904.0</ele><time>2026-04-26T09:39:22.117Z</time></trkpt><trkpt lat="46.2292846" lon="8.3070632"><ele>903.9999999999999</ele><time>2026-04-26T09:39:23.111Z</time></trkpt><trkpt lat="46.2293617" lon="8.307116"><ele>904.0</ele><time>2026-04-26T09:39:24.12Z</time></trkpt><trkpt lat="46.2294387" lon="8.3071281"><ele>904.0</ele><time>2026-04-26T09:39:25.109Z</time></trkpt><trkpt lat="46.2295025" lon="8.3071191"><ele>904.0</ele><time>2026-04-26T09:39:26.114Z</time></trkpt><trkpt lat="46.2295907" lon="8.3071056"><ele>903.9999999999999</ele><time>2026-04-26T09:39:28.112Z</time></trkpt><trkpt lat="46.2296496" lon="8.3071445"><ele>904.0</ele><time>2026-04-26T09:39:45.095Z</time></trkpt><trkpt lat="46.2297161" lon="8.307178"><ele>904.0</ele><time>2026-04-26T09:39:47.099Z</time></trkpt><trkpt lat="46.2298209" lon="8.3072282"><ele>904.0000000000001</ele><time>2026-04-26T09:39:49.098Z</time></trkpt><trkpt lat="46.2299038" lon="8.3073275"><ele>904.0000000000001</ele><time>2026-04-26T09:39:51.095Z</time></trkpt><trkpt lat="46.2299056" lon="8.3074357"><ele>904.0</ele><time>2026-04-26T09:39:53.1Z</time></trkpt><trkpt lat="46.2298789" lon="8.3075619"><ele>904.0</ele><time>2026-04-26T09:39:55.101Z</time></trkpt><trkpt lat="46.2298233" lon="8.3076591"><ele>902.4999999999999</ele><time>2026-04-26T09:40:02.111Z</time></trkpt><trkpt lat="46.2298587" lon="8.3077412"><ele>901.0</ele><time>2026-04-26T09:40:05.111Z</time></trkpt><trkpt lat="46.2299283" lon="8.3078401"><ele>899.5</ele><time>2026-04-26T09:40:07.108Z</time></trkpt><trkpt lat="46.2300015" lon="8.3078843"><ele>898.0</ele><time>2026-04-26T09:40:08.099Z</time></trkpt><trkpt lat="46.2300664" lon="8.3079434"><ele>896.4999999999999</ele><time>2026-04-26T09:40:09.098Z</time></trkpt><trkpt lat="46.2301399" lon="8.3080104"><ele>895.0</ele><time>2026-04-26T09:40:10.1Z</time></trkpt><trkpt lat="46.2302124" lon="8.3080309"><ele>894.9999999999999</ele><time>2026-04-26T09:40:11.106Z</time></trkpt><trkpt lat="46.2302886" lon="8.3080376"><ele>895.0</ele><time>2026-04-26T09:40:12.097Z</time></trkpt><trkpt lat="46.2303717" lon="8.3080417"><ele>895.0</ele><time>2026-04-26T09:40:13.096Z</time></trkpt><trkpt lat="46.2304595" lon="8.3080539"><ele>895.0</ele><time>2026-04-26T09:40:14.098Z</time></trkpt><trkpt lat="46.230548" lon="8.3080561"><ele>894.9999999999999</ele><time>2026-04-26T09:40:15.092Z</time></trkpt><trkpt lat="46.2306348" lon="8.3080465"><ele>895.0</ele><time>2026-04-26T09:40:16.093Z</time></trkpt><trkpt lat="46.2307258" lon="8.3080155"><ele>894.9999999999999</ele><time>2026-04-26T09:40:17.091Z</time></trkpt><trkpt lat="46.2307981" lon="8.3079733"><ele>895.0</ele><time>2026-04-26T09:40:18.1Z</time></trkpt><trkpt lat="46.2308701" lon="8.3079259"><ele>895.0</ele><time>2026-04-26T09:40:19.095Z</time></trkpt><trkpt lat="46.2309423" lon="8.3078879"><ele>895.0</ele><time>2026-04-26T09:40:20.096Z</time></trkpt><trkpt lat="46.2310088" lon="8.3078487"><ele>894.9999999999999</ele><time>2026-04-26T09:40:21.104Z</time></trkpt><trkpt lat="46.2310688" lon="8.3077981"><ele>895.0</ele><time>2026-04-26T09:40:22.105Z</time></trkpt><trkpt lat="46.2311325" lon="8.3077413"><ele>895.0</ele><time>2026-04-26T09:40:23.113Z</time></trkpt><trkpt lat="46.2311957" lon="8.3076816"><ele>895.0</ele><time>2026-04-26T09:40:24.101Z</time></trkpt><trkpt lat="46.2312574" lon="8.3076248"><ele>895.0</ele><time>2026-04-26T09:40:25.112Z</time></trkpt><trkpt lat="46.2313132" lon="8.3075681"><ele>895.0</ele><time>2026-04-26T09:40:26.109Z</time></trkpt><trkpt lat="46.231373" lon="8.3075099"><ele>895.0</ele><time>2026-04-26T09:40:27.107Z</time></trkpt><trkpt lat="46.231432" lon="8.3074612"><ele>895.0</ele><time>2026-04-26T09:40:28.106Z</time></trkpt><trkpt lat="46.2314899" lon="8.3074187"><ele>895.0</ele><time>2026-04-26T09:40:29.11Z</time></trkpt><trkpt lat="46.2315477" lon="8.3073811"><ele>892.4999999999999</ele><time>2026-04-26T09:40:30.118Z</time></trkpt><trkpt lat="46.2316073" lon="8.30735"><ele>890.0</ele><time>2026-04-26T09:40:31.108Z</time></trkpt><trkpt lat="46.23173" lon="8.3073245"><ele>887.5</ele><time>2026-04-26T09:40:33.104Z</time></trkpt><trkpt lat="46.2317946" lon="8.3073175"><ele>885.0</ele><time>2026-04-26T09:40:34.11Z</time></trkpt><trkpt lat="46.2318593" lon="8.3073142"><ele>882.4999999999999</ele><time>2026-04-26T09:40:35.108Z</time></trkpt><trkpt lat="46.2319319" lon="8.3073119"><ele>880.0</ele><time>2026-04-26T09:40:36.11Z</time></trkpt><trkpt lat="46.2320008" lon="8.3073022"><ele>879.9999999999999</ele><time>2026-04-26T09:40:37.117Z</time></trkpt><trkpt lat="46.2320707" lon="8.3072965"><ele>880.0</ele><time>2026-04-26T09:40:38.114Z</time></trkpt><trkpt lat="46.2321415" lon="8.3072945"><ele>880.0</ele><time>2026-04-26T09:40:39.123Z</time></trkpt><trkpt lat="46.2322169" lon="8.3072836"><ele>880.0</ele><time>2026-04-26T09:40:40.118Z</time></trkpt><trkpt lat="46.2322826" lon="8.307271"><ele>880.0</ele><time>2026-04-26T09:40:41.118Z</time></trkpt><trkpt lat="46.2323503" lon="8.3072599"><ele>879.9999999999999</ele><time>2026-04-26T09:40:42.117Z</time></trkpt><trkpt lat="46.2324144" lon="8.3072544"><ele>880.0</ele><time>2026-04-26T09:40:43.118Z</time></trkpt><trkpt lat="46.2324819" lon="8.3072435"><ele>881.4285714285713</ele><time>2026-04-26T09:40:44.118Z</time></trkpt><trkpt lat="46.232546" lon="8.3072317"><ele>882.8571428571429</ele><time>2026-04-26T09:40:45.11Z</time></trkpt><trkpt lat="46.2326096" lon="8.3072166"><ele>884.2857142857142</ele><time>2026-04-26T09:40:46.119Z</time></trkpt><trkpt lat="46.2326761" lon="8.3071905"><ele>885.7142857142857</ele><time>2026-04-26T09:40:47.104Z</time></trkpt><trkpt lat="46.2327366" lon="8.3071633"><ele>887.1428571428571</ele><time>2026-04-26T09:40:48.118Z</time></trkpt><trkpt lat="46.2327991" lon="8.3071168"><ele>888.5714285714286</ele><time>2026-04-26T09:40:49.113Z</time></trkpt><trkpt lat="46.2328566" lon="8.3070491"><ele>890.0</ele><time>2026-04-26T09:40:50.109Z</time></trkpt><trkpt lat="46.2329086" lon="8.3069793"><ele>890.0000000000001</ele><time>2026-04-26T09:40:51.117Z</time></trkpt><trkpt lat="46.2329577" lon="8.3069001"><ele>890.0</ele><time>2026-04-26T09:40:52.116Z</time></trkpt><trkpt lat="46.2330042" lon="8.3068172"><ele>890.0</ele><time>2026-04-26T09:40:53.114Z</time></trkpt><trkpt lat="46.2330539" lon="8.306737"><ele>890.0</ele><time>2026-04-26T09:40:54.128Z</time></trkpt><trkpt lat="46.2331038" lon="8.3066515"><ele>890.0000000000001</ele><time>2026-04-26T09:40:55.113Z</time></trkpt><trkpt lat="46.2331527" lon="8.3065633"><ele>890.0</ele><time>2026-04-26T09:40:56.112Z</time></trkpt><trkpt lat="46.2332027" lon="8.3064725"><ele>889.8333333333334</ele><time>2026-04-26T09:40:57.109Z</time></trkpt><trkpt lat="46.2332546" lon="8.3063854"><ele>889.6666666666667</ele><time>2026-04-26T09:40:58.115Z</time></trkpt><trkpt lat="46.2333036" lon="8.3062919"><ele>889.5</ele><time>2026-04-26T09:40:59.114Z</time></trkpt><trkpt lat="46.2333575" lon="8.3062026"><ele>889.3333333333333</ele><time>2026-04-26T09:41:00.113Z</time></trkpt><trkpt lat="46.233407" lon="8.3061081"><ele>889.1666666666666</ele><time>2026-04-26T09:41:01.11Z</time></trkpt><trkpt lat="46.2334636" lon="8.3060178"><ele>889.0</ele><time>2026-04-26T09:41:02.111Z</time></trkpt><trkpt lat="46.2335241" lon="8.3059318"><ele>888.9999999999999</ele><time>2026-04-26T09:41:03.11Z</time></trkpt><trkpt lat="46.2335838" lon="8.3058374"><ele>889.0</ele><time>2026-04-26T09:41:04.106Z</time></trkpt><trkpt lat="46.2336432" lon="8.3057498"><ele>889.0</ele><time>2026-04-26T09:41:05.108Z</time></trkpt><trkpt lat="46.2337015" lon="8.3056592"><ele>889.0</ele><time>2026-04-26T09:41:06.111Z</time></trkpt><trkpt lat="46.2337587" lon="8.3055727"><ele>888.9999999999999</ele><time>2026-04-26T09:41:07.113Z</time></trkpt><trkpt lat="46.2338168" lon="8.3054804"><ele>889.0</ele><time>2026-04-26T09:41:08.114Z</time></trkpt><trkpt lat="46.2338774" lon="8.3053932"><ele>888.1666666666666</ele><time>2026-04-26T09:41:09.117Z</time></trkpt><trkpt lat="46.2339329" lon="8.3052989"><ele>887.3333333333333</ele><time>2026-04-26T09:41:10.116Z</time></trkpt><trkpt lat="46.2339793" lon="8.3051964"><ele>886.5</ele><time>2026-04-26T09:41:11.114Z</time></trkpt><trkpt lat="46.2340106" lon="8.305086"><ele>885.6666666666667</ele><time>2026-04-26T09:41:12.115Z</time></trkpt><trkpt lat="46.2340461" lon="8.3049694"><ele>884.8333333333334</ele><time>2026-04-26T09:41:13.115Z</time></trkpt><trkpt lat="46.2340792" lon="8.3048507"><ele>884.0</ele><time>2026-04-26T09:41:14.115Z</time></trkpt><trkpt lat="46.2341079" lon="8.3047251"><ele>884.0000000000001</ele><time>2026-04-26T09:41:15.103Z</time></trkpt><trkpt lat="46.2341289" lon="8.3046051"><ele>884.0</ele><time>2026-04-26T09:41:16.106Z</time></trkpt><trkpt lat="46.2341521" lon="8.3044817"><ele>884.0</ele><time>2026-04-26T09:41:17.111Z</time></trkpt><trkpt lat="46.2341612" lon="8.3043586"><ele>884.0</ele><time>2026-04-26T09:41:18.101Z</time></trkpt><trkpt lat="46.2341739" lon="8.3042391"><ele>884.0000000000001</ele><time>2026-04-26T09:41:19.101Z</time></trkpt><trkpt lat="46.2341901" lon="8.3041171"><ele>884.0</ele><time>2026-04-26T09:41:20.102Z</time></trkpt><trkpt lat="46.2342044" lon="8.3040018"><ele>885.3333333333334</ele><time>2026-04-26T09:41:21.103Z</time></trkpt><trkpt lat="46.2342089" lon="8.3038957"><ele>886.6666666666667</ele><time>2026-04-26T09:41:22.095Z</time></trkpt><trkpt lat="46.2342196" lon="8.3037818"><ele>888.0</ele><time>2026-04-26T09:41:23.099Z</time></trkpt><trkpt lat="46.2342291" lon="8.3036683"><ele>889.3333333333333</ele><time>2026-04-26T09:41:24.102Z</time></trkpt><trkpt lat="46.2342404" lon="8.3035728"><ele>890.6666666666666</ele><time>2026-04-26T09:41:25.114Z</time></trkpt><trkpt lat="46.2342357" lon="8.3034161"><ele>892.0</ele><time>2026-04-26T09:41:27.102Z</time></trkpt><trkpt lat="46.2342304" lon="8.3033108"><ele>891.9999999999999</ele><time>2026-04-26T09:41:29.106Z</time></trkpt><trkpt lat="46.2342598" lon="8.3032127"><ele>892.0</ele><time>2026-04-26T09:41:31.106Z</time></trkpt><trkpt lat="46.2343199" lon="8.3031428"><ele>892.0</ele><time>2026-04-26T09:41:34.095Z</time></trkpt><trkpt lat="46.2343732" lon="8.3032085"><ele>892.0</ele><time>2026-04-26T09:41:50.1Z</time></trkpt><trkpt lat="46.2344387" lon="8.3033289"><ele>891.9999999999999</ele><time>2026-04-26T09:41:53.093Z</time></trkpt><trkpt lat="46.2344808" lon="8.3034318"><ele>892.0</ele><time>2026-04-26T09:41:55.091Z</time></trkpt><trkpt lat="46.2345443" lon="8.3035606"><ele>892.0</ele><time>2026-04-26T09:41:57.093Z</time></trkpt><trkpt lat="46.2345993" lon="8.3037105"><ele>892.0</ele><time>2026-04-26T09:41:59.089Z</time></trkpt><trkpt lat="46.234661" lon="8.3038723"><ele>892.0</ele><time>2026-04-26T09:42:01.103Z</time></trkpt><trkpt lat="46.2347245" lon="8.3040336"><ele>892.0</ele><time>2026-04-26T09:42:03.089Z</time></trkpt><trkpt lat="46.2347903" lon="8.3041783"><ele>890.2</ele><time>2026-04-26T09:42:05.09Z</time></trkpt><trkpt lat="46.2348552" lon="8.3042971"><ele>888.4000000000001</ele><time>2026-04-26T09:42:07.091Z</time></trkpt><trkpt lat="46.2349207" lon="8.3044205"><ele>886.5999999999999</ele><time>2026-04-26T09:42:09.109Z</time></trkpt><trkpt lat="46.2349914" lon="8.3045514"><ele>884.8</ele><time>2026-04-26T09:42:11.102Z</time></trkpt><trkpt lat="46.2350659" lon="8.3046857"><ele>883.0</ele><time>2026-04-26T09:42:13.093Z</time></trkpt><trkpt lat="46.2351348" lon="8.3048308"><ele>879.4</ele><time>2026-04-26T09:42:15.095Z</time></trkpt><trkpt lat="46.2351734" lon="8.3049103"><ele>875.8</ele><time>2026-04-26T09:42:16.095Z</time></trkpt><trkpt lat="46.2352149" lon="8.3049832"><ele>872.2</ele><time>2026-04-26T09:42:17.104Z</time></trkpt><trkpt lat="46.2352921" lon="8.3051103"><ele>868.6</ele><time>2026-04-26T09:42:19.11Z</time></trkpt><trkpt lat="46.2353746" lon="8.3052483"><ele>865.0</ele><time>2026-04-26T09:42:21.097Z</time></trkpt><trkpt lat="46.2354487" lon="8.305385"><ele>865.0</ele><time>2026-04-26T09:42:23.084Z</time></trkpt><trkpt lat="46.2355228" lon="8.3055166"><ele>865.0</ele><time>2026-04-26T09:42:25.089Z</time></trkpt><trkpt lat="46.235599" lon="8.3056441"><ele>865.0</ele><time>2026-04-26T09:42:27.098Z</time></trkpt><trkpt lat="46.23567" lon="8.3057708"><ele>865.0</ele><time>2026-04-26T09:42:29.093Z</time></trkpt><trkpt lat="46.2357476" lon="8.3058723"><ele>866.3333333333333</ele><time>2026-04-26T09:42:31.096Z</time></trkpt><trkpt lat="46.2358062" lon="8.3059493"><ele>867.6666666666666</ele><time>2026-04-26T09:42:33.103Z</time></trkpt><trkpt lat="46.2358608" lon="8.3060213"><ele>869.0</ele><time>2026-04-26T09:42:35.099Z</time></trkpt><trkpt lat="46.2359568" lon="8.3060979"><ele>870.3333333333333</ele><time>2026-04-26T09:42:37.09Z</time></trkpt><trkpt lat="46.236035" lon="8.3061537"><ele>871.6666666666666</ele><time>2026-04-26T09:42:39.099Z</time></trkpt><trkpt lat="46.2361027" lon="8.3062369"><ele>873.0</ele><time>2026-04-26T09:42:41.105Z</time></trkpt><trkpt lat="46.2361817" lon="8.3063533"><ele>873.8</ele><time>2026-04-26T09:42:43.108Z</time></trkpt><trkpt lat="46.2362448" lon="8.3064764"><ele>874.5999999999999</ele><time>2026-04-26T09:42:45.092Z</time></trkpt><trkpt lat="46.2363225" lon="8.3065829"><ele>875.4000000000001</ele><time>2026-04-26T09:42:47.098Z</time></trkpt><trkpt lat="46.2364008" lon="8.3066659"><ele>876.2</ele><time>2026-04-26T09:42:49.094Z</time></trkpt><trkpt lat="46.2364956" lon="8.3067522"><ele>877.0</ele><time>2026-04-26T09:42:51.1Z</time></trkpt><trkpt lat="46.2365947" lon="8.3068232"><ele>876.9999999999999</ele><time>2026-04-26T09:42:53.103Z</time></trkpt><trkpt lat="46.236654" lon="8.3068544"><ele>877.0</ele><time>2026-04-26T09:42:54.101Z</time></trkpt><trkpt lat="46.236772" lon="8.3068881"><ele>877.0</ele><time>2026-04-26T09:42:56.111Z</time></trkpt><trkpt lat="46.2368444" lon="8.3068785"><ele>877.0</ele><time>2026-04-26T09:42:57.099Z</time></trkpt><trkpt lat="46.2369132" lon="8.306855"><ele>876.9999999999999</ele><time>2026-04-26T09:42:58.108Z</time></trkpt><trkpt lat="46.2369838" lon="8.3068338"><ele>877.0</ele><time>2026-04-26T09:42:59.099Z</time></trkpt><trkpt lat="46.2370588" lon="8.306833"><ele>877.0</ele><time>2026-04-26T09:43:00.1Z</time></trkpt><trkpt lat="46.2371336" lon="8.3068563"><ele>877.0</ele><time>2026-04-26T09:43:01.099Z</time></trkpt><trkpt lat="46.2371717" lon="8.3069533"><ele>877.0</ele><time>2026-04-26T09:43:03.095Z</time></trkpt><trkpt lat="46.2371261" lon="8.3070732"><ele>877.0</ele><time>2026-04-26T09:43:05.09Z</time></trkpt><trkpt lat="46.2370545" lon="8.3072094"><ele>877.0</ele><time>2026-04-26T09:43:07.081Z</time></trkpt><trkpt lat="46.2369891" lon="8.3073457"><ele>875.1666666666666</ele><time>2026-04-26T09:43:09.084Z</time></trkpt><trkpt lat="46.2369508" lon="8.3074505"><ele>873.3333333333333</ele><time>2026-04-26T09:43:11.084Z</time></trkpt><trkpt lat="46.236923" lon="8.3075819"><ele>871.5</ele><time>2026-04-26T09:43:13.093Z</time></trkpt><trkpt lat="46.2368913" lon="8.3077597"><ele>869.6666666666667</ele><time>2026-04-26T09:43:15.089Z</time></trkpt><trkpt lat="46.2368702" lon="8.3078567"><ele>867.8333333333334</ele><time>2026-04-26T09:43:16.092Z</time></trkpt><trkpt lat="46.236845" lon="8.3079528"><ele>866.0</ele><time>2026-04-26T09:43:17.087Z</time></trkpt><trkpt lat="46.2368218" lon="8.3080475"><ele>866.1999999999999</ele><time>2026-04-26T09:43:18.087Z</time></trkpt><trkpt lat="46.2367991" lon="8.3081376"><ele>866.3999999999999</ele><time>2026-04-26T09:43:19.083Z</time></trkpt><trkpt lat="46.2367674" lon="8.3083124"><ele>866.6</ele><time>2026-04-26T09:43:21.089Z</time></trkpt><trkpt lat="46.2367376" lon="8.3084823"><ele>866.8</ele><time>2026-04-26T09:43:23.085Z</time></trkpt><trkpt lat="46.2366912" lon="8.3086494"><ele>867.0</ele><time>2026-04-26T09:43:25.086Z</time></trkpt><trkpt lat="46.2366438" lon="8.308819"><ele>866.8</ele><time>2026-04-26T09:43:27.079Z</time></trkpt><trkpt lat="46.2366217" lon="8.3089121"><ele>866.6</ele><time>2026-04-26T09:43:28.081Z</time></trkpt><trkpt lat="46.2365824" lon="8.3090674"><ele>866.3999999999999</ele><time>2026-04-26T09:43:30.089Z</time></trkpt><trkpt lat="46.23656" lon="8.3091589"><ele>866.1999999999999</ele><time>2026-04-26T09:43:31.09Z</time></trkpt><trkpt lat="46.2365478" lon="8.3093319"><ele>866.0</ele><time>2026-04-26T09:43:33.094Z</time></trkpt><trkpt lat="46.2365679" lon="8.3094999"><ele>866.0</ele><time>2026-04-26T09:43:35.103Z</time></trkpt><trkpt lat="46.2366274" lon="8.3096433"><ele>866.0</ele><time>2026-04-26T09:43:37.105Z</time></trkpt><trkpt lat="46.2366959" lon="8.3097788"><ele>866.0</ele><time>2026-04-26T09:43:39.109Z</time></trkpt><trkpt lat="46.2367537" lon="8.3098961"><ele>866.0</ele><time>2026-04-26T09:43:41.106Z</time></trkpt><trkpt lat="46.2368638" lon="8.3099582"><ele>864.75</ele><time>2026-04-26T09:43:43.11Z</time></trkpt><trkpt lat="46.236974" lon="8.3099388"><ele>863.5</ele><time>2026-04-26T09:43:45.113Z</time></trkpt><trkpt lat="46.2370963" lon="8.3099185"><ele>862.25</ele><time>2026-04-26T09:43:47.111Z</time></trkpt><trkpt lat="46.2372072" lon="8.3099151"><ele>861.0</ele><time>2026-04-26T09:43:49.107Z</time></trkpt><trkpt lat="46.2373175" lon="8.3099445"><ele>863.4</ele><time>2026-04-26T09:43:51.108Z</time></trkpt><trkpt lat="46.2374073" lon="8.3099914"><ele>865.8</ele><time>2026-04-26T09:43:53.101Z</time></trkpt><trkpt lat="46.2374631" lon="8.3100414"><ele>868.1999999999999</ele><time>2026-04-26T09:43:55.097Z</time></trkpt><trkpt lat="46.237541" lon="8.3101556"><ele>870.5999999999999</ele><time>2026-04-26T09:43:57.096Z</time></trkpt><trkpt lat="46.2376116" lon="8.3102999"><ele>873.0</ele><time>2026-04-26T09:43:59.101Z</time></trkpt><trkpt lat="46.2377016" lon="8.3104072"><ele>873.0</ele><time>2026-04-26T09:44:01.098Z</time></trkpt><trkpt lat="46.2377802" lon="8.3105112"><ele>873.0</ele><time>2026-04-26T09:44:03.099Z</time></trkpt><trkpt lat="46.2378385" lon="8.3106354"><ele>873.0</ele><time>2026-04-26T09:44:05.096Z</time></trkpt><trkpt lat="46.2379104" lon="8.3107648"><ele>873.0</ele><time>2026-04-26T09:44:07.09Z</time></trkpt><trkpt lat="46.2379652" lon="8.3108814"><ele>873.0</ele><time>2026-04-26T09:44:09.103Z</time></trkpt><trkpt lat="46.2380276" lon="8.3110073"><ele>872.5999999999999</ele><time>2026-04-26T09:44:11.098Z</time></trkpt><trkpt lat="46.2381158" lon="8.3111521"><ele>872.1999999999999</ele><time>2026-04-26T09:44:13.097Z</time></trkpt><trkpt lat="46.2381743" lon="8.3112507"><ele>871.8</ele><time>2026-04-26T09:44:14.103Z</time></trkpt><trkpt lat="46.2382217" lon="8.3113418"><ele>871.4</ele><time>2026-04-26T09:44:15.107Z</time></trkpt><trkpt lat="46.2382741" lon="8.3114276"><ele>871.0</ele><time>2026-04-26T09:44:16.105Z</time></trkpt><trkpt lat="46.2383245" lon="8.3115117"><ele>869.6666666666666</ele><time>2026-04-26T09:44:17.102Z</time></trkpt><trkpt lat="46.2383645" lon="8.311592"><ele>868.3333333333333</ele><time>2026-04-26T09:44:18.095Z</time></trkpt><trkpt lat="46.2384329" lon="8.3117399"><ele>867.0</ele><time>2026-04-26T09:44:20.096Z</time></trkpt><trkpt lat="46.238485" lon="8.3118112"><ele>865.6666666666667</ele><time>2026-04-26T09:44:22.108Z</time></trkpt><trkpt lat="46.2385691" lon="8.3117895"><ele>864.3333333333334</ele><time>2026-04-26T09:44:24.108Z</time></trkpt><trkpt lat="46.2386458" lon="8.3117977"><ele>863.0</ele><time>2026-04-26T09:44:27.106Z</time></trkpt><trkpt lat="46.2386086" lon="8.3118816"><ele>863.0</ele><time>2026-04-26T09:44:32.108Z</time></trkpt><trkpt lat="46.2385541" lon="8.3119403"><ele>863.0</ele><time>2026-04-26T09:44:34.104Z</time></trkpt><trkpt lat="46.2384887" lon="8.3119851"><ele>863.0</ele><time>2026-04-26T09:44:36.105Z</time></trkpt><trkpt lat="46.2383985" lon="8.3120605"><ele>863.0</ele><time>2026-04-26T09:44:38.094Z</time></trkpt><trkpt lat="46.2382985" lon="8.312168"><ele>863.0</ele><time>2026-04-26T09:44:40.101Z</time></trkpt><trkpt lat="46.2382357" lon="8.312241"><ele>861.8333333333334</ele><time>2026-04-26T09:44:41.104Z</time></trkpt><trkpt lat="46.2381747" lon="8.312307"><ele>860.6666666666667</ele><time>2026-04-26T09:44:42.106Z</time></trkpt><trkpt lat="46.2381036" lon="8.3123669"><ele>859.5</ele><time>2026-04-26T09:44:43.102Z</time></trkpt><trkpt lat="46.2380266" lon="8.3124155"><ele>858.3333333333333</ele><time>2026-04-26T09:44:44.098Z</time></trkpt><trkpt lat="46.2379473" lon="8.3124763"><ele>857.1666666666666</ele><time>2026-04-26T09:44:45.091Z</time></trkpt><trkpt lat="46.2378654" lon="8.3125466"><ele>856.0</ele><time>2026-04-26T09:44:46.096Z</time></trkpt><trkpt lat="46.2377849" lon="8.3126021"><ele>855.9999999999999</ele><time>2026-04-26T09:44:47.097Z</time></trkpt><trkpt lat="46.2377004" lon="8.312654"><ele>856.0</ele><time>2026-04-26T09:44:48.092Z</time></trkpt><trkpt lat="46.2376165" lon="8.3126942"><ele>856.0</ele><time>2026-04-26T09:44:49.093Z</time></trkpt><trkpt lat="46.2375443" lon="8.3127374"><ele>856.0</ele><time>2026-04-26T09:44:50.094Z</time></trkpt><trkpt lat="46.2374399" lon="8.3128052"><ele>855.9999999999999</ele><time>2026-04-26T09:44:52.088Z</time></trkpt><trkpt lat="46.2373783" lon="8.3128541"><ele>856.0</ele><time>2026-04-26T09:44:53.092Z</time></trkpt><trkpt lat="46.2374471" lon="8.3128722"><ele>855.9999999999999</ele><time>2026-04-26T09:45:04.104Z</time></trkpt><trkpt lat="46.2375301" lon="8.3128072"><ele>856.0</ele><time>2026-04-26T09:45:06.1Z</time></trkpt><trkpt lat="46.2375914" lon="8.3127758"><ele>856.0</ele><time>2026-04-26T09:45:07.103Z</time></trkpt><trkpt lat="46.2376556" lon="8.3127401"><ele>856.0</ele><time>2026-04-26T09:45:08.098Z</time></trkpt><trkpt lat="46.2377336" lon="8.3127211"><ele>855.9999999999999</ele><time>2026-04-26T09:45:09.105Z</time></trkpt><trkpt lat="46.2378176" lon="8.3126864"><ele>856.0</ele><time>2026-04-26T09:45:10.098Z</time></trkpt><trkpt lat="46.2379073" lon="8.3126555"><ele>855.9999999999999</ele><time>2026-04-26T09:45:11.103Z</time></trkpt><trkpt lat="46.2379949" lon="8.3126337"><ele>856.0</ele><time>2026-04-26T09:45:12.103Z</time></trkpt><trkpt lat="46.2380711" lon="8.3126109"><ele>856.0</ele><time>2026-04-26T09:45:13.101Z</time></trkpt><trkpt lat="46.2381463" lon="8.3125922"><ele>856.0</ele><time>2026-04-26T09:45:14.096Z</time></trkpt><trkpt lat="46.2382236" lon="8.3125836"><ele>855.9999999999999</ele><time>2026-04-26T09:45:15.099Z</time></trkpt><trkpt lat="46.2383063" lon="8.3125888"><ele>856.0</ele><time>2026-04-26T09:45:16.101Z</time></trkpt><trkpt lat="46.23839" lon="8.3125906"><ele>854.1666666666666</ele><time>2026-04-26T09:45:17.096Z</time></trkpt><trkpt lat="46.2384739" lon="8.3126009"><ele>852.3333333333333</ele><time>2026-04-26T09:45:18.091Z</time></trkpt><trkpt lat="46.2385613" lon="8.312616"><ele>850.5</ele><time>2026-04-26T09:45:19.096Z</time></trkpt><trkpt lat="46.2386497" lon="8.3126372"><ele>848.6666666666667</ele><time>2026-04-26T09:45:20.097Z</time></trkpt><trkpt lat="46.2387346" lon="8.3126575"><ele>846.8333333333334</ele><time>2026-04-26T09:45:21.097Z</time></trkpt><trkpt lat="46.2388158" lon="8.3126717"><ele>845.0</ele><time>2026-04-26T09:45:22.091Z</time></trkpt><trkpt lat="46.2388858" lon="8.3126797"><ele>845.0000000000001</ele><time>2026-04-26T09:45:23.095Z</time></trkpt><trkpt lat="46.2389507" lon="8.3126817"><ele>845.0</ele><time>2026-04-26T09:45:24.093Z</time></trkpt><trkpt lat="46.2390533" lon="8.3127175"><ele>845.0</ele><time>2026-04-26T09:45:26.097Z</time></trkpt><trkpt lat="46.239007" lon="8.3127888"><ele>845.0</ele><time>2026-04-26T09:45:30.097Z</time></trkpt><trkpt lat="46.2389234" lon="8.3128666"><ele>845.0000000000001</ele><time>2026-04-26T09:45:32.106Z</time></trkpt><trkpt lat="46.2388829" lon="8.3129409"><ele>845.0</ele><time>2026-04-26T09:45:33.11Z</time></trkpt><trkpt lat="46.2388228" lon="8.3130263"><ele>841.4</ele><time>2026-04-26T09:45:34.098Z</time></trkpt><trkpt lat="46.2387655" lon="8.3131349"><ele>837.8</ele><time>2026-04-26T09:45:35.079Z</time></trkpt><trkpt lat="46.2386963" lon="8.3132363"><ele>834.2</ele><time>2026-04-26T09:45:36.101Z</time></trkpt><trkpt lat="46.2386209" lon="8.3133258"><ele>830.6</ele><time>2026-04-26T09:45:37.1Z</time></trkpt><trkpt lat="46.2385485" lon="8.313399"><ele>827.0</ele><time>2026-04-26T09:45:38.093Z</time></trkpt><trkpt lat="46.2384701" lon="8.3134816"><ele>827.0000000000001</ele><time>2026-04-26T09:45:39.102Z</time></trkpt><trkpt lat="46.2383954" lon="8.3135622"><ele>827.0</ele><time>2026-04-26T09:45:40.099Z</time></trkpt><trkpt lat="46.23832" lon="8.3136303"><ele>827.0</ele><time>2026-04-26T09:45:41.1Z</time></trkpt><trkpt lat="46.238249" lon="8.3136971"><ele>827.0</ele><time>2026-04-26T09:45:42.101Z</time></trkpt><trkpt lat="46.2381864" lon="8.3137687"><ele>827.0000000000001</ele><time>2026-04-26T09:45:43.093Z</time></trkpt><trkpt lat="46.2381371" lon="8.3138262"><ele>827.0</ele><time>2026-04-26T09:45:44.1Z</time></trkpt><trkpt lat="46.2380542" lon="8.313895"><ele>824.0000000000001</ele><time>2026-04-26T09:45:46.105Z</time></trkpt><trkpt lat="46.2379722" lon="8.3139207"><ele>821.0</ele><time>2026-04-26T09:45:48.095Z</time></trkpt><trkpt lat="46.2378996" lon="8.3139284"><ele>818.0</ele><time>2026-04-26T09:45:50.098Z</time></trkpt><trkpt lat="46.2378254" lon="8.3139602"><ele>815.0</ele><time>2026-04-26T09:45:52.101Z</time></trkpt><trkpt lat="46.2377293" lon="8.31399"><ele>812.0000000000001</ele><time>2026-04-26T09:45:54.1Z</time></trkpt><trkpt lat="46.2376476" lon="8.3140005"><ele>809.0</ele><time>2026-04-26T09:45:56.106Z</time></trkpt><trkpt lat="46.237582" lon="8.3139982"><ele>809.0000000000001</ele><time>2026-04-26T09:45:58.101Z</time></trkpt><trkpt lat="46.2374964" lon="8.3139991"><ele>809.0</ele><time>2026-04-26T09:46:01.104Z</time></trkpt><trkpt lat="46.2374238" lon="8.3139858"><ele>809.0</ele><time>2026-04-26T09:46:11.103Z</time></trkpt><trkpt lat="46.23736" lon="8.3140104"><ele>809.0</ele><time>2026-04-26T09:46:17.083Z</time></trkpt><trkpt lat="46.2374187" lon="8.3140947"><ele>809.0000000000001</ele><time>2026-04-26T09:46:25.099Z</time></trkpt><trkpt lat="46.2374955" lon="8.3141469"><ele>809.0</ele><time>2026-04-26T09:46:27.09Z</time></trkpt><trkpt lat="46.2375684" lon="8.3141579"><ele>809.0</ele><time>2026-04-26T09:46:29.111Z</time></trkpt><trkpt lat="46.2376567" lon="8.3141408"><ele>809.0</ele><time>2026-04-26T09:46:33.097Z</time></trkpt><trkpt lat="46.2377309" lon="8.3141555"><ele>809.0</ele><time>2026-04-26T09:46:39.106Z</time></trkpt><trkpt lat="46.237795" lon="8.3141527"><ele>809.0</ele><time>2026-04-26T09:46:42.103Z</time></trkpt><trkpt lat="46.2378563" lon="8.3141307"><ele>809.0</ele><time>2026-04-26T09:46:44.104Z</time></trkpt><trkpt lat="46.2379249" lon="8.3141055"><ele>809.0</ele><time>2026-04-26T09:46:46.102Z</time></trkpt><trkpt lat="46.2380085" lon="8.314074"><ele>809.0</ele><time>2026-04-26T09:46:48.107Z</time></trkpt><trkpt lat="46.2380809" lon="8.3140266"><ele>810.4000000000001</ele><time>2026-04-26T09:46:50.105Z</time></trkpt><trkpt lat="46.2381465" lon="8.3140101"><ele>811.8</ele><time>2026-04-26T09:46:52.1Z</time></trkpt><trkpt lat="46.2382403" lon="8.3140104"><ele>813.2</ele><time>2026-04-26T09:46:54.093Z</time></trkpt><trkpt lat="46.2383392" lon="8.3140431"><ele>814.5999999999999</ele><time>2026-04-26T09:46:56.103Z</time></trkpt><trkpt lat="46.2384487" lon="8.3140886"><ele>816.0</ele><time>2026-04-26T09:46:58.108Z</time></trkpt><trkpt lat="46.2385622" lon="8.3141454"><ele>816.0</ele><time>2026-04-26T09:47:00.107Z</time></trkpt><trkpt lat="46.2386691" lon="8.3142069"><ele>816.0</ele><time>2026-04-26T09:47:02.107Z</time></trkpt><trkpt lat="46.2387841" lon="8.3142612"><ele>816.0</ele><time>2026-04-26T09:47:04.103Z</time></trkpt><trkpt lat="46.2388456" lon="8.3142857"><ele>816.0</ele><time>2026-04-26T09:47:05.101Z</time></trkpt><trkpt lat="46.2389088" lon="8.3143007"><ele>816.0</ele><time>2026-04-26T09:47:06.114Z</time></trkpt><trkpt lat="46.2389714" lon="8.3143177"><ele>816.0</ele><time>2026-04-26T09:47:07.1Z</time></trkpt><trkpt lat="46.2390913" lon="8.3143361"><ele>815.25</ele><time>2026-04-26T09:47:09.105Z</time></trkpt><trkpt lat="46.2391974" lon="8.3143485"><ele>814.5</ele><time>2026-04-26T09:47:11.099Z</time></trkpt><trkpt lat="46.2393191" lon="8.3143529"><ele>813.75</ele><time>2026-04-26T09:47:13.104Z</time></trkpt><trkpt lat="46.2394395" lon="8.3143775"><ele>813.0</ele><time>2026-04-26T09:47:15.099Z</time></trkpt><trkpt lat="46.2395546" lon="8.3144022"><ele>813.0</ele><time>2026-04-26T09:47:17.101Z</time></trkpt><trkpt lat="46.2396801" lon="8.3144226"><ele>813.0</ele><time>2026-04-26T09:47:19.104Z</time></trkpt><trkpt lat="46.2397466" lon="8.3144218"><ele>813.0</ele><time>2026-04-26T09:47:20.102Z</time></trkpt><trkpt lat="46.2398696" lon="8.3144135"><ele>813.0</ele><time>2026-04-26T09:47:22.102Z</time></trkpt><trkpt lat="46.2399349" lon="8.3143982"><ele>813.0</ele><time>2026-04-26T09:47:23.103Z</time></trkpt><trkpt lat="46.2399993" lon="8.3143787"><ele>813.0</ele><time>2026-04-26T09:47:24.102Z</time></trkpt><trkpt lat="46.2401085" lon="8.3143244"><ele>812.5999999999999</ele><time>2026-04-26T09:47:26.108Z</time></trkpt><trkpt lat="46.2402077" lon="8.3142667"><ele>812.1999999999999</ele><time>2026-04-26T09:47:28.107Z</time></trkpt><trkpt lat="46.240308" lon="8.3142214"><ele>811.8</ele><time>2026-04-26T09:47:30.1Z</time></trkpt><trkpt lat="46.2404004" lon="8.3141797"><ele>811.4</ele><time>2026-04-26T09:47:32.103Z</time></trkpt><trkpt lat="46.2404914" lon="8.314128"><ele>811.0</ele><time>2026-04-26T09:47:34.098Z</time></trkpt><trkpt lat="46.2405708" lon="8.3140968"><ele>811.3333333333333</ele><time>2026-04-26T09:47:36.095Z</time></trkpt><trkpt lat="46.2406449" lon="8.3140706"><ele>811.6666666666666</ele><time>2026-04-26T09:47:38.103Z</time></trkpt><trkpt lat="46.2407305" lon="8.3140732"><ele>812.0</ele><time>2026-04-26T09:47:41.098Z</time></trkpt><trkpt lat="46.2407986" lon="8.314077"><ele>812.3333333333333</ele><time>2026-04-26T09:47:43.096Z</time></trkpt><trkpt lat="46.240868" lon="8.3140897"><ele>812.6666666666666</ele><time>2026-04-26T09:47:45.104Z</time></trkpt><trkpt lat="46.2409455" lon="8.3141008"><ele>813.0</ele><time>2026-04-26T09:47:47.098Z</time></trkpt><trkpt lat="46.2410322" lon="8.3141141"><ele>813.0</ele><time>2026-04-26T09:47:49.097Z</time></trkpt><trkpt lat="46.241132" lon="8.3141228"><ele>813.0</ele><time>2026-04-26T09:47:51.101Z</time></trkpt><trkpt lat="46.2412278" lon="8.3141598"><ele>813.0</ele><time>2026-04-26T09:47:53.096Z</time></trkpt><trkpt lat="46.2413154" lon="8.3142621"><ele>813.0</ele><time>2026-04-26T09:47:55.097Z</time></trkpt><trkpt lat="46.2414099" lon="8.314372"><ele>813.0</ele><time>2026-04-26T09:47:57.1Z</time></trkpt><trkpt lat="46.2414684" lon="8.3144269"><ele>813.3333333333334</ele><time>2026-04-26T09:47:58.099Z</time></trkpt><trkpt lat="46.2415352" lon="8.3144821"><ele>813.6666666666667</ele><time>2026-04-26T09:47:59.101Z</time></trkpt><trkpt lat="46.2416027" lon="8.3145301"><ele>814.0</ele><time>2026-04-26T09:48:00.103Z</time></trkpt><trkpt lat="46.2416721" lon="8.3145786"><ele>814.3333333333334</ele><time>2026-04-26T09:48:01.098Z</time></trkpt><trkpt lat="46.2417383" lon="8.314622"><ele>814.6666666666667</ele><time>2026-04-26T09:48:02.098Z</time></trkpt><trkpt lat="46.2418057" lon="8.3146494"><ele>815.0</ele><time>2026-04-26T09:48:03.1Z</time></trkpt><trkpt lat="46.2419268" lon="8.3146553"><ele>815.0000000000001</ele><time>2026-04-26T09:48:05.096Z</time></trkpt><trkpt lat="46.2420173" lon="8.3146539"><ele>815.0</ele><time>2026-04-26T09:48:07.113Z</time></trkpt><trkpt lat="46.2420908" lon="8.3146514"><ele>815.0</ele><time>2026-04-26T09:48:09.114Z</time></trkpt><trkpt lat="46.242156" lon="8.3146509"><ele>815.0</ele><time>2026-04-26T09:48:11.104Z</time></trkpt><trkpt lat="46.242254" lon="8.3146858"><ele>815.0000000000001</ele><time>2026-04-26T09:48:14.106Z</time></trkpt><trkpt lat="46.2423393" lon="8.3147095"><ele>815.0</ele><time>2026-04-26T09:48:16.103Z</time></trkpt><trkpt lat="46.2424494" lon="8.3147035"><ele>815.2</ele><time>2026-04-26T09:48:18.103Z</time></trkpt><trkpt lat="46.2425532" lon="8.3146864"><ele>815.4</ele><time>2026-04-26T09:48:20.106Z</time></trkpt><trkpt lat="46.2426445" lon="8.3146393"><ele>815.5999999999999</ele><time>2026-04-26T09:48:22.105Z</time></trkpt><trkpt lat="46.2427371" lon="8.3145957"><ele>815.8</ele><time>2026-04-26T09:48:24.11Z</time></trkpt><trkpt lat="46.2428291" lon="8.314553"><ele>816.0</ele><time>2026-04-26T09:48:26.106Z</time></trkpt><trkpt lat="46.2429114" lon="8.3145042"><ele>816.0</ele><time>2026-04-26T09:48:28.102Z</time></trkpt><trkpt lat="46.2430143" lon="8.3144434"><ele>816.0</ele><time>2026-04-26T09:48:30.104Z</time></trkpt><trkpt lat="46.2431269" lon="8.3144034"><ele>816.0</ele><time>2026-04-26T09:48:32.1Z</time></trkpt><trkpt lat="46.2432011" lon="8.314391"><ele>816.0</ele><time>2026-04-26T09:48:33.104Z</time></trkpt><trkpt lat="46.2432737" lon="8.314381"><ele>816.0</ele><time>2026-04-26T09:48:34.099Z</time></trkpt><trkpt lat="46.2433482" lon="8.3143657"><ele>815.0</ele><time>2026-04-26T09:48:35.108Z</time></trkpt><trkpt lat="46.2434292" lon="8.3143348"><ele>814.0</ele><time>2026-04-26T09:48:36.102Z</time></trkpt><trkpt lat="46.2435149" lon="8.3142941"><ele>813.0</ele><time>2026-04-26T09:48:37.098Z</time></trkpt><trkpt lat="46.2436063" lon="8.3142628"><ele>812.0</ele><time>2026-04-26T09:48:38.119Z</time></trkpt><trkpt lat="46.2437032" lon="8.3142281"><ele>811.0</ele><time>2026-04-26T09:48:39.107Z</time></trkpt><trkpt lat="46.2437998" lon="8.3141844"><ele>811.0</ele><time>2026-04-26T09:48:40.104Z</time></trkpt><trkpt lat="46.2438994" lon="8.3141411"><ele>811.0</ele><time>2026-04-26T09:48:41.102Z</time></trkpt><trkpt lat="46.2440001" lon="8.3141097"><ele>811.0</ele><time>2026-04-26T09:48:42.102Z</time></trkpt><trkpt lat="46.2441005" lon="8.3140963"><ele>811.0</ele><time>2026-04-26T09:48:43.103Z</time></trkpt><trkpt lat="46.2442023" lon="8.3141009"><ele>811.0</ele><time>2026-04-26T09:48:44.105Z</time></trkpt><trkpt lat="46.2443176" lon="8.3141224"><ele>808.8</ele><time>2026-04-26T09:48:45.085Z</time></trkpt><trkpt lat="46.2444341" lon="8.3141521"><ele>806.5999999999999</ele><time>2026-04-26T09:48:46.1Z</time></trkpt><trkpt lat="46.24454" lon="8.3141685"><ele>804.4</ele><time>2026-04-26T09:48:47.098Z</time></trkpt><trkpt lat="46.2446441" lon="8.3141671"><ele>802.2</ele><time>2026-04-26T09:48:48.1Z</time></trkpt><trkpt lat="46.2447291" lon="8.3141389"><ele>800.0</ele><time>2026-04-26T09:48:49.093Z</time></trkpt><trkpt lat="46.2448173" lon="8.3140957"><ele>799.8</ele><time>2026-04-26T09:48:50.1Z</time></trkpt><trkpt lat="46.2449189" lon="8.3140525"><ele>799.6</ele><time>2026-04-26T09:48:51.096Z</time></trkpt><trkpt lat="46.2450226" lon="8.3140232"><ele>799.4000000000001</ele><time>2026-04-26T09:48:52.097Z</time></trkpt><trkpt lat="46.2451287" lon="8.3140298"><ele>799.2</ele><time>2026-04-26T09:48:53.096Z</time></trkpt><trkpt lat="46.245242" lon="8.3140564"><ele>799.0</ele><time>2026-04-26T09:48:54.105Z</time></trkpt><trkpt lat="46.2453488" lon="8.3140935"><ele>799.0</ele><time>2026-04-26T09:48:55.1Z</time></trkpt><trkpt lat="46.2454605" lon="8.3141192"><ele>799.0</ele><time>2026-04-26T09:48:56.1Z</time></trkpt><trkpt lat="46.2455712" lon="8.3141501"><ele>799.0</ele><time>2026-04-26T09:48:57.095Z</time></trkpt><trkpt lat="46.245685" lon="8.3141874"><ele>799.0</ele><time>2026-04-26T09:48:58.097Z</time></trkpt><trkpt lat="46.2457914" lon="8.3142167"><ele>798.2</ele><time>2026-04-26T09:48:59.093Z</time></trkpt><trkpt lat="46.2458895" lon="8.3142489"><ele>797.4000000000001</ele><time>2026-04-26T09:49:00.099Z</time></trkpt><trkpt lat="46.2459766" lon="8.3142852"><ele>796.6</ele><time>2026-04-26T09:49:01.101Z</time></trkpt><trkpt lat="46.2460605" lon="8.3143305"><ele>795.8</ele><time>2026-04-26T09:49:02.115Z</time></trkpt><trkpt lat="46.2461127" lon="8.3144015"><ele>795.0</ele><time>2026-04-26T09:49:03.115Z</time></trkpt><trkpt lat="46.2461774" lon="8.3145326"><ele>795.0</ele><time>2026-04-26T09:49:05.115Z</time></trkpt><trkpt lat="46.2462594" lon="8.3145826"><ele>795.0</ele><time>2026-04-26T09:49:07.104Z</time></trkpt><trkpt lat="46.2463243" lon="8.3145971"><ele>795.0</ele><time>2026-04-26T09:49:09.106Z</time></trkpt><trkpt lat="46.2463839" lon="8.3145639"><ele>795.0</ele><time>2026-04-26T09:49:11.101Z</time></trkpt><trkpt lat="46.2464569" lon="8.3145795"><ele>795.0</ele><time>2026-04-26T09:49:13.096Z</time></trkpt><trkpt lat="46.2465282" lon="8.3146252"><ele>795.0</ele><time>2026-04-26T09:49:15.091Z</time></trkpt><trkpt lat="46.2466067" lon="8.314671"><ele>795.5</ele><time>2026-04-26T09:49:17.093Z</time></trkpt><trkpt lat="46.2466691" lon="8.3146929"><ele>796.0</ele><time>2026-04-26T09:49:19.098Z</time></trkpt><trkpt lat="46.2467521" lon="8.3147026"><ele>796.5</ele><time>2026-04-26T09:49:21.104Z</time></trkpt><trkpt lat="46.2468564" lon="8.3147151"><ele>797.0</ele><time>2026-04-26T09:49:23.093Z</time></trkpt><trkpt lat="46.2469174" lon="8.3147433"><ele>797.5</ele><time>2026-04-26T09:49:24.09Z</time></trkpt><trkpt lat="46.246985" lon="8.3147532"><ele>798.0</ele><time>2026-04-26T09:49:25.093Z</time></trkpt><trkpt lat="46.2470469" lon="8.3147895"><ele>796.1666666666666</ele><time>2026-04-26T09:49:26.098Z</time></trkpt><trkpt lat="46.2471407" lon="8.314885"><ele>794.3333333333333</ele><time>2026-04-26T09:49:28.097Z</time></trkpt><trkpt lat="46.2472047" lon="8.3149432"><ele>792.5</ele><time>2026-04-26T09:49:30.105Z</time></trkpt><trkpt lat="46.2472814" lon="8.3149474"><ele>790.6666666666666</ele><time>2026-04-26T09:49:33.095Z</time></trkpt><trkpt lat="46.2473564" lon="8.314933"><ele>788.8333333333333</ele><time>2026-04-26T09:49:35.089Z</time></trkpt><trkpt lat="46.2474264" lon="8.3149217"><ele>787.0</ele><time>2026-04-26T09:49:36.093Z</time></trkpt><trkpt lat="46.2474947" lon="8.3149084"><ele>785.1666666666666</ele><time>2026-04-26T09:49:37.087Z</time></trkpt><trkpt lat="46.2475667" lon="8.3149111"><ele>783.3333333333333</ele><time>2026-04-26T09:49:43.081Z</time></trkpt><trkpt lat="46.2476723" lon="8.3148633"><ele>781.5</ele><time>2026-04-26T09:50:52.094Z</time></trkpt><trkpt lat="46.2476736" lon="8.3149665"><ele>779.6666666666667</ele><time>2026-04-26T09:50:56.103Z</time></trkpt><trkpt lat="46.247676" lon="8.3150593"><ele>777.8333333333334</ele><time>2026-04-26T09:50:58.089Z</time></trkpt><trkpt lat="46.2476026" lon="8.3150944"><ele>776.0</ele><time>2026-04-26T09:51:06.086Z</time></trkpt><trkpt lat="46.2475343" lon="8.315106"><ele>776.0000000000001</ele><time>2026-04-26T09:51:09.092Z</time></trkpt><trkpt lat="46.2474499" lon="8.3151249"><ele>776.0</ele><time>2026-04-26T09:51:11.084Z</time></trkpt><trkpt lat="46.2473798" lon="8.3151409"><ele>776.0</ele><time>2026-04-26T09:51:13.092Z</time></trkpt><trkpt lat="46.2473005" lon="8.3151953"><ele>776.0</ele><time>2026-04-26T09:51:16.084Z</time></trkpt><trkpt lat="46.2472335" lon="8.3152406"><ele>776.0000000000001</ele><time>2026-04-26T09:51:19.086Z</time></trkpt><trkpt lat="46.2471602" lon="8.3152855"><ele>776.0</ele><time>2026-04-26T09:51:22.083Z</time></trkpt><trkpt lat="46.2470916" lon="8.3153305"><ele>776.6666666666667</ele><time>2026-04-26T09:51:25.08Z</time></trkpt><trkpt lat="46.2470229" lon="8.315348"><ele>777.3333333333334</ele><time>2026-04-26T09:51:28.082Z</time></trkpt><trkpt lat="46.246942" lon="8.3154071"><ele>778.0</ele><time>2026-04-26T09:51:31.084Z</time></trkpt><trkpt lat="46.2468834" lon="8.3154899"><ele>778.6666666666667</ele><time>2026-04-26T09:51:34.084Z</time></trkpt><trkpt lat="46.2468334" lon="8.3155581"><ele>779.3333333333334</ele><time>2026-04-26T09:51:36.083Z</time></trkpt><trkpt lat="46.2467473" lon="8.3156636"><ele>780.0</ele><time>2026-04-26T09:51:42.085Z</time></trkpt><trkpt lat="46.2466235" lon="8.3157376"><ele>780.0</ele><time>2026-04-26T09:51:44.088Z</time></trkpt><trkpt lat="46.2465794" lon="8.3158116"><ele>780.0</ele><time>2026-04-26T09:51:45.079Z</time></trkpt><trkpt lat="46.246533" lon="8.3159222"><ele>780.0</ele><time>2026-04-26T09:51:47.086Z</time></trkpt><trkpt lat="46.246524" lon="8.3160318"><ele>780.0</ele><time>2026-04-26T09:51:49.082Z</time></trkpt><trkpt lat="46.2465136" lon="8.3161414"><ele>780.0</ele><time>2026-04-26T09:51:51.083Z</time></trkpt><trkpt lat="46.2464905" lon="8.3162529"><ele>780.0</ele><time>2026-04-26T09:51:53.083Z</time></trkpt><trkpt lat="46.2464692" lon="8.3163809"><ele>778.6666666666666</ele><time>2026-04-26T09:51:55.08Z</time></trkpt><trkpt lat="46.2464637" lon="8.3164762"><ele>777.3333333333333</ele><time>2026-04-26T09:51:57.085Z</time></trkpt><trkpt lat="46.2464881" lon="8.316562"><ele>776.0</ele><time>2026-04-26T09:52:00.086Z</time></trkpt><trkpt lat="46.2464116" lon="8.316619"><ele>774.6666666666666</ele><time>2026-04-26T09:52:15.096Z</time></trkpt><trkpt lat="46.2463477" lon="8.3166066"><ele>773.3333333333333</ele><time>2026-04-26T09:52:17.079Z</time></trkpt><trkpt lat="46.2462909" lon="8.3165142"><ele>772.0</ele><time>2026-04-26T09:52:20.082Z</time></trkpt><trkpt lat="46.246268" lon="8.3163933"><ele>774.7142857142858</ele><time>2026-04-26T09:52:23.084Z</time></trkpt><trkpt lat="46.2462585" lon="8.3162765"><ele>777.4285714285714</ele><time>2026-04-26T09:52:25.077Z</time></trkpt><trkpt lat="46.2462339" lon="8.3161777"><ele>780.1428571428571</ele><time>2026-04-26T09:52:28.077Z</time></trkpt><trkpt lat="46.2462169" lon="8.3160879"><ele>782.8571428571429</ele><time>2026-04-26T09:52:30.08Z</time></trkpt><trkpt lat="46.2461887" lon="8.3159988"><ele>785.5714285714286</ele><time>2026-04-26T09:52:32.087Z</time></trkpt><trkpt lat="46.2461555" lon="8.3159052"><ele>788.2857142857143</ele><time>2026-04-26T09:52:34.083Z</time></trkpt><trkpt lat="46.2461392" lon="8.3157805"><ele>791.0</ele><time>2026-04-26T09:52:36.085Z</time></trkpt><trkpt lat="46.2461456" lon="8.3156389"><ele>790.8333333333334</ele><time>2026-04-26T09:52:38.091Z</time></trkpt><trkpt lat="46.2461411" lon="8.3155315"><ele>790.6666666666667</ele><time>2026-04-26T09:52:43.095Z</time></trkpt><trkpt lat="46.2460848" lon="8.3154793"><ele>790.5</ele><time>2026-04-26T09:52:48.094Z</time></trkpt><trkpt lat="46.2460122" lon="8.3154749"><ele>790.3333333333333</ele><time>2026-04-26T09:52:51.097Z</time></trkpt><trkpt lat="46.2459395" lon="8.3154518"><ele>790.1666666666666</ele><time>2026-04-26T09:53:07.092Z</time></trkpt><trkpt lat="46.2458615" lon="8.3154675"><ele>790.0</ele><time>2026-04-26T09:53:11.098Z</time></trkpt><trkpt lat="46.2457623" lon="8.3154615"><ele>789.9999999999999</ele><time>2026-04-26T09:53:14.098Z</time></trkpt><trkpt lat="46.2456856" lon="8.3154559"><ele>790.0</ele><time>2026-04-26T09:53:16.115Z</time></trkpt><trkpt lat="46.2455962" lon="8.3154443"><ele>790.0</ele><time>2026-04-26T09:53:18.096Z</time></trkpt><trkpt lat="46.2455048" lon="8.3154263"><ele>790.0</ele><time>2026-04-26T09:53:20.086Z</time></trkpt><trkpt lat="46.2454105" lon="8.3154075"><ele>789.9999999999999</ele><time>2026-04-26T09:53:22.08Z</time></trkpt><trkpt lat="46.2454857" lon="8.3154085"><ele>790.0</ele><time>2026-04-26T09:53:41.105Z</time></trkpt><trkpt lat="46.2455627" lon="8.3153896"><ele>790.0</ele><time>2026-04-26T09:53:43.101Z</time></trkpt><trkpt lat="46.245643" lon="8.3153963"><ele>790.0</ele><time>2026-04-26T09:53:45.095Z</time></trkpt><trkpt lat="46.2457026" lon="8.3154299"><ele>790.0</ele><time>2026-04-26T09:53:47.105Z</time></trkpt><trkpt lat="46.2457589" lon="8.3155139"><ele>790.0</ele><time>2026-04-26T09:53:50.096Z</time></trkpt><trkpt lat="46.2457895" lon="8.3156123"><ele>790.0</ele><time>2026-04-26T09:53:54.102Z</time></trkpt><trkpt lat="46.2457991" lon="8.3157145"><ele>790.0</ele><time>2026-04-26T09:53:58.107Z</time></trkpt><trkpt lat="46.2458711" lon="8.3157171"><ele>790.0</ele><time>2026-04-26T09:54:03.103Z</time></trkpt><trkpt lat="46.2459147" lon="8.3156311"><ele>789.9999999999999</ele><time>2026-04-26T09:54:14.088Z</time></trkpt><trkpt lat="46.2459396" lon="8.3155341"><ele>790.0</ele><time>2026-04-26T09:54:16.09Z</time></trkpt><trkpt lat="46.2460081" lon="8.3154509"><ele>790.0</ele><time>2026-04-26T09:54:18.101Z</time></trkpt><trkpt lat="46.2460726" lon="8.3153782"><ele>790.0</ele><time>2026-04-26T09:54:20.086Z</time></trkpt><trkpt lat="46.2461151" lon="8.3152721"><ele>789.9999999999999</ele><time>2026-04-26T09:54:23.091Z</time></trkpt><trkpt lat="46.2461367" lon="8.315173"><ele>790.0</ele><time>2026-04-26T09:54:26.089Z</time></trkpt><trkpt lat="46.246154" lon="8.3150661"><ele>790.0</ele><time>2026-04-26T09:54:30.086Z</time></trkpt><trkpt lat="46.2461844" lon="8.3149599"><ele>790.0</ele><time>2026-04-26T09:54:38.083Z</time></trkpt><trkpt lat="46.2461517" lon="8.3148442"><ele>790.0</ele><time>2026-04-26T09:54:42.091Z</time></trkpt><trkpt lat="46.2460596" lon="8.3146872"><ele>790.0</ele><time>2026-04-26T09:54:44.092Z</time></trkpt><trkpt lat="46.2459964" lon="8.3146083"><ele>790.0</ele><time>2026-04-26T09:54:45.094Z</time></trkpt><trkpt lat="46.2459094" lon="8.3145104"><ele>791.0</ele><time>2026-04-26T09:54:47.097Z</time></trkpt><trkpt lat="46.2458256" lon="8.3144165"><ele>792.0</ele><time>2026-04-26T09:54:49.102Z</time></trkpt><trkpt lat="46.2457309" lon="8.3143546"><ele>793.0</ele><time>2026-04-26T09:54:51.099Z</time></trkpt><trkpt lat="46.2456342" lon="8.3143016"><ele>794.0</ele><time>2026-04-26T09:54:53.098Z</time></trkpt><trkpt lat="46.2455599" lon="8.3142447"><ele>795.0</ele><time>2026-04-26T09:54:55.098Z</time></trkpt><trkpt lat="46.245485" lon="8.3141917"><ele>795.6666666666666</ele><time>2026-04-26T09:54:57.095Z</time></trkpt><trkpt lat="46.2454081" lon="8.3141559"><ele>796.3333333333333</ele><time>2026-04-26T09:54:59.098Z</time></trkpt><trkpt lat="46.2453245" lon="8.3141312"><ele>797.0</ele><time>2026-04-26T09:55:01.096Z</time></trkpt><trkpt lat="46.2452458" lon="8.3141062"><ele>797.6666666666666</ele><time>2026-04-26T09:55:03.097Z</time></trkpt><trkpt lat="46.2451746" lon="8.3140843"><ele>798.3333333333333</ele><time>2026-04-26T09:55:05.095Z</time></trkpt><trkpt lat="46.2451024" lon="8.3140629"><ele>799.0</ele><time>2026-04-26T09:55:07.095Z</time></trkpt><trkpt lat="46.2450286" lon="8.3140594"><ele>798.9999999999999</ele><time>2026-04-26T09:55:09.104Z</time></trkpt><trkpt lat="46.2449547" lon="8.3140388"><ele>799.0</ele><time>2026-04-26T09:55:11.1Z</time></trkpt><trkpt lat="46.2448807" lon="8.3140307"><ele>799.0</ele><time>2026-04-26T09:55:13.102Z</time></trkpt><trkpt lat="46.2448106" lon="8.3140377"><ele>799.0</ele><time>2026-04-26T09:55:15.095Z</time></trkpt><trkpt lat="46.2447349" lon="8.3140547"><ele>798.9999999999999</ele><time>2026-04-26T09:55:17.088Z</time></trkpt><trkpt lat="46.2446697" lon="8.3140949"><ele>799.0</ele><time>2026-04-26T09:55:19.102Z</time></trkpt><trkpt lat="46.2445938" lon="8.314148"><ele>799.1666666666666</ele><time>2026-04-26T09:55:21.103Z</time></trkpt><trkpt lat="46.2445108" lon="8.3141812"><ele>799.3333333333333</ele><time>2026-04-26T09:55:23.107Z</time></trkpt><trkpt lat="46.2444221" lon="8.3141845"><ele>799.5</ele><time>2026-04-26T09:55:25.105Z</time></trkpt><trkpt lat="46.2443381" lon="8.3141655"><ele>799.6666666666667</ele><time>2026-04-26T09:55:27.102Z</time></trkpt><trkpt lat="46.2442642" lon="8.3141412"><ele>799.8333333333334</ele><time>2026-04-26T09:55:29.11Z</time></trkpt><trkpt lat="46.244198" lon="8.3141132"><ele>800.0</ele><time>2026-04-26T09:55:31.107Z</time></trkpt><trkpt lat="46.2441269" lon="8.3140801"><ele>800.0000000000001</ele><time>2026-04-26T09:55:33.107Z</time></trkpt><trkpt lat="46.2440495" lon="8.3140695"><ele>800.0</ele><time>2026-04-26T09:55:35.107Z</time></trkpt><trkpt lat="46.2439661" lon="8.3140704"><ele>800.0</ele><time>2026-04-26T09:55:37.109Z</time></trkpt><trkpt lat="46.2438863" lon="8.3140823"><ele>800.0</ele><time>2026-04-26T09:55:39.112Z</time></trkpt><trkpt lat="46.2438225" lon="8.3140988"><ele>800.0000000000001</ele><time>2026-04-26T09:55:41.1Z</time></trkpt><trkpt lat="46.2437332" lon="8.3141382"><ele>800.0</ele><time>2026-04-26T09:55:44.107Z</time></trkpt><trkpt lat="46.2436737" lon="8.3141686"><ele>801.5714285714287</ele><time>2026-04-26T09:55:46.103Z</time></trkpt><trkpt lat="46.2436132" lon="8.3142187"><ele>803.1428571428571</ele><time>2026-04-26T09:55:48.101Z</time></trkpt><trkpt lat="46.2435546" lon="8.31426"><ele>804.7142857142858</ele><time>2026-04-26T09:55:50.11Z</time></trkpt><trkpt lat="46.2434885" lon="8.3142867"><ele>806.2857142857143</ele><time>2026-04-26T09:55:52.107Z</time></trkpt><trkpt lat="46.2434107" lon="8.3143126"><ele>807.8571428571429</ele><time>2026-04-26T09:55:54.102Z</time></trkpt><trkpt lat="46.2433332" lon="8.314348"><ele>809.4285714285714</ele><time>2026-04-26T09:55:56.104Z</time></trkpt><trkpt lat="46.2432654" lon="8.3143875"><ele>811.0</ele><time>2026-04-26T09:55:58.102Z</time></trkpt><trkpt lat="46.2431975" lon="8.3144123"><ele>810.9999999999999</ele><time>2026-04-26T09:56:00.105Z</time></trkpt><trkpt lat="46.2431336" lon="8.3144308"><ele>811.0</ele><time>2026-04-26T09:56:02.108Z</time></trkpt><trkpt lat="46.2430576" lon="8.3144144"><ele>811.0</ele><time>2026-04-26T09:56:05.1Z</time></trkpt><trkpt lat="46.2429636" lon="8.3144151"><ele>811.0</ele><time>2026-04-26T09:56:08.106Z</time></trkpt><trkpt lat="46.2428821" lon="8.3144424"><ele>810.9999999999999</ele><time>2026-04-26T09:56:11.105Z</time></trkpt><trkpt lat="46.2428064" lon="8.3144412"><ele>811.0</ele><time>2026-04-26T09:56:13.104Z</time></trkpt><trkpt lat="46.2427181" lon="8.3144351"><ele>811.8</ele><time>2026-04-26T09:56:15.102Z</time></trkpt><trkpt lat="46.2426267" lon="8.314415"><ele>812.5999999999999</ele><time>2026-04-26T09:56:17.107Z</time></trkpt><trkpt lat="46.2425399" lon="8.3143965"><ele>813.4</ele><time>2026-04-26T09:56:19.1Z</time></trkpt><trkpt lat="46.2424595" lon="8.3143735"><ele>814.2</ele><time>2026-04-26T09:56:21.109Z</time></trkpt><trkpt lat="46.2423545" lon="8.3143295"><ele>815.0</ele><time>2026-04-26T09:56:23.106Z</time></trkpt><trkpt lat="46.2422487" lon="8.3142992"><ele>815.0000000000001</ele><time>2026-04-26T09:56:25.104Z</time></trkpt><trkpt lat="46.2421602" lon="8.3142629"><ele>815.0</ele><time>2026-04-26T09:56:27.109Z</time></trkpt><trkpt lat="46.2420775" lon="8.3142161"><ele>815.0</ele><time>2026-04-26T09:56:29.113Z</time></trkpt><trkpt lat="46.2420063" lon="8.3141678"><ele>815.0</ele><time>2026-04-26T09:56:31.112Z</time></trkpt><trkpt lat="46.2419332" lon="8.3141159"><ele>815.0000000000001</ele><time>2026-04-26T09:56:33.107Z</time></trkpt><trkpt lat="46.241873" lon="8.3140589"><ele>815.0</ele><time>2026-04-26T09:56:35.108Z</time></trkpt><trkpt lat="46.2418168" lon="8.3139916"><ele>815.0000000000001</ele><time>2026-04-26T09:56:37.121Z</time></trkpt><trkpt lat="46.2417592" lon="8.3139181"><ele>815.0</ele><time>2026-04-26T09:56:39.131Z</time></trkpt><trkpt lat="46.2417133" lon="8.3138404"><ele>815.0</ele><time>2026-04-26T09:56:41.123Z</time></trkpt><trkpt lat="46.2416593" lon="8.3137794"><ele>815.0</ele><time>2026-04-26T09:56:43.118Z</time></trkpt><trkpt lat="46.2416102" lon="8.3136973"><ele>815.0000000000001</ele><time>2026-04-26T09:56:45.121Z</time></trkpt><trkpt lat="46.2415465" lon="8.3136178"><ele>815.0</ele><time>2026-04-26T09:56:47.12Z</time></trkpt><trkpt lat="46.2414843" lon="8.3135557"><ele>816.6</ele><time>2026-04-26T09:56:49.12Z</time></trkpt><trkpt lat="46.2415742" lon="8.3135186"><ele>818.2</ele><time>2026-04-26T09:56:59.116Z</time></trkpt><trkpt lat="46.2416304" lon="8.3134136"><ele>819.8</ele><time>2026-04-26T09:57:01.117Z</time></trkpt><trkpt lat="46.241681" lon="8.3132776"><ele>821.4</ele><time>2026-04-26T09:57:03.125Z</time></trkpt><trkpt lat="46.2417379" lon="8.3131789"><ele>823.0</ele><time>2026-04-26T09:57:05.12Z</time></trkpt><trkpt lat="46.241791" lon="8.3131121"><ele>825.3333333333333</ele><time>2026-04-26T09:57:07.126Z</time></trkpt><trkpt lat="46.2418537" lon="8.3130609"><ele>827.6666666666666</ele><time>2026-04-26T09:57:10.119Z</time></trkpt><trkpt lat="46.2419177" lon="8.3129943"><ele>830.0</ele><time>2026-04-26T09:57:13.125Z</time></trkpt><trkpt lat="46.2419979" lon="8.3129452"><ele>832.3333333333333</ele><time>2026-04-26T09:57:16.124Z</time></trkpt><trkpt lat="46.2420604" lon="8.3129256"><ele>834.6666666666666</ele><time>2026-04-26T09:57:18.122Z</time></trkpt><trkpt lat="46.2421523" lon="8.3129008"><ele>837.0</ele><time>2026-04-26T09:57:21.124Z</time></trkpt><trkpt lat="46.2422299" lon="8.3128979"><ele>838.0</ele><time>2026-04-26T09:57:23.129Z</time></trkpt><trkpt lat="46.2423067" lon="8.3128934"><ele>839.0</ele><time>2026-04-26T09:57:25.125Z</time></trkpt><trkpt lat="46.2423883" lon="8.3128941"><ele>840.0</ele><time>2026-04-26T09:57:27.125Z</time></trkpt><trkpt lat="46.2424778" lon="8.312919"><ele>841.0</ele><time>2026-04-26T09:57:29.128Z</time></trkpt><trkpt lat="46.2425641" lon="8.3129378"><ele>842.0</ele><time>2026-04-26T09:57:31.124Z</time></trkpt><trkpt lat="46.2426424" lon="8.3129331"><ele>843.0</ele><time>2026-04-26T09:57:33.134Z</time></trkpt><trkpt lat="46.2427087" lon="8.3129243"><ele>843.0</ele><time>2026-04-26T09:57:35.129Z</time></trkpt><trkpt lat="46.2427951" lon="8.3128823"><ele>843.0</ele><time>2026-04-26T09:57:38.129Z</time></trkpt><trkpt lat="46.2428862" lon="8.312841"><ele>843.0</ele><time>2026-04-26T09:57:41.131Z</time></trkpt><trkpt lat="46.2429563" lon="8.312815"><ele>843.0</ele><time>2026-04-26T09:57:43.125Z</time></trkpt><trkpt lat="46.2430184" lon="8.3127826"><ele>843.0</ele><time>2026-04-26T09:57:45.127Z</time></trkpt><trkpt lat="46.2431043" lon="8.3127528"><ele>843.0</ele><time>2026-04-26T09:57:48.13Z</time></trkpt><trkpt lat="46.2431929" lon="8.3127385"><ele>844.3333333333334</ele><time>2026-04-26T09:57:51.135Z</time></trkpt><trkpt lat="46.2432653" lon="8.3127352"><ele>845.6666666666667</ele><time>2026-04-26T09:57:54.124Z</time></trkpt><trkpt lat="46.2433419" lon="8.3127536"><ele>847.0</ele><time>2026-04-26T09:57:57.134Z</time></trkpt><trkpt lat="46.2434284" lon="8.3127716"><ele>848.3333333333334</ele><time>2026-04-26T09:58:00.122Z</time></trkpt><trkpt lat="46.2434919" lon="8.3127674"><ele>849.6666666666667</ele><time>2026-04-26T09:58:02.13Z</time></trkpt><trkpt lat="46.2435673" lon="8.3127508"><ele>851.0</ele><time>2026-04-26T09:58:05.13Z</time></trkpt><trkpt lat="46.2436502" lon="8.3127242"><ele>851.0000000000001</ele><time>2026-04-26T09:58:08.131Z</time></trkpt><trkpt lat="46.2437284" lon="8.3126895"><ele>851.0</ele><time>2026-04-26T09:58:11.131Z</time></trkpt><trkpt lat="46.243811" lon="8.3126583"><ele>851.0</ele><time>2026-04-26T09:58:14.135Z</time></trkpt><trkpt lat="46.2438951" lon="8.312633"><ele>851.0</ele><time>2026-04-26T09:58:17.13Z</time></trkpt><trkpt lat="46.243965" lon="8.3126107"><ele>851.0000000000001</ele><time>2026-04-26T09:58:20.125Z</time></trkpt><trkpt lat="46.2440281" lon="8.3125908"><ele>851.0</ele><time>2026-04-26T09:58:23.131Z</time></trkpt><trkpt lat="46.244098" lon="8.3125842"><ele>852.1428571428571</ele><time>2026-04-26T09:58:26.136Z</time></trkpt><trkpt lat="46.2441645" lon="8.3125807"><ele>853.2857142857143</ele><time>2026-04-26T09:58:29.132Z</time></trkpt><trkpt lat="46.2442441" lon="8.312582"><ele>854.4285714285713</ele><time>2026-04-26T09:58:32.131Z</time></trkpt><trkpt lat="46.2443195" lon="8.3125845"><ele>855.5714285714286</ele><time>2026-04-26T09:58:35.126Z</time></trkpt><trkpt lat="46.244386" lon="8.3125909"><ele>856.7142857142857</ele><time>2026-04-26T09:58:38.127Z</time></trkpt><trkpt lat="46.2444713" lon="8.3125771"><ele>857.8571428571428</ele><time>2026-04-26T09:58:42.126Z</time></trkpt><trkpt lat="46.2445412" lon="8.3125595"><ele>859.0</ele><time>2026-04-26T09:58:45.132Z</time></trkpt><trkpt lat="46.2446042" lon="8.3126134"><ele>858.9999999999999</ele><time>2026-04-26T09:58:51.129Z</time></trkpt><trkpt lat="46.2446505" lon="8.3126961"><ele>859.0</ele><time>2026-04-26T09:58:54.119Z</time></trkpt><trkpt lat="46.2447065" lon="8.3127638"><ele>859.0</ele><time>2026-04-26T09:59:11.118Z</time></trkpt><trkpt lat="46.2447693" lon="8.3127768"><ele>859.0</ele><time>2026-04-26T09:59:15.112Z</time></trkpt><trkpt lat="46.2447981" lon="8.3126771"><ele>859.0</ele><time>2026-04-26T09:59:20.128Z</time></trkpt><trkpt lat="46.2448694" lon="8.3126994"><ele>858.9999999999999</ele><time>2026-04-26T09:59:26.114Z</time></trkpt><trkpt lat="46.244923" lon="8.3127641"><ele>859.0</ele><time>2026-04-26T09:59:38.109Z</time></trkpt><trkpt lat="46.2448381" lon="8.3127843"><ele>859.0</ele><time>2026-04-26T09:59:55.091Z</time></trkpt><trkpt lat="46.244755" lon="8.3128169"><ele>859.0000000000001</ele><time>2026-04-26T09:59:57.115Z</time></trkpt><trkpt lat="46.2446433" lon="8.3128347"><ele>859.0000000000001</ele><time>2026-04-26T09:59:59.103Z</time></trkpt><trkpt lat="46.2445105" lon="8.3128506"><ele>859.0</ele><time>2026-04-26T10:00:01.099Z</time></trkpt><trkpt lat="46.2444359" lon="8.3128651"><ele>859.0</ele><time>2026-04-26T10:00:02.106Z</time></trkpt><trkpt lat="46.2443592" lon="8.3128711"><ele>858.9999999999999</ele><time>2026-04-26T10:00:03.109Z</time></trkpt><trkpt lat="46.2442769" lon="8.3128717"><ele>859.0</ele><time>2026-04-26T10:00:04.106Z</time></trkpt><trkpt lat="46.2441948" lon="8.3128755"><ele>859.0</ele><time>2026-04-26T10:00:05.113Z</time></trkpt><trkpt lat="46.2441179" lon="8.3128766"><ele>859.0</ele><time>2026-04-26T10:00:06.104Z</time></trkpt><trkpt lat="46.2440416" lon="8.3128819"><ele>858.9999999999999</ele><time>2026-04-26T10:00:07.112Z</time></trkpt><trkpt lat="46.2439635" lon="8.3128761"><ele>859.0</ele><time>2026-04-26T10:00:08.112Z</time></trkpt><trkpt lat="46.2438967" lon="8.3128645"><ele>857.6666666666666</ele><time>2026-04-26T10:00:09.118Z</time></trkpt><trkpt lat="46.2438042" lon="8.3128275"><ele>856.3333333333333</ele><time>2026-04-26T10:00:11.12Z</time></trkpt><trkpt lat="46.2437287" lon="8.3128144"><ele>855.0</ele><time>2026-04-26T10:00:13.109Z</time></trkpt><trkpt lat="46.2436665" lon="8.3127948"><ele>853.6666666666667</ele><time>2026-04-26T10:00:15.114Z</time></trkpt><trkpt lat="46.2435783" lon="8.3127909"><ele>852.3333333333334</ele><time>2026-04-26T10:00:18.111Z</time></trkpt><trkpt lat="46.2435093" lon="8.3127997"><ele>851.0</ele><time>2026-04-26T10:00:20.107Z</time></trkpt><trkpt lat="46.2434391" lon="8.3128167"><ele>851.0</ele><time>2026-04-26T10:00:22.109Z</time></trkpt><trkpt lat="46.24336" lon="8.3128176"><ele>851.0</ele><time>2026-04-26T10:00:24.11Z</time></trkpt><trkpt lat="46.243259" lon="8.3127918"><ele>851.0</ele><time>2026-04-26T10:00:26.13Z</time></trkpt><trkpt lat="46.2431351" lon="8.3127997"><ele>851.0</ele><time>2026-04-26T10:00:28.115Z</time></trkpt><trkpt lat="46.243059" lon="8.3128212"><ele>851.0</ele><time>2026-04-26T10:00:29.116Z</time></trkpt><trkpt lat="46.2429764" lon="8.3128481"><ele>849.4</ele><time>2026-04-26T10:00:30.113Z</time></trkpt><trkpt lat="46.2428901" lon="8.3128751"><ele>847.8</ele><time>2026-04-26T10:00:31.115Z</time></trkpt><trkpt lat="46.2427997" lon="8.3129023"><ele>846.1999999999999</ele><time>2026-04-26T10:00:32.116Z</time></trkpt><trkpt lat="46.2427122" lon="8.3129353"><ele>844.5999999999999</ele><time>2026-04-26T10:00:33.122Z</time></trkpt><trkpt lat="46.2426209" lon="8.3129647"><ele>843.0</ele><time>2026-04-26T10:00:34.116Z</time></trkpt><trkpt lat="46.2425271" lon="8.3129851"><ele>843.0</ele><time>2026-04-26T10:00:35.111Z</time></trkpt><trkpt lat="46.2424309" lon="8.3129835"><ele>843.0</ele><time>2026-04-26T10:00:36.119Z</time></trkpt><trkpt lat="46.2423365" lon="8.3129683"><ele>843.0</ele><time>2026-04-26T10:00:37.114Z</time></trkpt><trkpt lat="46.2422508" lon="8.3129633"><ele>843.0</ele><time>2026-04-26T10:00:38.11Z</time></trkpt><trkpt lat="46.2421775" lon="8.3129778"><ele>843.0</ele><time>2026-04-26T10:00:39.121Z</time></trkpt><trkpt lat="46.2420869" lon="8.3129823"><ele>843.0</ele><time>2026-04-26T10:00:41.124Z</time></trkpt><trkpt lat="46.2420106" lon="8.3129706"><ele>837.0</ele><time>2026-04-26T10:00:45.114Z</time></trkpt></trkseg></trk></gpx>